[[{"header":{"parameterUnit":"m.s-1","parameterCategory":1,"la1":30.6,"la2":29.2853,"lo1":-89.7004,"lo2":-87.6739,"dy":0.0162,"dx":0.0183,"nx":112,"ny":82,"refTime":"2026-05-06T00:00:00:Z","depth":0,"parameterNumber":2,"parameterNumberName":"U-component_of_WINDS"},"data":[0.0,0.0,0.0,0.0,0.0,0.0,0.0,0.0,0.0,0.0,0.0,0.0,0.0,0.0,0.0,0.0,0.0,0.0,0.0,0.0,0.0,0.0,0.0,0.0,0.0,0.0,0.0,0.0,0.0,0.0,0.0,0.0,0.0,0.0,0.0,0.0,0.0,0.0,0.0,0.0,0.0,0.0,0.0,0.0,0.0,0.0,0.0,0.0,0.0,0.0,0.0,0.0,0.0,0.0,0.0,0.0,0.0,0.0,0.0,0.0,0.0,0.0,0.0,0.0,0.0,0.0,0.0,0.0,0.0,0.0,0.0,0.0,0.0,0.0,0.0,0.0,0.0,0.0,0.0,0.0,0.0,0.0,0.0,0.0,0.0,0.0,0.0,0.0,0.0,0.0,-1.4138,-1.6829,-1.9208,-2.0615,-2.0618,-1.9915,-1.9136,-1.8279,0.0,0.0,0.0,0.0,0.0,0.0,0.0,0.0,0.0,0.0,0.0,0.0,0.0,0.0,0.0,0.0,0.0,0.0,0.0,0.0,0.0,0.0,0.0,0.0,0.0,0.0,0.0,0.0,0.0,0.0,0.0,0.0,0.0,0.0,0.0,0.0,0.0,0.0,0.0,0.0,0.0,0.0,0.0,0.0,0.0,0.0,0.0,0.0,0.0,0.0,0.0,0.0,0.0,0.0,0.0,0.0,0.0,0.0,0.0,0.0,0.0,0.0,0.0,0.0,0.0,0.0,0.0,0.0,0.0,0.0,0.0,0.0,0.0,0.0,0.0,0.0,0.0,0.0,0.0,0.0,0.0,0.0,0.0,0.0,0.0,0.0,0.0,0.0,0.0,0.0,0.0,0.0,0.0,0.0,0.0,0.0,0.0,0.0,0.0,0.0,0.0,0.0,0.0,0.0,-1.5189,-1.8543,-1.991,-2.0613,-2.0614,-2.0461,-2.0033,-1.9174,0.0,0.0,0.0,0.0,0.0,0.0,0.0,0.0,0.0,0.0,0.0,0.0,0.0,0.0,0.0,0.0,0.0,0.0,0.0,0.0,0.0,0.0,0.0,0.0,0.0,0.0,0.0,0.0,0.0,0.0,0.0,0.0,0.0,0.0,0.0,0.0,0.0,0.0,0.0,0.0,0.0,0.0,0.0,0.0,0.0,0.0,0.0,0.0,0.0,0.0,0.0,0.0,0.0,0.0,0.0,0.0,0.0,0.0,0.0,0.0,0.0,0.0,0.0,0.0,0.0,0.0,0.0,0.0,0.0,0.0,0.0,0.0,0.0,0.0,0.0,0.0,0.0,0.0,0.0,0.0,0.0,0.0,0.0,0.0,0.0,0.0,0.0,0.0,0.0,0.0,0.0,0.0,0.0,0.0,0.0,0.0,0.0,0.0,0.0,0.0,0.0,0.0,0.0,-1.4369,-1.7022,-1.9089,-2.0066,-2.0808,-2.1276,-2.0458,-1.9523,-1.8665,-1.5347,0.0,0.0,0.0,0.0,0.0,0.0,0.0,0.0,0.0,0.0,0.0,0.0,0.0,0.0,0.0,0.0,0.0,0.0,0.0,0.0,0.0,0.0,0.0,0.0,0.0,0.0,0.0,0.0,0.0,0.0,0.0,0.0,0.0,0.0,0.0,0.0,0.0,0.0,0.0,0.0,0.0,0.0,0.0,0.0,0.0,0.0,0.0,0.0,0.0,0.0,0.0,0.0,0.0,0.0,0.0,0.0,0.0,0.0,0.0,0.0,0.0,0.0,0.0,0.0,0.0,0.0,0.0,0.0,0.0,0.0,0.0,0.0,0.0,0.0,0.0,0.0,0.0,0.0,0.0,0.0,0.0,0.0,0.0,0.0,0.0,0.0,0.0,0.0,0.0,0.0,0.0,0.0,0.0,0.0,0.0,0.0,0.0,0.0,0.0,0.0,0.0,0.0,-1.6827,-1.8778,-2.0065,-2.0808,-2.1393,-2.1861,-2.069,-1.9363,-1.8078,-1.5151,0.0,0.0,0.0,0.0,0.0,0.0,0.0,0.0,0.0,0.0,0.0,0.0,0.0,0.0,0.0,0.0,0.0,0.0,0.0,0.0,0.0,0.0,0.0,0.0,0.0,0.0,0.0,0.0,0.0,0.0,0.0,0.0,0.0,0.0,0.0,0.0,0.0,0.0,0.0,0.0,0.0,0.0,0.0,0.0,0.0,0.0,0.0,0.0,0.0,0.0,0.0,0.0,0.0,0.0,0.0,0.0,0.0,0.0,0.0,0.0,0.0,0.0,0.0,0.0,0.0,0.0,0.0,0.0,0.0,0.0,0.0,0.0,0.0,0.0,0.0,0.0,0.0,0.0,0.0,0.0,0.0,0.0,0.0,0.0,0.0,0.0,0.0,0.0,0.0,0.0,0.0,0.0,0.0,0.0,0.0,0.0,0.0,0.0,0.0,0.0,0.0,0.0,-1.8074,-2.0143,-2.2564,-2.2877,-2.2642,-2.1978,-2.1783,-2.0651,-1.8154,-1.6243,0.0,0.0,0.0,0.0,0.0,0.0,0.0,0.0,0.0,0.0,0.0,0.0,0.0,0.0,0.0,0.0,0.0,0.0,0.0,0.0,0.0,0.0,0.0,0.0,0.0,0.0,0.0,0.0,0.0,0.0,0.0,0.0,0.0,0.0,0.0,0.0,0.0,0.0,0.0,0.0,0.0,0.0,0.0,0.0,0.0,0.0,0.0,0.0,0.0,0.0,0.0,0.0,0.0,0.0,0.0,0.0,0.0,0.0,0.0,0.0,0.0,0.0,0.0,0.0,0.0,0.0,0.0,0.0,0.0,0.0,0.0,0.0,0.0,0.0,0.0,0.0,0.0,0.0,0.0,0.0,0.0,0.0,0.0,0.0,0.0,0.0,0.0,0.0,0.0,0.0,0.0,0.0,0.0,0.0,0.0,0.0,0.0,0.0,0.0,0.0,0.0,0.0,-1.8699,-2.0886,0.0,-2.3111,-2.276,-2.1978,-2.1392,-1.9754,-1.6593,0.0,0.0,0.0,0.0,0.0,0.0,0.0,0.0,0.0,0.0,0.0,0.0,0.0,0.0,0.0,0.0,0.0,0.0,0.0,0.0,0.0,0.0,0.0,0.0,0.0,0.0,0.0,0.0,0.0,0.0,0.0,0.0,0.0,0.0,0.0,0.0,0.0,0.0,0.0,0.0,0.0,0.0,0.0,0.0,0.0,0.0,0.0,0.0,0.0,0.0,0.0,0.0,0.0,0.0,0.0,0.0,0.0,0.0,0.0,0.0,0.0,0.0,0.0,0.0,0.0,0.0,0.0,0.0,0.0,0.0,0.0,0.0,0.0,0.0,0.0,0.0,0.0,0.0,0.0,0.0,0.0,0.0,0.0,0.0,0.0,0.0,0.0,0.0,0.0,0.0,0.0,0.0,0.0,0.0,0.0,0.0,0.0,0.0,0.0,0.0,0.0,0.0,-1.7059,-1.9558,-2.1745,0.0,-2.3931,-2.3462,-2.2368,-2.1745,-1.9676,-1.5656,0.0,0.0,0.0,0.0,0.0,0.0,0.0,0.0,0.0,0.0,0.0,0.0,0.0,0.0,0.0,0.0,0.0,0.0,0.0,0.0,0.0,0.0,0.0,0.0,0.0,0.0,0.0,0.0,0.0,0.0,0.0,0.0,0.0,0.0,0.0,0.0,0.0,0.0,0.0,0.0,0.0,0.0,0.0,0.0,0.0,0.0,0.0,0.0,0.0,0.0,0.0,0.0,0.0,0.0,0.0,0.0,0.0,0.0,0.0,0.0,0.0,0.0,0.0,0.0,0.0,0.0,0.0,0.0,0.0,0.0,0.0,0.0,0.0,0.0,0.0,0.0,0.0,0.0,0.0,0.0,0.0,0.0,0.0,0.0,0.0,0.0,0.0,0.0,0.0,0.0,0.0,0.0,0.0,0.0,0.0,0.0,0.0,0.0,0.0,0.0,0.0,0.0,-1.8738,-2.0768,-2.2798,-2.5414,-2.5687,-2.4985,-2.3228,-2.3072,-2.0886,0.0,0.0,0.0,0.0,0.0,0.0,0.0,0.0,0.0,0.0,0.0,0.0,0.0,0.0,0.0,0.0,0.0,0.0,0.0,0.0,0.0,0.0,0.0,0.0,0.0,0.0,0.0,0.0,0.0,0.0,0.0,0.0,0.0,0.0,0.0,0.0,0.0,0.0,0.0,0.0,0.0,0.0,0.0,0.0,0.0,0.0,0.0,0.0,0.0,0.0,0.0,0.0,0.0,0.0,0.0,0.0,0.0,0.0,0.0,0.0,0.0,0.0,0.0,0.0,0.0,0.0,0.0,0.0,0.0,0.0,0.0,0.0,0.0,0.0,0.0,0.0,0.0,0.0,0.0,0.0,0.0,0.0,0.0,0.0,0.0,0.0,0.0,0.0,0.0,0.0,0.0,0.0,0.0,0.0,0.0,0.0,0.0,0.0,0.0,0.0,0.0,0.0,0.0,-1.7059,-2.0534,-2.3266,-2.4632,-2.5335,-2.475,-2.2446,-2.276,-2.0886,-1.5734,0.0,0.0,0.0,0.0,0.0,0.0,0.0,0.0,0.0,0.0,0.0,0.0,0.0,0.0,0.0,0.0,0.0,0.0,0.0,0.0,0.0,0.0,0.0,0.0,0.0,0.0,0.0,0.0,0.0,0.0,0.0,0.0,0.0,0.0,0.0,0.0,0.0,0.0,0.0,0.0,0.0,0.0,0.0,0.0,0.0,0.0,0.0,0.0,0.0,0.0,0.0,0.0,0.0,0.0,0.0,0.0,0.0,0.0,0.0,0.0,0.0,0.0,0.0,0.0,0.0,0.0,0.0,0.0,0.0,0.0,0.0,0.0,0.0,0.0,0.0,0.0,0.0,0.0,0.0,0.0,0.0,0.0,0.0,0.0,0.0,0.0,0.0,0.0,0.0,0.0,0.0,0.0,0.0,0.0,0.0,0.0,0.0,0.0,0.0,0.0,0.0,0.0,-1.6904,-2.0651,-2.3423,-2.4319,-2.5181,-2.4948,-2.3071,-2.3034,-2.12,-1.671,0.0,0.0,0.0,0.0,0.0,0.0,0.0,0.0,0.0,0.0,0.0,0.0,0.0,0.0,0.0,0.0,0.0,0.0,0.0,0.0,0.0,0.0,0.0,0.0,0.0,0.0,0.0,0.0,0.0,0.0,0.0,0.0,0.0,0.0,0.0,0.0,0.0,0.0,0.0,0.0,0.0,0.0,0.0,0.0,0.0,0.0,0.0,0.0,0.0,0.0,0.0,0.0,0.0,0.0,0.0,0.0,0.0,0.0,0.0,0.0,0.0,0.0,0.0,0.0,0.0,0.0,0.0,0.0,0.0,0.0,0.0,0.0,0.0,0.0,0.0,0.0,0.0,0.0,0.0,0.0,0.0,0.0,0.0,0.0,0.0,0.0,0.0,0.0,0.0,0.0,0.0,0.0,0.0,0.0,0.0,0.0,0.0,0.0,0.0,0.0,0.0,0.0,-1.7685,-2.1004,-2.3423,-2.4319,-2.5184,-2.5341,-2.4477,-2.3583,-2.1711,-1.8468,0.0,0.0,0.0,0.0,0.0,0.0,0.0,0.0,0.0,0.0,0.0,0.0,0.0,0.0,0.0,0.0,0.0,0.0,0.0,0.0,0.0,0.0,0.0,0.0,0.0,0.0,0.0,0.0,0.0,0.0,0.0,0.0,0.0,0.0,0.0,0.0,0.0,0.0,0.0,0.0,0.0,0.0,0.0,0.0,0.0,0.0,0.0,0.0,0.0,0.0,0.0,0.0,0.0,0.0,0.0,0.0,0.0,0.0,0.0,0.0,-1.9346,0.0,0.0,0.0,0.0,0.0,0.0,0.0,0.0,0.0,0.0,0.0,0.0,0.0,0.0,0.0,0.0,0.0,0.0,0.0,0.0,0.0,0.0,0.0,0.0,0.0,0.0,0.0,0.0,0.0,0.0,0.0,0.0,0.0,0.0,0.0,0.0,0.0,0.0,0.0,0.0,0.0,-1.7763,-2.1004,-2.3423,-2.4319,-2.5184,-2.5342,-2.4483,-2.3586,-2.222,-2.0153,-1.6949,0.0,0.0,0.0,0.0,0.0,0.0,0.0,0.0,0.0,0.0,0.0,0.0,0.0,0.0,0.0,0.0,0.0,0.0,0.0,0.0,0.0,0.0,0.0,0.0,0.0,0.0,0.0,0.0,0.0,0.0,0.0,0.0,0.0,0.0,0.0,0.0,0.0,0.0,0.0,0.0,0.0,0.0,0.0,0.0,0.0,0.0,0.0,0.0,0.0,0.0,0.0,0.0,0.0,0.0,0.0,0.0,0.0,0.0,0.0,0.0,-2.2013,0.0,0.0,0.0,0.0,0.0,0.0,0.0,0.0,0.0,0.0,0.0,0.0,0.0,0.0,0.0,0.0,0.0,0.0,0.0,0.0,0.0,0.0,0.0,0.0,0.0,0.0,0.0,0.0,0.0,0.0,0.0,0.0,0.0,0.0,0.0,0.0,0.0,0.0,0.0,0.0,-1.8465,-2.1627,-2.3891,-2.4358,-2.5186,-2.5501,-2.5069,-2.3823,-2.2575,-2.1286,-1.8357,0.0,0.0,0.0,0.0,0.0,0.0,0.0,0.0,0.0,0.0,0.0,0.0,0.0,0.0,0.0,0.0,0.0,0.0,0.0,0.0,0.0,0.0,0.0,0.0,0.0,0.0,0.0,0.0,0.0,0.0,0.0,0.0,0.0,0.0,0.0,0.0,0.0,0.0,0.0,0.0,0.0,0.0,0.0,0.0,0.0,0.0,0.0,0.0,0.0,0.0,0.0,0.0,0.0,-2.8262,-2.9113,-2.9216,-2.9516,-2.9985,-3.0547,-2.908,-2.7751,-2.6555,-2.6188,0.0,0.0,0.0,0.0,0.0,0.0,0.0,0.0,0.0,0.0,0.0,0.0,0.0,0.0,0.0,0.0,0.0,0.0,0.0,0.0,0.0,0.0,0.0,0.0,-2.3982,-2.3531,-2.1965,0.0,0.0,0.0,0.0,0.0,0.0,0.0,0.0,0.0,0.0,0.0,-1.9636,-2.2484,-2.4475,-2.4592,-2.5266,-2.5699,-2.5695,-2.4099,-2.2811,-2.2146,-1.9686,-1.7578,0.0,0.0,0.0,0.0,0.0,0.0,0.0,0.0,0.0,0.0,0.0,0.0,0.0,0.0,0.0,0.0,0.0,0.0,0.0,0.0,0.0,0.0,0.0,0.0,0.0,0.0,0.0,0.0,0.0,0.0,0.0,0.0,-1.5643,-1.5172,0.0,0.0,0.0,0.0,0.0,0.0,0.0,0.0,0.0,0.0,0.0,0.0,0.0,-2.6184,-2.7159,-2.9012,-2.9976,-3.0044,-3.1774,-3.2678,-3.2795,-3.4306,-3.5054,-3.5123,-3.4831,0.0,-3.0005,-2.8487,0.0,0.0,0.0,0.0,0.0,0.0,0.0,0.0,0.0,0.0,0.0,0.0,0.0,0.0,0.0,0.0,0.0,0.0,0.0,0.0,0.0,0.0,-2.7598,-2.7548,-2.753,-2.7277,0.0,-2.4306,-2.2487,-2.1495,-2.0647,0.0,0.0,0.0,0.0,0.0,0.0,0.0,-2.1353,-2.3187,-2.4671,-2.5453,-2.5618,-2.57,-2.5699,-2.41,-2.3047,-2.2968,-2.0547,-1.9023,-1.8784,-1.8076,0.0,0.0,0.0,0.0,0.0,0.0,0.0,0.0,0.0,0.0,0.0,0.0,0.0,0.0,0.0,0.0,0.0,0.0,0.0,0.0,0.0,0.0,0.0,0.0,0.0,0.0,0.0,0.0,0.0,-1.7081,-1.894,-1.8671,-1.8929,-1.8999,0.0,0.0,0.0,0.0,0.0,0.0,0.0,0.0,0.0,-2.6463,-2.8504,-2.9974,-3.0868,-3.3035,-3.4187,-3.4244,-3.5507,-3.614,-3.6222,-3.7052,-3.7418,-3.7416,-3.7422,-3.6563,-3.4958,-3.221,-3.0808,-3.0237,0.0,0.0,0.0,0.0,-2.8224,-2.8576,-2.8576,-2.8302,-2.8068,-2.8458,0.0,0.0,0.0,0.0,0.0,0.0,0.0,0.0,0.0,0.0,-2.8301,-2.8254,-2.8239,-2.8108,-2.7759,-2.6392,-2.4833,0.0,-2.2596,-2.1745,-2.0885,0.0,0.0,0.0,0.0,-2.2291,-2.3148,-2.4359,-2.5296,-2.5648,-2.5696,-2.57,-2.57,-2.4569,-2.3633,-2.3124,-2.1599,-2.0268,-1.9326,-1.8885,-1.7243,0.0,0.0,0.0,0.0,0.0,0.0,0.0,0.0,0.0,0.0,0.0,0.0,0.0,0.0,0.0,0.0,0.0,0.0,0.0,0.0,0.0,0.0,0.0,0.0,0.0,0.0,0.0,0.0,-2.0055,-2.1684,-2.2003,-2.238,-2.2612,0.0,0.0,0.0,0.0,0.0,0.0,-2.7576,-2.8118,-2.893,-3.0211,-3.2106,-3.3416,-3.4074,-3.6162,-3.7279,-3.7332,-3.8239,-3.868,-3.8776,-3.9023,-3.9165,-3.9173,-3.9229,-3.9118,-3.8687,-3.5586,-3.3984,-3.3332,-3.2243,-3.1932,-3.2088,-3.162,-3.162,-3.1777,-3.1542,-3.1464,-3.1503,-3.1737,-3.0645,-2.9123,-2.8226,0.0,0.0,0.0,0.0,-2.846,-2.9084,-2.9279,-2.9278,-2.9274,-2.9069,-2.8828,-2.8679,-2.8091,-2.7071,0.0,-2.4193,-2.3227,-2.2642,0.0,0.0,0.0,0.0,-2.3656,-2.4319,-2.5179,-2.5687,-2.5689,-2.5696,-2.57,-2.57,-2.4882,-2.4023,-2.3163,-2.2299,-2.1161,-1.9675,-1.9582,-1.8255,-1.5498,0.0,0.0,0.0,0.0,0.0,0.0,0.0,0.0,0.0,0.0,0.0,0.0,0.0,0.0,0.0,0.0,0.0,0.0,0.0,0.0,0.0,0.0,0.0,0.0,0.0,0.0,0.0,0.0,0.0,-2.3776,-2.5286,0.0,0.0,0.0,0.0,-2.7623,-2.7739,-2.8513,-3.0327,-3.1908,-3.2836,-3.2914,-3.535,-3.6671,-3.6709,-3.7671,-3.8169,-3.8267,-3.9102,-3.9599,-3.975,-4.0596,-4.097,-4.0952,-4.0953,-4.0483,-3.9585,-3.7827,-3.7085,-3.6852,-3.5174,-3.5018,-3.5524,-3.3884,-3.3807,-3.4393,-3.3572,-3.326,-3.3416,-3.4237,-3.3339,-3.1738,-3.088,-3.0021,0.0,0.0,-3.1192,-3.1857,-3.1896,-3.1896,-3.1895,-3.1895,-3.1269,-3.0449,-2.9708,-2.9513,-2.8964,0.0,-2.5487,-2.4319,-2.428,0.0,-2.2994,-2.3033,-2.3774,-2.4358,-2.4397,-2.5179,-2.5689,-2.5693,-2.5698,-2.5701,-2.5702,-2.4883,-2.4023,-2.3161,-2.2261,-2.1438,-2.0574,-2.0451,-1.9984,-1.9053,-1.663,0.0,0.0,0.0,0.0,0.0,0.0,0.0,0.0,0.0,0.0,0.0,0.0,0.0,0.0,0.0,0.0,0.0,0.0,0.0,0.0,0.0,0.0,0.0,0.0,0.0,0.0,0.0,0.0,-2.7236,-2.8297,0.0,-2.87,-2.825,-2.8625,-3.0327,-3.0984,-3.2029,-3.377,-3.493,-3.5814,-3.6356,-3.7793,-3.8572,-3.8572,-3.9456,-4.0188,-4.0754,-4.1048,-4.1535,-4.2174,-4.254,-4.2722,-4.277,-4.2783,-4.2593,-4.2279,-4.1654,-4.0133,-3.8064,-3.7439,-3.74,-3.7594,-3.697,-3.6932,-3.7088,-3.6228,-3.5916,-3.5798,-3.4979,-3.3886,-3.2871,-3.2557,-3.1895,-3.1388,-3.2245,-3.2713,-3.2949,-3.2949,-3.2949,-3.2792,-3.2246,-3.1856,-3.1387,-3.0567,-2.9983,-2.9435,-2.8808,-2.7716,-2.674,-2.6156,-2.5805,-2.5415,-2.4868,-2.5024,-2.5257,-2.5257,-2.5494,-2.5692,-2.5694,-2.5699,-2.5702,-2.5702,-2.5429,-2.4648,-2.3202,-2.2807,-2.2023,-2.0656,-2.0535,-2.0106,-1.933,-1.8351,-1.7179,0.0,0.0,0.0,0.0,0.0,0.0,0.0,0.0,0.0,0.0,0.0,0.0,0.0,0.0,0.0,0.0,0.0,0.0,0.0,0.0,0.0,0.0,0.0,0.0,0.0,0.0,-2.8615,-2.9533,-3.0557,-3.1262,-3.1355,-3.1158,-3.1603,-3.2996,-3.388,-3.5002,-3.6477,-3.7328,-3.8025,-3.8605,-3.9765,-4.0358,-4.037,-4.1234,-4.1972,-4.2586,-4.2611,-4.2938,-4.3565,-4.3612,-4.3669,-4.3712,-4.3683,-4.3686,-4.3686,-4.3686,-4.2358,-4.0289,-4.0016,-3.9899,-3.9821,-3.9235,-3.9001,-3.8884,-3.8024,-3.775,-3.7555,-3.6385,-3.5447,-3.4704,-3.4704,-3.412,-3.3534,-3.4118,-3.4275,-3.4275,-3.4275,-3.404,-3.369,-3.3105,-3.252,-3.1934,-3.1348,-3.0606,-2.9982,-2.9982,-2.9084,-2.8108,-2.7523,-2.7445,-2.7133,-2.6273,-2.6156,-2.604,-2.5728,-2.5692,-2.5695,-2.5698,-2.5701,-2.5703,-2.5703,-2.5703,-2.4961,-2.3202,-2.3081,-2.2337,-2.0659,-2.0578,-2.0266,-1.9761,-1.9405,-1.8268,-1.6274,0.0,0.0,0.0,0.0,0.0,0.0,0.0,0.0,0.0,0.0,0.0,0.0,0.0,0.0,0.0,0.0,0.0,0.0,0.0,0.0,0.0,0.0,0.0,-2.4347,-2.7218,-2.9597,-3.0523,-3.2105,-3.3158,-3.3191,-3.3991,-3.4858,-3.5704,-3.6516,-3.7367,-3.8212,-3.9069,-3.9578,-3.9578,-4.1197,-4.2067,-4.2142,-4.2992,-4.3441,-4.3523,-4.3626,-4.3677,-4.3792,-4.3761,-4.3769,-4.3775,-4.3767,-4.3764,-4.3764,-4.3764,-4.3764,-4.3684,-4.2786,-4.2435,-4.2201,-4.0483,-3.9858,-3.9702,-3.8923,-3.8611,-3.8611,-3.8611,-3.8025,-3.7321,-3.7321,-3.6735,-3.607,-3.6031,-3.6031,-3.6031,-3.5992,-3.5369,-3.4744,-3.4705,-3.3417,-3.2169,-3.2169,-3.1465,-3.0839,-3.0839,-2.9512,-2.8381,-2.8342,-2.8342,-2.803,-2.7172,-2.7017,0.0,-2.585,-2.5733,-2.5697,-2.5702,-2.5702,-2.5703,-2.5703,-2.5703,-2.4961,-2.3241,-2.3123,-2.2379,-2.07,-2.0621,-2.0621,-2.0621,-1.9751,-1.8056,-1.5491,0.0,0.0,0.0,0.0,0.0,0.0,0.0,0.0,0.0,0.0,0.0,0.0,0.0,0.0,0.0,0.0,0.0,0.0,0.0,0.0,0.0,-2.5994,-2.789,-2.7886,-2.9733,-3.1622,-3.3135,-3.4792,-3.5836,-3.5847,-3.6626,-3.7251,-3.7483,-3.8295,-3.8882,-3.9114,-4.05,-4.1313,-4.1313,-4.2357,-4.297,-4.3024,-4.3275,-4.3777,-4.4526,-4.4512,-4.4891,-4.5605,-4.5577,-4.5577,-4.557,-4.5608,-4.5604,-4.5597,-4.5597,-4.5597,-4.5441,-4.3918,-4.2942,-4.2357,-4.1849,-4.0873,-3.978,-3.9546,-3.9079,-3.8611,-3.8611,-3.8454,-3.8259,-3.8259,-3.8064,-3.775,-3.7126,-3.6931,-3.6813,-3.6148,-3.5836,-3.5485,-3.4861,-3.4315,-3.3807,-3.3183,-3.2363,-3.1738,-3.1738,-3.088,-2.9943,-2.9358,-2.9241,-2.8968,-2.8069,-2.7409,0.0,-2.667,-2.6089,-2.5701,-2.5702,-2.5703,-2.5703,-2.5703,-2.5703,-2.5234,-2.4101,-2.3515,-2.2695,-2.1601,-2.1523,-2.1519,-2.1456,-2.0002,-1.8575,0.0,0.0,0.0,0.0,0.0,0.0,0.0,0.0,0.0,0.0,0.0,0.0,0.0,0.0,0.0,0.0,0.0,0.0,0.0,0.0,0.0,0.0,-2.8083,-3.0211,-3.1299,-3.2261,-3.3267,-3.4278,-3.5897,-3.6903,-3.6903,-3.8025,-3.8721,-3.8721,-3.9539,-4.0197,-4.0545,-4.1467,-4.2164,-4.2512,-4.3401,-4.3866,-4.3951,-4.4292,-4.4802,-4.5426,-4.5478,-4.5769,-4.6281,-4.6286,-4.6284,-4.6316,-4.6313,-4.6308,-4.63,-4.63,-4.63,0.0,0.0,0.0,0.0,0.0,-4.2084,-4.0873,-4.0873,-4.0327,-3.9665,-3.9665,-3.9391,-3.9118,-3.9118,-3.8884,-3.8494,-3.7986,-3.783,-3.7633,-3.6774,-3.6539,-3.6305,-3.5447,-3.4979,-3.4549,-3.4042,-3.3261,-3.2558,-3.2169,-3.1701,0.0,-3.0298,-3.0101,-2.9827,-2.897,-2.8426,-2.7843,-2.7105,-2.6561,-2.6093,-2.5742,-2.5703,-2.5703,-2.5703,-2.5703,0.0,0.0,0.0,-2.332,-2.2422,-2.2383,0.0,0.0,0.0,0.0,0.0,0.0,0.0,0.0,-1.6859,-1.745,0.0,0.0,0.0,0.0,0.0,0.0,0.0,0.0,0.0,0.0,0.0,0.0,0.0,0.0,0.0,0.0,-2.9824,-3.1835,-3.4084,-3.4471,-3.4587,-3.4665,-3.6091,-3.7096,-3.7174,-3.8688,-3.9655,-3.9655,-4.0468,-4.1242,-4.197,0.0,0.0,0.0,0.0,-4.477,-4.4833,-4.5619,-4.6087,-4.6192,-4.6273,-4.6285,-4.6288,-4.6288,-4.6286,-4.6282,-4.6316,-4.6309,-4.63,-4.63,-4.63,-4.6222,-4.5324,-4.501,-4.4894,-4.4036,-4.3216,-4.2513,-4.2435,0.0,0.0,-4.1148,-4.0561,-3.9937,-3.9937,-3.9468,-3.8845,-3.8767,-3.8728,-3.8494,-3.7555,-3.7282,-3.7087,-3.6226,-3.5408,-3.4861,-3.4861,-3.4159,-3.3339,-3.252,-3.2211,-3.1863,-3.1162,-3.0924,-3.0571,-2.9833,-2.9678,-2.9056,-2.7499,-2.7109,-2.6718,-2.5937,0.0,0.0,-2.5703,-2.5703,-2.5352,-2.4609,-2.4453,-2.4062,-2.3281,-2.3163,-2.3155,-2.3253,-2.3161,-2.2707,-2.1845,-2.2734,-2.2775,-2.2044,-2.0398,-2.0101,0.0,0.0,0.0,0.0,0.0,0.0,0.0,0.0,0.0,0.0,0.0,0.0,0.0,0.0,0.0,-2.9747,-3.2111,-3.3852,-3.4316,-3.5013,-3.5704,-3.6323,-3.7328,-3.8218,-3.892,-3.9926,-4.0545,-4.0545,-4.1313,-4.1854,-4.197,-4.3324,-4.4168,-4.4323,-4.5142,-4.5635,-4.5758,-4.597,-4.6125,-4.6216,0.0,0.0,-4.6289,-4.6289,-4.6288,-4.6282,-4.6281,-4.6313,-4.63,-4.63,-4.63,-4.6222,-4.5324,-4.501,-4.4894,-4.4036,-4.3606,-4.3333,-4.263,-4.2279,-4.2045,-4.1343,-4.0992,-4.0836,-4.0836,-4.0758,0.0,-3.978,-3.9585,-3.9234,-3.7672,-3.7282,-3.7087,-3.6226,-3.5875,-3.5758,-3.5758,-3.5057,-3.4394,-3.4244,-3.3074,-3.2059,-3.1909,-3.1323,-3.0814,-3.0659,-3.0035,-2.949,-2.9139,-2.7851,-2.6953,-2.6758,-2.6133,-2.5703,-2.5703,-2.5703,-2.5625,-2.5469,-2.4805,-2.4336,-2.4141,-2.3476,-2.3434,-2.4128,-2.3457,-2.2968,-2.276,-2.3616,-2.3954,-2.3775,-2.2746,-2.2721,0.0,0.0,0.0,0.0,0.0,0.0,0.0,0.0,0.0,0.0,0.0,-2.361,-2.5697,0.0,-2.9863,-3.156,-3.3305,-3.4549,-3.4974,-3.5438,-3.6013,-3.6787,-3.7671,-3.8528,-3.9423,-4.0274,-4.0816,-4.0816,-4.1545,-4.2202,-4.2628,-4.3904,-4.4801,-4.5247,-4.5654,-4.5923,-4.6037,-4.613,-4.6192,-4.6267,-4.6287,-4.6289,-4.6289,-4.6289,-4.6289,-4.6285,-4.6283,-4.6317,-4.6306,-4.6302,-4.63,-4.6261,-4.5831,-4.5636,-4.5597,-4.5168,-4.4738,-4.4309,-4.384,-4.3138,-4.2318,-4.1888,-4.1459,-4.1109,-4.1109,-4.1109,-4.0992,-4.0561,-4.0444,-4.0171,-3.8882,-3.8258,-3.7711,-3.6852,-3.6305,-3.5992,-3.5992,-3.5645,-3.5219,-3.4793,-3.4015,-3.312,-3.2263,-3.1795,-3.1405,-3.0974,-3.0545,-3.0077,-2.9648,-2.8828,-2.8125,-2.7695,-2.7266,-2.6836,-2.6406,-2.5937,-2.5703,-2.5703,-2.5273,-2.5039,-2.5039,-2.4648,-2.4606,-2.503,-2.4583,-2.4323,-2.4284,-2.5154,-2.5559,-2.5535,-2.5541,-2.5323,0.0,0.0,0.0,0.0,0.0,0.0,0.0,0.0,-2.1646,-2.3399,-2.4926,-2.6497,-2.8204,-2.9901,-3.1565,-3.3107,-3.4079,-3.4897,-3.5588,-3.5704,-3.6052,-3.7058,-3.7787,-3.8605,-3.9655,-4.039,-4.0855,-4.1009,-4.1777,-4.2628,-4.3518,-4.4369,-4.5163,-4.5867,-4.5905,-4.5986,-4.6091,-4.6167,-4.6212,-4.6315,-4.6288,-4.6289,-4.6289,-4.6289,-4.6289,-4.6287,-4.6283,-4.6317,-4.6312,-4.6305,-4.63,-4.63,-4.63,-4.63,-4.63,-4.63,-4.587,-4.5246,-4.5049,-4.4073,-4.2864,-4.2513,-4.1927,-4.1304,-4.1148,-4.1109,-4.1109,-4.1109,-4.1109,-4.0914,-4.0015,-3.9195,-3.8376,-3.7516,-3.6617,-3.5992,-3.5992,-3.5999,-3.5809,-3.5107,-3.484,-3.4256,-3.2851,-3.2383,-3.1914,-3.1015,-3.0897,-3.0664,-2.9922,-2.9687,-2.9336,-2.8633,-2.8398,-2.8008,-2.7305,-2.6602,-2.6211,-2.6211,-2.6211,-2.6211,-2.6211,-2.621,-2.6206,-2.62,-2.6133,-2.6098,-2.6104,-2.676,-2.7034,-2.7051,-2.7745,-2.7376,-2.0684,-2.0805,-2.1646,-2.2491,-2.2646,-2.2796,0.0,0.0,-2.4264,-2.6022,-2.709,-2.8242,-2.9979,-3.1676,-3.3146,-3.4079,-3.4974,-3.5588,-3.5704,-3.5704,-3.6284,-3.7864,-3.8135,-3.8837,-4.0507,-4.0739,-4.1087,-4.1816,-4.2667,-4.3556,-4.44,-4.522,-4.5757,-4.5905,-4.5964,-4.6003,-4.6091,-4.6158,-4.6228,-4.6281,-4.6288,-4.6289,-4.6289,-4.6289,-4.6289,-4.6287,-4.6318,-4.6313,-4.6312,-4.6305,-4.63,-4.63,-4.63,-4.63,-4.63,-4.63,-4.6222,-4.6027,-4.5285,-4.4854,-4.4463,-4.2903,-4.2318,-4.2123,-4.1343,-4.1109,-4.1109,-4.1109,-4.1109,-4.0914,-4.0015,-3.9195,-3.8376,-3.7516,-3.6617,-3.5992,-3.5992,-3.5999,-3.5966,-3.5853,-3.5231,-3.4648,-3.4453,-3.3164,-3.1914,-3.1016,-3.0898,-3.0859,-3.0781,-3.0078,-2.957,-2.9453,-2.875,-2.8242,-2.8164,-2.8086,-2.8008,-2.8008,-2.8008,-2.8008,-2.8008,-2.8007,-2.7963,-2.791,-2.7893,-2.7894,-2.7815,-2.7909,-2.7912,-2.7864,-2.798,-2.7919,-2.2907,-2.2928,-2.3483,0.0,-2.5142,-2.5526,-2.6916,-2.7183,-2.764,-2.9369,-3.0366,-3.1333,-3.257,-3.3383,-3.4156,0.0,-3.5477,-3.5704,-3.5704,-3.5704,-3.6323,-3.798,-3.8212,-3.8876,-4.0623,-4.0816,-4.0932,-4.1274,-4.255,-4.3479,-4.3827,-4.5104,-4.5848,-4.5935,-4.5973,-4.6052,-4.617,-4.622,-4.6279,-4.6286,-4.6289,-4.6289,-4.6289,-4.6289,-4.6289,-4.6287,-4.6282,-4.6316,-4.6312,-4.6305,-4.63,-4.63,-4.63,-4.63,-4.63,-4.63,-4.63,-4.6261,-4.587,-4.5402,-4.4893,-4.4151,-4.3216,-4.2318,-4.1967,-4.1498,-4.1109,-4.1109,-4.1109,-4.1031,-4.0639,-3.9937,-3.9078,-3.8259,-3.7399,-3.6617,-3.6109,-3.6002,-3.6009,-3.601,-3.5701,-3.5312,-3.4805,-3.3711,-3.2617,-3.1797,-3.1211,-3.0898,-3.0898,-3.0586,-3.0351,-3.0351,-2.957,-2.9062,-2.9062,-2.8594,-2.8281,-2.8281,-2.8281,-2.8281,-2.8281,-2.8319,-2.8273,-2.8217,-2.8191,-2.8184,-2.8103,-2.8574,-2.8775,-2.8784,-2.9287,-2.9524,-2.4457,0.0,0.0,-2.6648,-2.7073,-2.746,-2.8973,-2.9287,-2.9708,-3.1178,-3.214,-3.2914,-3.3576,-3.4084,-3.4626,-3.5245,-3.5549,-3.5704,-3.5704,-3.5704,-3.6323,-3.798,-3.8212,-3.8876,-4.0623,-4.0816,-4.0893,-4.1126,-4.2473,-4.3401,-4.3634,-4.5026,-4.5861,-4.6003,-4.6017,-4.6095,-4.6199,-4.6276,-4.6286,-4.6288,-4.6289,-4.6289,-4.6289,-4.6289,-4.6289,-4.6288,-4.6284,-4.6319,-4.6315,-4.6305,-4.63,-4.63,-4.63,-4.63,-4.63,-4.63,-4.63,-4.63,-4.63,-4.587,-4.5324,-4.5088,-4.3997,-4.2708,-4.2474,-4.1771,-4.1109,-4.1109,-4.1109,-4.1109,-4.1109,-4.0444,-3.9663,-3.9079,-3.8102,-3.7126,-3.6502,-3.616,-3.6011,-3.6012,-3.6015,-3.5781,-3.5156,-3.4336,-3.3476,-3.2656,-3.1797,-3.1172,-3.0937,-3.0898,-3.0898,-3.0898,-3.0351,-2.9961,-2.9961,-2.9375,-2.9023,-2.9023,-2.9023,-2.9023,-2.9023,-2.9022,-2.8973,-2.8906,-2.8873,-2.8854,-2.8803,-2.9356,-2.9644,-2.9669,-3.0327,-3.0598,0.0,0.0,-2.5878,-2.7546,-2.7972,-2.8204,-2.9093,-2.9287,-2.9553,-3.0443,-3.1294,-3.1831,-3.1869,-3.3267,-3.4394,-3.4432,-3.5168,-3.5704,-3.5704,-3.5704,-3.6323,-3.798,-3.8212,-3.8876,0.0,-4.0816,-4.1126,-4.1893,-4.2783,-4.3672,-4.4516,-4.5336,-4.5867,-4.5997,-4.6056,-4.6131,-4.6183,-4.6286,-4.6289,-4.6289,-4.6289,-4.6289,-4.6289,-4.6289,-4.6289,-4.6289,-4.6286,-4.6282,-4.6281,-4.6308,-4.63,-4.63,-4.63,-4.63,-4.63,-4.63,-4.63,-4.63,-4.63,-4.6261,-4.6105,-4.5285,-4.4387,-4.3489,-4.2669,-4.1771,-4.1109,-4.1109,-4.1109,-4.1109,-4.1109,-4.0444,-3.978,-3.978,-3.8492,-3.7283,-3.7251,-3.6593,-3.6011,-3.6014,-3.6015,-3.5976,-3.5976,-3.5234,-3.4375,-3.3476,-3.2695,-3.1875,-3.1016,-3.0898,-3.0898,-3.0898,-3.0898,-3.0859,-3.0859,-3.0859,-3.082,-3.082,-3.082,-3.082,-3.082,-3.0818,-3.0765,-3.0635,-3.0603,-3.0574,-3.0525,-3.0559,-3.0559,-3.0559,-3.0598,-3.0598,-2.5822,0.0,-2.743,-2.8591,-2.9287,-2.994,-3.0752,-3.0946,-3.1217,-3.2063,-3.1599,-3.1328,-3.2449,-3.2222,-3.2416,-3.4123,-3.4665,-3.5245,-3.6323,-3.6516,-3.7135,-3.8876,-3.8566,0.0,0.0,0.0,0.0,-4.1164,-4.2512,-4.3447,-4.3783,-4.5125,-4.5935,-4.6051,-4.6137,-4.6197,-4.6269,-4.6287,-4.6289,-4.6289,-4.6289,-4.6289,-4.6289,-4.6289,-4.6289,-4.6289,-4.6286,-4.6282,-4.6281,-4.6308,-4.63,-4.63,-4.63,-4.63,-4.63,-4.63,-4.63,-4.63,-4.63,-4.63,-4.6261,-4.5948,-4.4894,-4.3647,-4.3333,-4.224,-4.1109,-4.1109,-4.1109,-4.1109,-4.1109,-4.0875,-4.0522,-3.9937,-3.8965,-3.7992,-3.7408,-3.6634,-3.6013,-3.6014,-3.6015,-3.6016,-3.6016,-3.5273,-3.4219,-3.2812,-3.1875,-3.1211,-3.0937,-3.0898,-3.0898,-3.0898,-3.0898,-3.0898,-3.0898,-3.0898,-3.0898,-3.0898,-3.0898,-3.0898,-3.0898,-3.085,-3.0786,-3.0697,-3.0694,-3.0665,-3.0598,-3.0598,-3.0598,-3.0598,-3.0598,-3.0598,-2.7151,-2.8082,-2.8668,-2.9553,-3.0172,-3.0752,-3.1255,-3.1366,-3.1444,-3.1676,-3.0907,-3.0366,-3.1139,-3.0907,-3.1217,-3.3151,-3.4007,-3.4897,-3.6284,-3.6709,-3.7444,-3.8876,-3.8837,-3.9224,0.0,0.0,0.0,-4.0816,-4.2357,-4.3344,-4.3394,-4.5025,-4.5997,-4.6099,-4.6173,-4.6216,-4.6316,-4.6288,-4.6289,-4.6289,-4.6289,-4.6289,-4.6289,-4.6289,-4.6289,-4.6289,-4.6286,-4.6282,-4.6281,-4.6308,-4.63,-4.63,-4.63,-4.63,-4.63,-4.63,-4.63,-4.63,-4.63,-4.63,-4.63,-4.63,-4.5324,-4.4114,-4.3801,-4.2708,-4.1498,-4.1187,-4.1109,-4.1109,-4.1109,-4.1109,-4.0953,-4.0408,-3.9632,-3.8816,-3.796,-3.7066,-3.6366,-3.6054,-3.6015,-3.6016,-3.6016,-3.5273,-3.4219,-3.2851,-3.1914,-3.125,-3.0937,-3.0898,-3.0898,-3.0898,-3.0898,-3.0898,-3.0898,-3.0898,-3.0898,-3.0898,-3.0898,-3.0896,-3.0854,-3.0839,-3.0767,-3.0664,-3.0665,-3.0645,-3.0598,-3.0598,-3.0598,-3.0598,-3.0598,-3.0598,-2.8698,-2.9412,-2.9631,-3.0443,-3.0636,-3.0598,-3.0598,-3.0559,-3.0288,-2.9476,-2.921,-2.89,0.0,0.0,-3.0714,-3.1637,-3.3228,-3.4665,-3.5626,-3.6477,-3.729,0.0,0.0,0.0,0.0,0.0,0.0,-4.0861,0.0,-4.3363,-4.3468,-4.5087,-4.6056,-4.6102,-4.6162,-4.6231,-4.6282,-4.6288,-4.6289,-4.6289,-4.6289,-4.6289,-4.6289,-4.6289,-4.6289,-4.6289,-4.6286,-4.6282,-4.6281,-4.6308,-4.6302,-4.63,-4.63,-4.63,-4.63,-4.63,-4.63,-4.63,-4.63,-4.63,-4.63,-4.63,-4.5714,-4.4855,-4.4036,-4.3138,-4.224,-4.1382,-4.1148,-4.1109,-4.1109,-4.1109,-4.1111,-4.1116,-4.0495,-3.9678,-3.8864,-3.7967,-3.7069,-3.6211,-3.6016,-3.6016,-3.6016,-3.5273,-3.4414,-3.3594,-3.2773,-3.1914,-3.1016,-3.0898,-3.0898,-3.0898,-3.0898,-3.0898,-3.0898,-3.0898,-3.0898,-3.0898,-3.0898,-3.0855,-3.0801,-3.0786,-3.0745,-3.0616,-3.0591,-3.0625,-3.0675,-3.0675,-3.0675,-3.0714,-3.0714,-3.0714,-2.991,-3.0718,-3.1212,-3.1444,-3.1023,-3.0598,-3.0598,-3.0095,-2.9553,-2.9364,-2.7774,-2.6768,0.0,0.0,0.0,-3.1366,-3.272,0.0,-3.6284,-3.7328,0.0,-3.9075,0.0,-3.9849,-4.0739,-4.0816,0.0,0.0,-4.2786,-4.3674,-4.4414,-4.5495,-4.6098,-4.6153,-4.6227,-4.6281,-4.6286,-4.6289,-4.6289,-4.6289,-4.6289,-4.6289,-4.6289,-4.6289,-4.6289,-4.6289,-4.6288,-4.6285,-4.6282,-4.6313,-4.6306,-4.63,-4.63,-4.63,-4.63,-4.63,-4.63,-4.63,-4.63,-4.63,-4.63,-4.63,-4.5714,-4.4971,-4.4738,-4.3606,-4.2357,-4.2123,-4.1615,-4.1109,-4.1109,-4.1112,-4.1116,-4.1117,-4.0499,-3.984,-3.9607,-3.8359,-3.7226,-3.6992,-3.6445,-3.6016,-3.6016,-3.5273,-3.4609,-3.4414,-3.3633,-3.2578,-3.1094,-3.0898,-3.0898,-3.0898,-3.0898,-3.0898,-3.0898,-3.0898,-3.0898,-3.0898,-3.0897,-3.0852,-3.0795,-3.0765,-3.0673,-3.0591,-3.0595,-3.0905,-3.1483,-3.1483,-3.1831,-3.2449,-3.2449,-3.2449,-3.0907,-3.1753,-3.2295,-3.1908,-3.1444,-3.0946,-3.0181,-2.9378,-2.8573,-2.7807,-2.6226,0.0,-2.6188,0.0,0.0,0.0,0.0,0.0,-3.5472,-3.7174,-3.8373,0.0,-3.9617,0.0,-4.0739,-4.1126,-4.1698,0.0,-4.3497,-4.4248,-4.4802,-4.5686,-4.616,-4.6225,-4.6282,-4.6288,-4.6289,-4.6289,-4.6289,-4.6289,-4.6289,-4.6289,-4.6289,-4.6289,-4.6289,-4.6289,0.0,-4.6286,-4.6284,-4.6316,-4.6309,-4.6306,-4.6302,-4.63,-4.63,-4.63,-4.63,-4.63,-4.63,-4.63,-4.63,-4.63,-4.5987,-4.5519,-4.5129,-4.4307,-4.3372,-4.263,-4.2045,-4.1578,-4.119,-4.1116,-4.112,-4.1085,-4.0777,-4.0311,-3.9999,-3.914,-3.8203,-3.7461,-3.6601,-3.6016,-3.6016,-3.5586,-3.5156,-3.4766,-3.4297,-3.3476,-3.2187,-3.168,-3.1328,-3.0937,-3.0898,-3.0898,-3.0898,-3.0898,-3.0898,-3.0898,-3.0897,-3.0848,-3.0778,-3.0701,-3.0678,-3.0582,-3.0939,-3.1347,-3.1792,-3.2179,-3.2604,-3.3107,-3.3107,-3.3107,-3.1908,-3.2681,-3.3068,-3.2179,-3.1792,-3.1221,-2.9657,-2.8512,-2.733,-2.5803,0.0,-2.4003,-2.4108,-2.471,-2.6005,-2.8543,0.0,-3.2106,-3.3968,-3.6439,-3.8057,-3.8174,-3.9727,-4.0816,-4.0816,-4.1545,-4.2401,-4.3358,-4.4215,-4.482,-4.5059,-4.5816,-4.6233,-4.6284,-4.6288,-4.6289,-4.6289,-4.6289,-4.6289,-4.6289,-4.6289,-4.6289,-4.6289,-4.6289,-4.6289,-4.6289,-4.6288,-4.6288,-4.6287,-4.6319,-4.6315,-4.6312,-4.6305,-4.6302,-4.63,-4.63,-4.63,-4.63,-4.63,-4.63,-4.63,-4.63,-4.63,-4.6144,-4.5402,-4.5088,-4.4697,-4.3177,-4.2591,-4.2243,-4.1468,-4.1198,-4.1084,-4.1091,-4.1092,-4.0937,-4.0234,-3.9961,-3.9375,-3.7656,-3.668,-3.6133,-3.6016,-3.6016,-3.5742,-3.5,-3.4883,-3.457,-3.3672,-3.2851,-3.207,-3.1328,-3.1211,-3.1211,-3.1211,-3.1211,-3.1211,-3.1211,-3.1247,-3.1192,-3.1059,-3.1026,-3.0997,-3.0946,-3.1637,-3.2024,-3.214,-3.2914,-3.3339,-3.3455,-3.3455,-3.3455,-3.3731,-3.4046,-3.3963,-3.3107,-3.1831,-3.053,-2.9519,-2.757,0.0,0.0,-2.3811,-2.2421,-2.3101,-2.3348,-2.4251,-2.6819,0.0,0.0,0.0,0.0,-3.74,0.0,0.0,0.0,0.0,0.0,0.0,0.0,0.0,-4.5131,-4.5947,-4.6186,-4.6284,-4.6289,-4.6289,-4.6289,-4.6289,-4.6289,-4.6289,-4.6289,-4.6289,-4.6289,-4.6289,-4.6289,-4.6289,-4.6289,-4.6289,0.0,-4.6287,-4.6286,-4.6282,-4.6312,-4.6311,-4.6306,-4.63,-4.63,-4.63,-4.63,-4.63,-4.63,-4.63,-4.63,-4.63,-4.6261,-4.6105,-4.5558,-4.4932,-4.4619,-4.3494,-4.2367,-4.2212,-4.1633,-4.1091,-4.1092,-4.1132,-4.1133,-4.1016,-4.0391,-3.9375,-3.7656,-3.7187,-3.6836,-3.6133,-3.6016,-3.5937,-3.5781,-3.5781,-3.5469,-3.4609,-3.3711,-3.3125,-3.2969,-3.2969,-3.2969,-3.2969,-3.2968,-3.2968,-3.2968,-3.2955,-3.2925,-3.2836,-3.2788,-3.2714,-3.2681,-3.2798,-3.3223,-3.3968,-3.4084,-3.4543,-3.524,-3.524,-3.524,-3.3615,-3.4389,-3.4775,-3.3416,-3.214,-3.0646,-2.8485,0.0,0.0,0.0,-2.1628,-2.0745,-2.1544,0.0,0.0,0.0,0.0,0.0,0.0,0.0,0.0,0.0,0.0,0.0,0.0,0.0,0.0,0.0,0.0,-4.5248,-4.6167,-4.6279,-4.6288,-4.6289,-4.6289,-4.6289,-4.6289,-4.6289,-4.6289,-4.6289,-4.6289,-4.6289,-4.6289,-4.6289,-4.6289,-4.6289,-4.6289,-4.6289,-4.6289,-4.6288,-4.6286,-4.6282,-4.6318,-4.6316,-4.6312,-4.6308,-4.6306,-4.6306,-4.6302,-4.63,-4.63,-4.63,-4.63,-4.6302,-4.6306,-4.5997,-4.5571,-4.5144,-4.4407,-4.3552,-4.2655,-4.2109,-4.1641,-4.1211,-4.1132,-4.1171,-4.1172,-4.0508,-3.9531,-3.8242,-3.7617,-3.7031,-3.6133,-3.6016,-3.6016,-3.6016,-3.6016,-3.5859,-3.543,-3.5,-3.4414,-3.3516,-3.3398,-3.3398,-3.3398,-3.3398,-3.3395,-3.3389,-3.3371,-3.3332,-3.3255,-3.3219,-3.3158,-3.3107,-3.3532,-3.3963,-3.4394,-3.4858,-3.5284,-3.5704,-3.5704,-3.5704,-3.3262,-3.4389,-3.5046,-3.3494,-3.2179,-3.0495,-2.7492,-2.4663,0.0,0.0,-1.9707,-1.9208,-1.9859,0.0,0.0,0.0,0.0,0.0,0.0,0.0,0.0,0.0,0.0,0.0,0.0,0.0,0.0,0.0,0.0,0.0,-4.6155,-4.6287,-4.6289,-4.6289,-4.6289,-4.6289,-4.6289,-4.6289,-4.6289,-4.6289,-4.6289,-4.6289,-4.6289,-4.6289,-4.6289,-4.6289,-4.6289,-4.6289,-4.6289,-4.6288,-4.6288,-4.6287,-4.6284,-4.6283,-4.6282,-4.6316,-4.6313,-4.6312,-4.6305,-4.6302,-4.6302,-4.6303,-4.6303,-4.6305,-4.6312,-4.6282,-4.6131,-4.5468,-4.5116,-4.4644,-4.3273,-4.2646,-4.2138,-4.1319,-4.1088,-4.1131,-4.1172,-4.0664,-3.9883,-3.8828,-3.8047,-3.7226,-3.6172,-3.6016,-3.6016,-3.6016,-3.6016,-3.6016,-3.6016,-3.6016,-3.5469,-3.4101,-3.3945,-3.3945,-3.3945,-3.3945,-3.3939,-3.3958,-3.3899,-3.3813,-3.3747,-3.3723,-3.3717,-3.3648,-3.4311,-3.4665,-3.4665,-3.5361,-3.5704,-3.5704,-3.5704,-3.5704,-3.3847,-3.4394,-3.4278,-3.3339,-3.1294,-2.9029,-2.7235,0.0,0.0,-2.0757,-1.9253,-1.8124,-1.8237,-1.8895,-1.9783,0.0,0.0,-2.5537,0.0,0.0,0.0,0.0,0.0,0.0,0.0,0.0,0.0,0.0,0.0,0.0,-4.625,-4.6289,-4.6289,-4.6289,-4.6289,-4.6289,-4.6289,-4.6289,-4.6289,-4.6289,-4.6289,-4.6289,-4.6289,-4.6289,-4.6289,-4.6289,-4.6289,-4.6289,0.0,-4.6289,-4.6289,-4.6287,-4.6287,-4.6285,-4.6282,-4.6282,-4.6317,-4.6312,-4.6312,-4.6306,-4.6302,-4.6309,-4.6312,-4.6313,-4.6319,-4.625,-4.6205,-4.6123,-4.5473,-4.4772,-4.4613,-4.3395,-4.2034,-4.1298,-4.1082,-4.1129,-4.1172,-4.1133,-4.0586,-3.8906,-3.8555,-3.7969,-3.6289,-3.6016,-3.6016,-3.6016,-3.6016,-3.6016,-3.6016,-3.6016,-3.5937,-3.5781,-3.5742,-3.5742,-3.5742,-3.5779,-3.5732,-3.5671,-3.5668,-3.5606,-3.5478,-3.5466,-3.5465,-3.5472,-3.5549,-3.5588,-3.5588,-3.5665,-3.5704,-3.5704,-3.5704,-3.5704,-3.2561,-3.3238,-3.3305,-3.1923,-3.0427,-2.8598,-2.5906,0.0,-2.0621,-1.9283,-1.8083,-1.7226,-1.7225,-1.8355,-1.9561,-2.0412,-2.2708,-2.5231,-2.7818,0.0,0.0,0.0,0.0,0.0,0.0,0.0,0.0,0.0,0.0,0.0,-4.5469,-4.6016,-4.6289,-4.6289,-4.6289,-4.6289,-4.6289,-4.6289,-4.6289,-4.6289,-4.6289,-4.6289,-4.6289,-4.6289,-4.6289,-4.6289,-4.6289,-4.6289,0.0,-4.6289,-4.6289,-4.6289,-4.6289,-4.6289,-4.6288,-4.6286,-4.6285,-4.6283,-4.6319,-4.6317,-4.6315,-4.6317,-4.6281,-4.6284,-4.6287,-4.6248,-4.6191,-4.6214,-4.5897,-4.5332,-4.4281,-4.2766,-4.1383,-4.112,-4.1062,-4.1116,-4.1131,-4.1132,-4.0781,-3.9609,-3.8945,-3.8203,-3.6992,-3.6367,-3.6016,-3.6016,-3.6016,-3.6016,-3.6016,-3.6016,-3.6016,-3.6016,-3.6016,-3.6016,-3.6016,-3.6014,-3.5961,-3.5838,-3.5839,-3.5807,-3.5684,-3.5697,-3.572,-3.5704,-3.5704,-3.5704,-3.5704,-3.6207,-3.6439,-3.6439,-3.698,-3.7212,-3.1151,-3.1937,-3.2072,-3.0901,-2.9764,-2.8131,0.0,-2.2321,-2.0012,-1.8351,-1.7108,-1.6406,-1.664,-1.7929,-1.9217,-2.0075,-2.2339,-2.4717,-2.6771,0.0,0.0,0.0,0.0,0.0,0.0,0.0,0.0,0.0,0.0,0.0,-4.4219,-4.5312,-4.6016,-4.6289,-4.6289,-4.6289,-4.6289,-4.6289,-4.6289,-4.6289,-4.6289,-4.6289,-4.6289,-4.6289,-4.6289,-4.6289,-4.6289,-4.6289,0.0,-4.6289,-4.6289,-4.6289,-4.6289,-4.6289,-4.6289,-4.6289,-4.6288,-4.6287,-4.6285,-4.6283,-4.6282,-4.6284,-4.6286,-4.6288,-4.6289,-4.6237,-4.616,-4.617,-4.5901,-4.523,-4.352,-4.2183,-4.1288,-4.1026,-4.102,-4.109,-4.1084,-4.109,-4.0857,-4.0078,-3.9414,-3.8633,-3.75,-3.6797,-3.6289,-3.6055,-3.6016,-3.6016,-3.6015,-3.6015,-3.6015,-3.6015,-3.6015,-3.6015,-3.6016,-3.6014,-3.5958,-3.5816,-3.5781,-3.5788,-3.5715,-3.5704,-3.582,-3.6052,-3.6052,-3.6168,-3.6439,-3.7019,-3.729,-3.729,-3.7903,-3.8322,-2.9935,-3.063,-3.0607,-3.0613,-2.9334,-2.7433,0.0,-2.234,-2.0023,-1.8353,-1.6601,-1.5664,-1.6523,-1.7421,-1.8319,-1.9179,-2.1443,-2.3436,-2.4297,0.0,0.0,0.0,0.0,0.0,0.0,0.0,0.0,0.0,0.0,0.0,-4.2422,-4.4062,-4.5391,-4.6289,-4.6289,-4.6289,-4.6289,-4.6289,-4.6289,-4.6289,-4.6289,-4.6289,-4.6289,-4.6289,-4.6289,-4.6289,-4.6289,-4.6289,0.0,-4.6289,-4.6289,-4.6289,-4.6289,-4.6289,-4.6289,-4.6289,-4.6289,-4.6287,-4.6287,-4.6286,-4.6283,-4.6286,-4.6287,-4.6288,-4.6286,-4.621,-4.6095,-4.6091,-4.5382,-4.4214,-4.2473,-4.2059,-4.189,-4.1092,-4.0937,-4.1011,-4.1101,-4.1081,-4.0855,-4.0078,-3.9883,-3.9336,-3.7617,-3.7305,-3.6992,-3.6133,-3.6016,-3.6015,-3.6014,-3.6014,-3.6013,-3.6011,-3.6011,-3.6013,-3.6016,-3.6014,-3.5958,-3.5816,-3.5781,-3.5788,-3.5715,-3.5704,-3.6052,-3.6864,-3.6903,-3.7328,-3.8174,-3.8174,-3.8174,-3.8174,-3.8212,-3.8626,-2.7684,-2.8466,-2.8756,-2.8207,-2.7221,-2.5887,-2.3938,-2.1503,-1.9368,-1.824,-1.6601,-1.5664,-1.6523,-1.7421,-1.828,-1.9179,-2.1443,0.0,0.0,0.0,0.0,0.0,0.0,0.0,0.0,0.0,0.0,0.0,0.0,0.0,-4.3242,-4.4375,-4.5117,-4.5391,-4.5976,-4.6289,-4.6289,-4.6289,-4.6289,-4.6289,-4.6289,-4.6289,-4.6289,-4.6289,-4.6289,-4.6289,-4.6289,-4.6289,-4.6289,-4.6289,-4.6289,-4.6289,-4.6289,-4.6289,-4.6289,-4.6289,-4.6289,-4.6289,-4.6289,-4.6289,-4.6288,-4.6289,-4.6289,-4.6289,-4.6285,-4.621,-4.6076,-4.5919,-4.4847,-4.3595,-4.3015,-4.2041,-4.1158,-4.0902,-4.0891,-4.0963,-4.1035,-4.1058,-4.1037,-4.0779,-4.0272,-3.9726,-3.918,-3.8594,-3.8086,-3.7812,-3.7265,-3.6874,-3.6874,-3.6364,-3.6012,-3.6011,-3.6011,-3.6012,-3.6015,-3.6011,-3.5953,-3.5816,-3.5781,-3.5788,-3.5715,-3.6245,-3.6632,-3.6903,-3.7477,-3.7936,-3.8182,-3.8762,-3.929,-3.985,-3.985,-3.9959,-2.5448,-2.6274,-2.6565,-2.605,-2.5286,-2.4289,-2.291,-2.0657,-1.867,-1.8124,-1.6875,-1.6172,-1.7031,-1.789,-1.8787,-1.9646,-2.1636,-2.3588,0.0,0.0,0.0,0.0,0.0,0.0,0.0,0.0,0.0,0.0,0.0,0.0,-4.3164,-4.4336,-4.5,-4.5,-4.5859,-4.6289,-4.6289,-4.6289,-4.6289,-4.6289,-4.6289,-4.6289,-4.6289,-4.6289,-4.6289,-4.6289,-4.6289,-4.6289,0.0,-4.6289,-4.6289,-4.6289,-4.6289,-4.6289,-4.6289,-4.6289,-4.6289,-4.6289,-4.6289,-4.6289,-4.6289,-4.6289,-4.6289,-4.6287,-4.6274,-4.6189,-4.6005,-4.5486,-4.4601,-4.3634,-4.2976,-4.2022,-4.1195,-4.0887,-4.0824,-4.0891,-4.0932,-4.1011,-4.1087,-4.1082,-4.0698,-4.0271,-3.996,-3.9453,-3.8984,-3.8632,-3.8123,-3.7809,-3.7809,-3.7337,-3.6867,-3.6514,-3.6474,-3.6359,-3.6011,-3.6008,-3.6108,-3.6292,-3.6297,-3.6421,-3.666,-3.7152,-3.7572,-3.787,-3.84,-3.8807,-3.9136,-3.9625,-4.0107,-4.0595,-4.0595,-4.0581,0.0,-2.4061,-2.4202,-2.4222,-2.3606,-2.2793,-2.1987,-1.9765,0.0,-1.8086,-1.7344,-1.6992,-1.793,-1.8749,-1.9605,-2.0543,-2.21,0.0,0.0,0.0,0.0,0.0,0.0,0.0,0.0,0.0,0.0,0.0,0.0,0.0,-4.2576,-4.4178,-4.5077,-4.5078,-4.5898,-4.6289,-4.6289,-4.6289,-4.6289,-4.6289,-4.6289,-4.6289,-4.6289,-4.6289,-4.6289,0.0,-4.6289,-4.6289,-4.6289,-4.6289,-4.6289,-4.6289,-4.6289,-4.6289,-4.6289,-4.6289,-4.6289,-4.6289,-4.6289,-4.6289,-4.6289,-4.6289,-4.6288,-4.6279,-4.6206,-4.6144,-4.5896,-4.4976,-4.4601,-4.4136,-4.2512,-4.2009,-4.1738,-4.0971,-4.0781,-4.0798,-4.0893,-4.0933,-4.1006,-4.1099,-4.1117,-4.0853,-4.0114,-3.9998,-3.9723,-3.89,-3.8743,-3.8703,-3.8699,-3.8659,-3.8305,-3.7478,-3.7399,-3.705,-3.6237,-3.6121,-3.6422,-3.7159,-3.7205,-3.7522,-3.828,-3.8346,-3.8717,-3.9495,-3.9496,-3.9902,-4.0668,-4.064,-4.0588,-4.0588,-4.0588,-4.0644,-2.0271,0.0,-2.3378,-2.3387,-2.2726,-2.2064,0.0,-1.9335,-1.7383,-1.8711,0.0,-1.7187,-1.871,-1.9177,-1.98,-2.1321,-2.2996,-2.4632,0.0,0.0,0.0,0.0,0.0,0.0,0.0,0.0,0.0,0.0,0.0,-4.3706,-4.4334,-4.5428,-4.5975,-4.5976,-4.6172,-4.6289,-4.6289,-4.6289,-4.6289,-4.6289,-4.6289,-4.6289,-4.6289,-4.6289,-4.6289,-4.6289,-4.6289,-4.6289,-4.6289,-4.6289,-4.6289,-4.6289,-4.6289,-4.6289,-4.6289,-4.6289,-4.6289,-4.6289,-4.6289,-4.6289,-4.6289,-4.6289,-4.6289,-4.6284,-4.6225,-4.6134,-4.6039,-4.5702,-4.4666,-4.3589,-4.3099,-4.2048,-4.1048,-4.0855,-4.0802,-4.0804,-4.0824,-4.0887,-4.0953,-4.1022,-4.1044,-4.1021,-4.0846,-4.081,-4.0732,-4.0541,-3.9991,-3.9598,-3.9597,-3.9006,-3.8534,-3.8337,-3.8298,-3.8223,-3.7995,-3.7367,-3.7043,-3.7175,-3.7759,-3.8117,-3.8223,-3.8878,-3.9289,-3.9412,-3.9995,-4.0405,-4.0636,-4.0561,-4.0508,-4.0508,-4.0508,-4.0877,-1.9089,-2.0897,-2.246,-2.2031,-2.1601,-2.125,-2.1289,-1.9218,0.0,0.0,0.0,-1.8319,-1.9646,-2.023,-2.1048,-2.2765,-2.4128,0.0,0.0,0.0,0.0,0.0,0.0,0.0,0.0,0.0,0.0,0.0,0.0,-4.4518,-4.4954,-4.5814,-4.6284,-4.6288,-4.6288,-4.6288,-4.6289,-4.6289,-4.6289,-4.6289,-4.6289,-4.6289,-4.6289,-4.6289,-4.6289,-4.6289,-4.6289,-4.6289,-4.6289,-4.6289,-4.6289,-4.6289,-4.6289,-4.6289,-4.6289,-4.6289,-4.6289,-4.6289,-4.6289,-4.6289,-4.6289,-4.6289,-4.6289,-4.6286,-4.6277,-4.6206,-4.6024,-4.5497,-4.4688,-4.3794,-4.2918,-4.2048,-4.1274,-4.0893,-4.079,-4.0802,-4.0742,-4.0793,-4.0859,-4.0843,-4.0928,-4.1011,-4.1051,-4.1064,-4.1111,-4.1119,-4.0727,-4.0451,-4.0451,-4.0058,-3.9587,-3.9196,-3.9156,-3.9002,-3.8616,-3.8495,-3.8447,-3.8393,-3.8787,-3.9105,-3.9374,-3.9857,-4.005,-3.9942,-4.0383,-4.06,-4.0546,-4.0523,-4.0516,-4.0516,-4.0893,-4.1354,-1.9011,-2.0848,-2.2061,-2.1204,-2.0972,-2.0933,-2.0816,0.0,0.0,0.0,0.0,0.0,0.0,-2.1517,0.0,0.0,0.0,0.0,0.0,0.0,0.0,0.0,0.0,0.0,0.0,0.0,0.0,0.0,0.0,-4.5054,-4.5178,-4.5883,-4.6316,-4.6282,-4.6282,-4.6286,-4.6289,-4.6289,-4.6289,-4.6289,-4.6289,-4.6289,-4.6289,-4.6289,-4.6289,-4.6289,0.0,0.0,-4.6289,-4.6289,-4.6289,-4.6289,-4.6289,-4.6289,-4.6289,-4.6289,-4.6289,-4.6289,-4.6289,-4.6289,-4.6289,-4.6289,-4.6289,-4.6287,-4.6285,-4.6273,-4.6004,-4.4984,-4.4709,-4.4306,-4.2621,-4.2086,-4.1816,-4.1009,-4.0771,-4.0759,-4.0726,-4.0726,-4.0775,-4.0726,-4.0815,-4.0898,-4.0958,-4.1028,-4.109,-4.1103,-4.1106,-4.1108,-4.1109,-4.1109,-4.0836,-4.0093,-4.0013,-3.9738,-3.9036,-3.9619,-4.0003,-3.9991,-3.9923,-4.0167,-4.0775,-4.0781,-4.0688,-4.06,-4.06,-4.0546,-4.0516,-4.0516,-4.0554,-4.0708,-4.147,-4.1923,-1.9949,-2.2174,-2.3814,-2.2921,-2.2729,-2.2536,-2.1871,0.0,0.0,0.0,0.0,0.0,0.0,-2.2375,0.0,0.0,0.0,0.0,0.0,0.0,0.0,0.0,0.0,0.0,0.0,0.0,0.0,0.0,0.0,-4.5327,-4.6078,-4.6234,-4.6316,-4.6282,-4.6282,-4.6284,-4.6288,-4.6288,-4.6289,-4.6289,-4.6289,-4.6289,-4.6289,-4.6289,-4.6289,-4.6289,0.0,-4.6289,-4.6289,-4.6289,-4.6289,-4.6289,-4.6289,-4.6289,-4.6289,-4.6289,-4.6289,-4.6289,-4.6289,-4.6289,-4.6289,-4.6289,-4.6289,-4.6289,-4.6289,-4.6286,-4.6075,-4.5066,-4.4747,-4.445,-4.3395,-4.255,-4.1816,-4.1009,-4.0752,-4.0726,-4.072,-4.0726,-4.0707,-4.0706,-4.0771,-4.084,-4.0917,-4.096,-4.1039,-4.1076,-4.109,-4.1099,-4.1108,-4.1109,-4.1031,-4.0914,-4.0906,-4.0857,-4.073,-4.0838,-4.0864,-4.0808,-4.0802,-4.077,-4.073,-4.0595,-4.0546,-4.0523,-4.0523,-4.0523,-4.0516,-4.0516,-4.0893,-4.1585,-4.1731,-4.2547,-2.0145,-2.2135,-2.3696,-2.3776,-2.4169,-2.4171,-2.2843,-2.1944,0.0,0.0,0.0,0.0,0.0,0.0,0.0,0.0,0.0,0.0,0.0,0.0,0.0,0.0,0.0,0.0,0.0,0.0,0.0,0.0,0.0,0.0,-4.6267,-4.6306,-4.6308,-4.6312,-4.6312,-4.6317,-4.6285,-4.6285,-4.6287,-4.6289,-4.6289,-4.6289,-4.6289,-4.6289,-4.6289,-4.6289,0.0,-4.6289,-4.6289,-4.6289,-4.6289,-4.6289,-4.6289,-4.6289,-4.6289,-4.6289,-4.6289,-4.6289,-4.6289,-4.6289,-4.6289,-4.6289,-4.6289,-4.6289,-4.6289,-4.6288,-4.6198,-4.5635,-4.5134,-4.4414,-4.2963,-4.2285,-4.1783,-4.0919,-4.0668,-4.0647,-4.0665,-4.0658,-4.0658,-4.0581,-4.0642,-4.0712,-4.0793,-4.1262,-4.1684,-4.1749,-4.2164,-4.2457,-4.2513,-4.2515,-4.2319,-4.1849,-4.1798,-4.1583,-4.1092,-4.099,-4.097,-4.0949,-4.0917,-4.0835,-4.0713,-4.0583,-4.0516,-4.0516,-4.0516,-4.0516,-4.0516,-4.0969,-4.1393,-4.1808,-4.2739,-4.3547,-2.0378,-2.1823,-2.3072,-2.4124,0.0,-2.5336,-2.4009,-2.3696,-2.3696,0.0,0.0,0.0,0.0,0.0,0.0,0.0,0.0,0.0,0.0,-3.8453,-3.9897,-4.0093,-4.0678,0.0,0.0,0.0,0.0,0.0,0.0,0.0,-4.63,-4.63,-4.63,-4.63,-4.63,-4.6308,-4.6282,-4.6282,-4.6286,-4.6289,-4.6289,-4.6289,-4.6289,-4.6289,-4.6289,-4.6289,-4.6289,-4.6289,-4.6289,-4.6289,-4.6289,-4.6289,-4.6289,-4.6289,-4.6289,-4.6289,-4.6289,-4.6289,-4.6289,-4.6289,-4.6289,-4.6289,-4.6289,-4.6289,-4.6289,-4.6288,-4.6279,-4.6155,-4.5634,-4.4733,-4.3041,-4.2613,-4.2367,-4.1444,-4.1198,-4.1183,-4.1193,-4.1177,-4.1162,-4.1131,-4.1147,-4.1212,-4.128,-4.1933,-4.2466,-4.2556,-4.314,-4.3602,-4.3667,-4.3671,-4.3435,-4.2733,-4.2671,-4.2289,-4.1346,-4.0991,-4.0839,-4.0859,-4.0804,-4.0769,-4.0674,-4.0569,-4.0516,-4.0516,-4.0516,-4.0593,-4.0823,-4.147,-4.2,-4.2431,-4.3701,-4.4393,-2.1119,-2.19,-2.2368,-2.4007,-2.5062,-2.5687,-2.5531,-2.5492,0.0,-2.5492,0.0,0.0,0.0,0.0,0.0,0.0,0.0,0.0,0.0,0.0,-4.0093,-4.0914,-4.107,0.0,0.0,0.0,0.0,0.0,0.0,0.0,-4.6261,-4.63,-4.63,-4.63,-4.63,-4.6308,-4.6282,-4.6282,-4.6286,-4.6289,-4.6289,-4.6289,-4.6289,-4.6289,-4.6289,-4.6289,-4.6289,-4.6289,-4.6289,-4.6289,-4.6289,-4.6289,-4.6289,-4.6289,-4.6289,-4.6289,-4.6289,-4.6289,-4.6289,-4.6289,-4.6289,-4.6289,-4.6289,-4.6289,-4.6289,-4.6289,-4.6284,-4.6216,-4.6098,-4.5749,-4.4705,-4.4373,-4.4105,-4.3211,-4.2988,-4.2927,-4.2919,-4.2925,-4.2931,-4.2893,-4.2934,-4.2934,-4.3011,-4.3111,-4.3251,-4.3301,-4.3436,-4.3526,-4.3604,-4.3608,-4.3569,-4.353,-4.3456,-4.3048,-4.2089,-4.1219,-4.07,-4.0707,-4.0726,-4.0675,-4.0602,-4.0561,-4.0516,-4.0516,-4.0516,-4.0893,-4.17,-4.1769,-4.2585,-4.4124,-4.4239,-4.4739,-2.069,-2.147,-2.2173,-2.3305,-2.4633,0.0,0.0,-2.6937,-2.7483,-2.7992,-2.8537,0.0,0.0,0.0,0.0,0.0,0.0,0.0,0.0,0.0,0.0,0.0,0.0,0.0,0.0,0.0,0.0,0.0,0.0,-4.4348,-4.466,-4.466,-4.466,-4.466,-4.5207,-4.5488,-4.5501,-4.6048,-4.6286,-4.6289,-4.6289,-4.6289,-4.6289,-4.6289,-4.6289,-4.6289,-4.6289,-4.6289,-4.6289,-4.6289,-4.6289,-4.6289,-4.6289,-4.6289,-4.6289,-4.6289,-4.6289,-4.6289,-4.6289,-4.6289,-4.6289,-4.6289,-4.6289,-4.6289,-4.6289,-4.6288,-4.6282,-4.6223,-4.6139,-4.5853,-4.4852,-4.4555,-4.4252,-4.335,-4.3118,-4.311,-4.311,-4.3094,-4.3085,-4.3085,-4.3102,-4.3118,-4.3126,-4.3597,-4.4,-4.4085,-4.4616,-4.4981,-4.5035,-4.5045,-4.4807,-4.4296,-4.3673,-4.3156,-4.2795,-4.1914,-4.14,-4.1378,-4.0903,-4.0647,-4.0591,-4.0546,-4.0516,-4.0516,-4.1046,-4.147,-4.1808,-4.2854,-4.3662,-4.4316,-4.4855,-4.5287,-2.0378,-2.0847,-2.1392,-2.276,0.0,0.0,-2.7094,-2.8264,-2.9357,-3.0217,-3.1036,-3.1815,-3.2402,0.0,0.0,0.0,0.0,0.0,0.0,0.0,0.0,0.0,0.0,0.0,0.0,0.0,0.0,0.0,-4.2942,-4.3411,-4.3686,-4.3686,-4.384,-4.4114,-4.4699,-4.5137,-4.5423,-4.6009,-4.6286,-4.6289,-4.6289,-4.6289,-4.6289,-4.6289,-4.6289,-4.6289,-4.6289,-4.6289,-4.6289,-4.6289,-4.6289,-4.6289,-4.6289,-4.6289,-4.6289,-4.6289,-4.6289,-4.6289,-4.6289,-4.6289,-4.6289,-4.6289,-4.6289,-4.6289,-4.6289,-4.6286,-4.628,-4.623,-4.6189,-4.5948,-4.5221,-4.4944,-4.4754,-4.4042,-4.3893,-4.3893,-4.3893,-4.3893,-4.3893,-4.3893,-4.3893,-4.3893,-4.3893,-4.4383,-4.4839,-4.4868,-4.544,-4.588,-4.5858,-4.5863,-4.5625,-4.5025,-4.4157,-4.3564,-4.3582,-4.2741,-4.22,-4.22,-4.1678,-4.1161,-4.0592,-4.0531,-4.0631,-4.0893,-4.1508,-4.2038,-4.2585,-4.3739,-4.4432,-4.4701,-4.5325,-4.5594,-2.0378,-1.9988,-1.9948,0.0,0.0,0.0,-2.7716,-2.959,-3.1075,-3.1934,-3.2831,-3.3416,-3.3416,-3.412,0.0,-3.4705,-3.6893,-3.8611,0.0,0.0,0.0,0.0,0.0,0.0,0.0,0.0,0.0,0.0,-4.2396,-4.2747,-4.3647,-4.3686,-4.4075,-4.4932,-4.4971,-4.541,-4.6282,-4.6282,-4.6286,-4.6289,-4.6289,-4.6289,-4.6289,-4.6289,-4.6289,-4.6289,-4.6289,-4.6289,-4.6289,-4.6289,-4.6289,-4.6289,-4.6289,-4.6289,-4.6289,-4.6289,-4.6289,-4.6289,-4.6289,-4.6289,-4.6289,-4.6288,-4.6287,-4.6287,-4.6284,-4.6282,-4.6281,-4.6315,-4.6247,-4.6144,-4.5959,-4.5848,-4.5758,-4.5629,-4.5594,-4.5594,-4.5594,-4.5594,-4.5594,-4.5594,-4.5594,-4.5594,-4.5594,-4.5667,-4.5717,-4.5719,-4.5758,-4.5803,-4.58,-4.58,-4.5786,-4.5788,-4.4978,-4.4392,-4.4391,-4.361,-4.3124,-4.3124,-4.3085,-4.2316,-4.0593,-4.0516,-4.0931,-4.1808,-4.1808,-4.2624,-4.4316,-4.4316,-4.4739,-4.5594,-4.5594,-4.5594,-2.1037,-2.1274,0.0,-2.4282,0.0,0.0,0.0,-3.0919,0.0,0.0,-3.4549,-3.4315,-3.4315,-3.4549,0.0,-3.4705,-3.6893,-3.8611,0.0,0.0,0.0,0.0,0.0,0.0,0.0,0.0,0.0,0.0,-4.1498,-4.1615,-4.1851,-4.2435,-4.2903,-4.3177,-4.4346,-4.5137,-4.5384,-4.6009,-4.6286,-4.6289,-4.6289,-4.6289,-4.6289,-4.6289,-4.6289,-4.6289,-4.6289,-4.6289,-4.6289,-4.6289,-4.6289,-4.6289,-4.6289,-4.6289,-4.6289,-4.6289,-4.6289,-4.6289,-4.6289,-4.6289,-4.6288,-4.6288,-4.6286,-4.6284,-4.6283,-4.6319,-4.6315,-4.6313,-4.6247,-4.6151,-4.6,-4.5931,-4.5821,-4.5646,-4.5594,-4.5594,-4.5594,-4.5594,-4.5594,-4.5594,-4.5594,-4.5594,-4.5594,-4.5603,-4.562,-4.5629,-4.5646,-4.5662,-4.5671,-4.5671,-4.5671,-4.5654,-4.5406,-4.5244,-4.5227,-4.444,-4.3932,-4.3932,-4.3393,-4.2854,-4.2354,-4.2316,-4.2431,-4.2701,-4.3278,-4.3816,-4.4316,-4.494,-4.5364,-4.5594,-4.5594,-4.5594,-2.1345,-2.2091,0.0,-2.5141,-2.6899,-2.8773,-3.1699,0.0,0.0,0.0,0.0,-3.5213,-3.5213,-3.5213,0.0,-3.5213,-3.7127,-3.8611,-3.8611,0.0,0.0,0.0,0.0,0.0,0.0,0.0,0.0,-4.1097,-4.1097,-4.1097,-4.1097,-4.1608,-4.2197,-4.2903,-4.3957,-4.4824,-4.5501,-4.6048,-4.6286,-4.6289,-4.6289,-4.6289,-4.6289,-4.6289,-4.6289,-4.6289,-4.6289,-4.6289,-4.6289,-4.6289,-4.6289,-4.6289,-4.6289,-4.6289,-4.6289,-4.6289,-4.6289,-4.6289,-4.6288,-4.6287,-4.6286,-4.6284,-4.6282,-4.6318,-4.6316,-4.6312,-4.6308,-4.6308,-4.6247,-4.6164,-4.6076,-4.5993,-4.5899,-4.5673,-4.5637,-4.5612,-4.5594,-4.5594,-4.5594,-4.5594,-4.5594,-4.5594,-4.5594,-4.5594,-4.5594,-4.5594,-4.5594,-4.5594,-4.5594,-4.5594,-4.5594,-4.5594,-4.5594,-4.5594,-4.5594,-4.5133,-4.4816,-4.4816,-4.4355,-4.4085,-4.4085,-4.3431,-4.3239,-4.3585,-4.4047,-4.447,-4.4816,-4.5325,-4.5594,-4.5594,-4.5594,-4.5594,-2.1413,0.0,0.0,-2.5491,-2.7952,0.0,-3.3964,-3.4744,-3.5057,-3.5836,0.0,-3.5992,-3.5992,-3.5992,-3.5992,-3.5992,-3.7477,-3.8611,-3.8611,0.0,0.0,0.0,0.0,0.0,0.0,0.0,0.0,-4.1072,-4.1072,-4.1072,-4.1072,-4.1163,-4.1995,-4.3645,-4.3762,-4.4629,-4.6281,-4.6281,-4.6286,-4.6289,-4.6289,-4.6289,-4.6289,-4.6289,-4.6289,-4.6289,-4.6289,-4.6289,-4.6289,-4.6289,-4.6289,-4.6289,-4.6289,-4.6289,-4.6289,-4.6288,-4.6287,-4.6287,-4.6284,-4.6282,-4.6281,-4.6315,-4.6312,-4.6311,-4.6303,-4.63,-4.63,-4.63,-4.6247,-4.6184,-4.6115,-4.6044,-4.5964,-4.5764,-4.5711,-4.5693,-4.5603,-4.5594,-4.5594,-4.5594,-4.5594,-4.5594,-4.5594,-4.5594,-4.5594,-4.5594,-4.5594,-4.5594,-4.5594,-4.5594,-4.5594,-4.5594,-4.5594,-4.5594,-4.5594,-4.5594,-4.5594,-4.5594,-4.5594,-4.5594,-4.5594,-4.4124,-4.3662,-4.4393,-4.4432,-4.4816,-4.5594,-4.5594,-4.5594,-4.5594,-4.5594,-4.5594,0.0,-2.3476,0.0,0.0,-3.0173,-3.2949,-3.4393,-3.5213,-3.5758,-3.5953,-3.5992,-3.5992,-3.5992,-3.5992,-3.5992,-3.5992,-3.7477,-3.8611,-3.8611,-4.0055,0.0,0.0,0.0,0.0,0.0,0.0,0.0,-4.1042,-4.1003,-4.1003,-4.1003,-4.1732,-4.2613,-4.3684,-4.4348,-4.5212,-4.6276,-4.6315,-4.6281,-4.6288,-4.6288,-4.6289,-4.6289,-4.6289,-4.6289,-4.6289,-4.6289,-4.6289,-4.6289,-4.6289,-4.6289,-4.6289,-4.6289,-4.6289,-4.6288,-4.6288,-4.6286,-4.6284,-4.6283,-4.6318,-4.6315,-4.6313,-4.6308,-4.6303,-4.6302,-4.63,-4.63,-4.63,-4.6292,-4.6277,-4.6184,-4.6126,-4.6032,-4.5899,-4.5771,-4.5687,-4.5612,-4.5594,-4.5594,-4.5594,-4.5594,-4.5594,-4.5594,-4.5594,-4.5594,-4.5594,-4.5594,-4.5594,-4.5594,-4.5594,-4.5594,-4.5594,-4.5594,-4.5594,-4.5594,-4.5594,-4.5594,-4.5594,-4.5594,-4.5594,-4.5594,-4.5248,-4.5133,-4.5325,-4.5325,-4.5402,-4.5594,-4.5594,-4.5594,-4.5594,-4.5594,-4.5594,0.0,0.0,0.0,0.0,0.0,0.0,0.0,0.0,0.0,0.0,-3.5992,0.0,0.0,0.0,0.0,0.0,0.0,0.0,0.0,0.0,0.0,0.0,0.0,0.0,0.0,0.0,0.0,-4.0941,-4.0949,-4.0956,-4.0967,-4.1476,-4.2371,-4.3645,-4.4153,-4.5016,-4.6273,-4.6312,-4.6319,-4.6287,-4.6287,-4.6288,-4.6289,-4.6289,-4.6289,-4.6289,-4.6289,-4.6289,-4.6289,-4.6289,-4.6289,-4.6289,-4.6289,-4.6288,-4.6287,-4.6284,-4.6281,-4.6317,-4.6313,-4.6311,-4.6306,-4.6306,-4.6305,-4.63,-4.63,-4.63,-4.63,-4.63,-4.6296,-4.6292,-4.6247,-4.6203,-4.6126,-4.5942,-4.5802,-4.5727,-4.562,-4.5594,-4.5594,-4.5594,-4.5594,-4.5594,-4.5594,-4.5594,-4.5594,-4.5594,-4.5594,-4.5594,-4.5594,-4.5594,-4.5594,-4.5594,-4.5594,-4.5594,-4.5594,-4.5594,-4.5594,-4.5594,-4.5594,-4.5594,-4.5594,-4.5594,-4.5594,-4.5594,-4.5594,-4.5594,-4.5594,-4.5594,-4.5594,-4.5594,-4.5594,-4.5594,0.0,0.0,0.0,0.0,0.0,0.0,0.0,0.0,0.0,0.0,0.0,0.0,0.0,0.0,0.0,0.0,0.0,0.0,0.0,0.0,0.0,0.0,0.0,0.0,0.0,0.0,0.0,-4.0888,-4.0873,-4.0861,-4.0882,-4.1023,-4.1815,-4.3411,-4.3606,-4.447,-4.6077,-4.6233,-4.6317,-4.6286,-4.6286,-4.6288,-4.6289,-4.6289,-4.6289,-4.6289,-4.6289,-4.6289,-4.6289,-4.6289,-4.6289,-4.6289,-4.6288,-4.6287,-4.6285,-4.6316,-4.6312,-4.6309,-4.6303,-4.63,-4.63,-4.63,-4.63,-4.63,-4.63,-4.63,-4.63,-4.63,-4.63,-4.6339,-4.6495,-4.6462,-4.6399,-4.6387,-4.6293,-4.6128,-4.5706,-4.5594,-4.5594,-4.5594,-4.5594,-4.5594,-4.5594,-4.5594,-4.5594,-4.5594,-4.5594,-4.5594,-4.5594,-4.5594,-4.5594,-4.5594,-4.5594,-4.5594,-4.5594,-4.5594,-4.5594,-4.5594,-4.5787,-4.5902,-4.5902,-4.5864,-4.5825,-4.5825,-4.5671,-4.5594,-4.5594,-4.5594,-4.5594,-4.5594,-4.5594,-4.5594,0.0,0.0,0.0,0.0,0.0,0.0,0.0,0.0,0.0,0.0,0.0,0.0,0.0,0.0,0.0,0.0,0.0,0.0,0.0,0.0,0.0,0.0,0.0,0.0,0.0,0.0,0.0,0.0,-4.0776,-4.0829,-4.0795,-4.0956,-4.149,-4.255,-4.3294,-4.4154,-4.5169,-4.5911,-4.6306,-4.6315,-4.6281,-4.6284,-4.6284,-4.6284,-4.6287,-4.6289,-4.6289,-4.6289,-4.6289,-4.6289,-4.6289,-4.6288,-4.6287,-4.6284,-4.6315,-4.6313,-4.6308,-4.6302,-4.6302,-4.63,-4.63,-4.63,-4.63,-4.63,-4.63,-4.63,-4.63,-4.63,-4.63,-4.6456,-4.7237,-4.7365,-4.7473,-4.8072,-4.82,-4.7661,-4.5962,-4.5594,-4.5594,-4.5594,-4.5594,-4.5594,-4.5594,-4.5594,-4.5594,-4.5594,-4.5594,-4.5594,-4.5594,-4.5594,-4.5594,-4.5594,-4.5594,-4.5594,-4.5594,-4.5594,-4.5594,-4.5594,-4.6518,-4.7057,-4.7057,-4.6855,-4.674,-4.674,-4.597,-4.5594,-4.5594,-4.5594,-4.5594,-4.5594,-4.5594,-4.5594,-2.238,-2.5434,0.0,0.0,0.0,0.0,0.0,0.0,0.0,0.0,0.0,0.0,0.0,0.0,0.0,0.0,0.0,0.0,0.0,0.0,0.0,0.0,0.0,0.0,0.0,0.0,0.0,0.0,-4.0757,-4.0793,-4.0786,-4.0914,-4.141,-4.2355,-4.2786,-4.3606,-4.4971,-4.5363,-4.5836,-4.6312,-4.6319,-4.6282,-4.6282,-4.6282,-4.6284,-4.6287,-4.6287,-4.6287,-4.6287,-4.6287,-4.6286,-4.6284,-4.6282,-4.6317,-4.6312,-4.6308,-4.6303,-4.63,-4.63,-4.63,-4.63,-4.63,-4.63,-4.63,-4.63,-4.63,-4.63,-4.63,-4.6651,-4.712,-4.7508,-4.7918,-4.8233,-4.8171,-4.8093,-4.7966,-4.764,-4.7293,-4.69,-4.6441,-4.5932,-4.5594,-4.5594,-4.5594,-4.5594,-4.5594,-4.5594,-4.5594,-4.5594,-4.5594,-4.5594,-4.5594,-4.5594,-4.5594,-4.5594,-4.5594,-4.6441,-4.8326,-4.8942,-4.8903,-4.8288,-4.7817,-4.7586,-4.7586,-4.6278,-4.5594,-4.5594,-4.5594,-4.5594,-4.5594,-4.5594,-4.5594,-2.2613,-2.5024,-2.6977,0.0,0.0,0.0,0.0,0.0,0.0,0.0,0.0,0.0,0.0,0.0,0.0,0.0,0.0,0.0,0.0,0.0,0.0,0.0,0.0,0.0,0.0,0.0,0.0,0.0,-4.0707,-4.0771,-4.0786,-4.0914,-4.1332,-4.2043,-4.2279,-4.3021,-4.4346,-4.4543,-4.5015,-4.5646,-4.5651,-4.5653,-4.5653,-4.5653,-4.577,-4.5966,-4.6203,-4.6282,-4.6282,-4.6282,-4.6281,-4.6319,-4.6315,-4.6311,-4.6309,-4.6303,-4.63,-4.63,-4.63,-4.63,-4.63,-4.63,-4.63,-4.63,-4.63,-4.63,-4.63,-4.63,-4.6924,-4.7664,-4.7859,-4.8511,-4.907,-4.8791,-4.8651,-4.8681,-4.9015,-4.8582,-4.7939,-4.7134,-4.6471,-4.5941,-4.5633,-4.5594,-4.5594,-4.5594,-4.5594,-4.5594,-4.5594,-4.6364,-4.6903,-4.6903,-4.6903,-4.6903,-4.6903,-4.6903,-4.798,-5.0558,-5.0712,-5.0327,-4.9481,-4.8779,-4.8432,-4.8432,-4.6971,-4.6124,-4.5932,-4.571,-4.571,-4.5932,-4.5932,-4.6047,-2.2341,-2.4134,0.0,0.0,0.0,0.0,0.0,0.0,0.0,0.0,0.0,0.0,0.0,0.0,0.0,0.0,0.0,0.0,0.0,0.0,0.0,0.0,0.0,0.0,0.0,0.0,0.0,0.0,-4.0622,-4.0715,-4.0786,-4.0914,-4.1061,-4.1147,-4.1967,-4.2435,-4.2513,-4.3333,-4.3803,-4.3842,-4.3842,-4.3842,-4.3842,-4.3842,-4.4271,-4.5091,-4.5926,-4.6282,-4.6282,-4.6282,-4.6318,-4.6313,-4.6312,-4.6308,-4.6302,-4.63,-4.63,-4.63,-4.63,-4.63,-4.63,-4.63,-4.63,-4.63,-4.63,-4.63,-4.63,-4.63,-4.6924,-4.7781,-4.8525,-4.9376,-5.0221,-5.1024,-5.1117,-5.0664,-4.932,-4.8519,-4.7932,-4.7403,-4.7249,-4.6864,-4.5787,-4.5594,-4.5594,-4.5594,-4.5594,-4.5594,-4.5594,-4.8442,-5.0442,-5.0442,-5.0442,-5.0442,-5.0442,-5.0442,-5.0519,-5.0712,-5.0712,-5.0673,-5.0596,-4.9779,-4.9317,-4.9317,-4.8432,-4.7586,-4.6808,-4.6009,-4.6009,-4.6808,-4.6808,-4.724,-2.0472,-2.1927,0.0,0.0,0.0,0.0,0.0,0.0,0.0,0.0,0.0,0.0,0.0,0.0,0.0,0.0,0.0,0.0,0.0,0.0,0.0,0.0,0.0,0.0,0.0,0.0,0.0,0.0,0.0,-4.0809,-4.087,-4.0977,-4.1072,-4.1108,-4.1382,-4.181,-4.2396,-4.3255,-4.3686,-4.3686,-4.3686,-4.3686,-4.3686,-4.3686,-4.4192,-4.5012,-4.533,-4.5763,-4.6309,-4.6309,-4.6308,-4.6305,-4.6305,-4.6303,-4.63,-4.63,-4.63,-4.63,-4.63,-4.63,-4.63,-4.63,-4.63,-4.63,-4.63,-4.63,-4.63,-4.63,-4.7315,-4.8447,-4.872,-4.985,-5.1011,-5.1255,-5.1176,-5.0875,-5.0317,-4.9409,-4.8625,-4.8442,-4.721,-4.6095,-4.5671,-4.7403,-4.8865,-4.8865,-4.8865,-4.8865,-4.8865,-4.9942,-5.0712,-5.0712,-5.0712,-5.0712,-5.0712,-5.0712,-5.0712,-5.0712,-5.0712,-5.0712,-5.0712,-5.0404,-5.025,-5.025,-4.9394,-4.8509,-4.7663,-4.6855,-4.6855,-4.7663,-4.7154,-4.7317,-1.9109,0.0,0.0,0.0,0.0,0.0,0.0,0.0,0.0,0.0,0.0,0.0,0.0,0.0,0.0,0.0,0.0,0.0,0.0,0.0,0.0,0.0,0.0,0.0,0.0,0.0,0.0,0.0,0.0,0.0,-4.0914,-4.1042,-4.1118,-4.1108,-4.1109,-4.1382,-4.1967,-4.2552,-4.2827,-4.2827,-4.2827,-4.2827,-4.2827,-4.2827,-4.345,-4.4543,-4.4543,-4.5207,-4.63,-4.63,-4.63,-4.63,-4.63,-4.63,-4.63,-4.63,-4.63,-4.63,-4.63,-4.63,-4.63,-4.63,-4.63,-4.63,-4.63,-4.6495,-4.6729,-4.6729,-4.7939,-4.9228,-4.9228,-5.0321,-5.1367,-5.132,-5.1167,-5.0972,-5.0952,-5.0203,-4.9558,-4.9558,-4.8365,-4.7326,-4.7326,-4.9211,-5.0712,-5.0712,-5.0712,-5.0712,-5.0712,-5.0712,-5.0712,-5.0712,-5.0712,-5.0712,-5.0712,-5.0712,-5.0712,-5.0712,-5.0712,-5.0712,-5.0712,-5.0712,-5.0712,-5.0712,-5.0125,-4.9548,-4.8971,-4.7855,-4.774,-4.8509,-4.8009,-4.8163,0.0,0.0,0.0,0.0,0.0,0.0,0.0,0.0,0.0,0.0,0.0,0.0,0.0,0.0,0.0,0.0,0.0,0.0,0.0,0.0,0.0,0.0,0.0,0.0,0.0,0.0,0.0,0.0,-4.0809,-4.0913,-4.099,-4.1061,-4.1087,-4.1108,-4.1109,-4.1109,-4.1109,-4.1109,-4.1109,-4.1109,-4.1109,-4.1109,-4.1109,-4.1109,-4.2046,-4.3686,-4.3686,-4.4699,-4.63,-4.63,-4.63,-4.63,-4.63,-4.63,-4.63,-4.6339,-4.6339,-4.6339,-4.6378,-4.6378,-4.6378,-4.6339,-4.6339,-4.6339,-4.63,-4.6924,-4.7586,-4.7586,-4.8796,-5.0124,-5.0124,-5.0789,-5.1364,-5.1339,-5.1256,-5.1157,-5.103,-5.0855,-5.0712,-5.0712,-5.0712,-5.0712,-5.0712,-5.0712,-5.0712,-5.0712,-5.0712,-5.0712,-5.0712,-5.0712,-5.0712,-5.0712,-5.0712,-5.0712,-5.0712,-5.0712,-5.0712,-5.0712,-5.0712,-5.0712,-5.0712,-5.0712,-5.0712,-5.0712,-5.0712,-5.0712,-5.0712,-4.8971,-4.8586,-4.9433,-4.9433,-4.9894,-1.8612,0.0,0.0,0.0,0.0,0.0,0.0,0.0,0.0,0.0,0.0,0.0,0.0,0.0,0.0,0.0,0.0,0.0,0.0,0.0,0.0,0.0,0.0,0.0,0.0,0.0,0.0,0.0,-4.0903,-4.0995,-4.1061,-4.109,-4.1103,-4.1109,-4.1109,-4.1109,-4.1109,-4.1109,-4.1109,-4.1109,-4.1109,-4.1109,-4.1109,-4.1109,-4.2046,-4.3686,-4.3686,-4.4699,-4.63,-4.63,-4.63,-4.63,-4.63,-4.63,-4.6378,-4.7002,-4.7237,-4.7315,-4.79,-4.8096,-4.8017,-4.7432,-4.7237,-4.712,-4.6495,-4.6924,-4.7586,-4.7586,-4.8796,-5.0241,-5.0867,-5.1219,-5.1367,-5.132,-5.1234,-5.1172,-5.1152,-5.0913,-5.0712,-5.0712,-5.0712,-5.0712,-5.0712,-5.0712,-5.0712,-5.0712,-5.0712,-5.0712,-5.0712,-5.0712,-5.0712,-5.0712,-5.0712,-5.0712,-5.0712,-5.0712,-5.0712,-5.0712,-5.0712,-5.0712,-5.0712,-5.0712,-5.0712,-5.0712,-5.0712,-5.0712,-5.0712,-4.9586,-4.9471,-5.0327,-5.0327,-5.0481,-1.8654,-1.8918,0.0,0.0,0.0,0.0,0.0,-2.3904,0.0,0.0,0.0,0.0,0.0,0.0,0.0,0.0,0.0,0.0,0.0,0.0,0.0,0.0,0.0,0.0,0.0,-4.066,-4.0878,-4.0824,-4.0913,-4.1033,-4.1087,-4.1103,-4.1109,-4.1109,-4.1109,-4.1109,-4.1109,-4.1109,-4.1109,-4.1109,-4.1109,-4.1109,-4.1109,-4.1109,-4.2046,-4.3686,-4.3686,-4.4699,-4.63,-4.63,-4.63,-4.63,-4.63,-4.63,-4.6417,-4.7276,-4.7586,-4.7703,-4.8525,-4.8798,-4.872,-4.8252,-4.8096,-4.8017,-4.751,-4.7939,-4.864,-4.864,-4.9616,-5.075,-5.1258,-5.1414,-5.1367,-5.133,-5.1275,-5.1281,-5.1192,-5.0937,-5.0712,-5.0712,-5.0712,-5.0712,-5.0712,-5.0712,-5.0712,-5.0712,-5.0712,-5.0712,-5.0712,-5.0712,-5.0712,-5.0712,-5.0712,-5.0712,-5.0712,-5.0712,-5.0712,-5.0712,-5.0712,-5.0712,-5.0712,-5.0712,-5.0712,-5.0712,-5.0712,-5.0712,-5.0712,-5.0202,-5.0202,-5.0712,-5.0712,-5.0712,-1.9118,-1.9304,-1.9453,-2.0098,-2.0843,0.0,-2.1358,-2.3231,0.0,0.0,0.0,0.0,0.0,0.0,0.0,0.0,0.0,0.0,0.0,0.0,0.0,0.0,0.0,0.0,-3.9353,-4.0121,-4.0626,-4.0665,-4.0875,-4.1022,-4.1106,-4.1108,-4.1109,-4.1109,-4.1109,-4.1109,-4.1109,-4.1109,-4.1109,-4.1109,-4.1109,-4.1109,-4.1109,-4.1109,-4.2046,-4.3686,-4.3686,-4.4699,-4.63,-4.63,-4.63,-4.63,-4.63,-4.63,-4.6417,-4.7393,-4.7742,-4.7859,-4.8759,-4.9072,-4.9072,-4.8993,-4.8954,-4.8915,-4.8837,-4.9423,-5.0124,-5.0202,-5.0789,-5.1414,-5.1414,-5.1414,-5.1369,-5.1336,-5.1355,-5.1344,-5.1181,-5.0905,-5.0712,-5.0712,-5.0712,-5.0712,-5.0712,-5.0712,-5.0712,-5.0712,-5.0712,-5.0712,-5.0712,-5.0712,-5.0712,-5.0712,-5.0712,-5.0712,-5.0712,-5.0712,-5.0712,-5.0712,-5.0712,-5.0712,-5.0712,-5.0712,-5.0712,-5.0712,-5.0712,-5.0712,-5.0712,-5.0712,-5.0712,-5.0712,-5.0712,-5.0712,-2.1943,-2.1967,-2.1809,-2.1292,-2.1254,0.0,-2.0532,-2.1297,-2.2392,0.0,0.0,0.0,0.0,0.0,0.0,0.0,0.0,0.0,0.0,0.0,0.0,0.0,0.0,0.0,-3.8452,-3.8675,-3.9063,-3.9723,-4.0574,-4.1076,-4.1095,-4.1104,-4.1109,-4.1109,-4.1109,-4.1109,-4.1109,-4.1109,-4.1109,-4.1109,-4.1109,-4.1109,-4.1109,-4.1109,-4.2046,-4.3686,-4.3686,-4.4699,-4.63,-4.63,-4.63,-4.63,-4.63,-4.63,-4.6495,-4.8017,-4.8564,-4.8798,-5.036,-5.0906,-5.0789,-5.0085,-4.985,-4.9733,-4.8993,-4.9423,-5.0241,-5.0945,-5.1258,-5.1414,-5.1414,-5.1414,-5.1412,-5.1367,-5.1371,-5.1281,-5.089,-5.0769,-5.0712,-5.0712,-5.0712,-5.0712,-5.0712,-5.0712,-5.0712,-5.0712,-5.0712,-5.0712,-5.0712,-5.0712,-5.0712,-5.0712,-5.0712,-5.0712,-5.0712,-5.0712,-5.0712,-5.0712,-5.0712,-5.0712,-5.0712,-5.0712,-5.0712,-5.0712,-5.0712,-5.0712,-5.0712,-5.0712,-5.0712,-5.0712,-5.0712,-5.0712,-2.3983,-2.3661,-2.3235,-2.2745,-2.2013,0.0,0.0,-2.1082,-2.1656,-2.2564,0.0,0.0,0.0,0.0,0.0,0.0,0.0,0.0,0.0,0.0,0.0,0.0,0.0,0.0,-3.7538,-3.7998,-3.8606,-3.9471,-4.0493,-4.1064,-4.1083,-4.1101,-4.1109,-4.1109,-4.1109,-4.1109,-4.1109,-4.1109,-4.1109,-4.1109,-4.1109,-4.1109,-4.1109,-4.1109,-4.2046,-4.3686,-4.3686,-4.4699,-4.63,-4.63,-4.63,-4.63,-4.63,-4.63,-4.6495,-4.8174,-4.8798,-4.9032,-5.0789,-5.1414,-5.1336,-5.0906,-5.0748,-5.0672,-5.0243,-5.0399,-5.0828,-5.1297,-5.1414,-5.1414,-5.1414,-5.1414,-5.1414,-5.1414,-5.1336,-5.1201,-5.0794,-5.0712,-5.0712,-5.0712,-5.0712,-5.0712,-5.0712,-5.0712,-5.0712,-5.0712,-5.0712,-5.0712,-5.0712,-5.0712,-5.0712,-5.0712,-5.0712,-5.0712,-5.0712,-5.1471,-5.1933,-5.1933,-5.1548,-5.1318,-5.1318,-5.0894,-5.0712,-5.0712,-5.0712,-5.0712,-5.0712,-5.0712,-5.0712,-5.0712,-5.0712,-5.0712,-2.5718,-2.5242,-2.4624,-2.4236,0.0,-2.2018,0.0,0.0,0.0,-2.2341,0.0,0.0,0.0,0.0,0.0,0.0,0.0,0.0,0.0,0.0,0.0,0.0,0.0,0.0,-3.6389,-3.7201,-3.8031,-3.8796,-3.9738,-4.0337,-4.0601,-4.0746,-4.0836,-4.0836,-4.0992,-4.1109,-4.1109,-4.1109,-4.1109,-4.1109,-4.1109,-4.1109,-4.1109,-4.1265,-4.2202,-4.3725,-4.3879,-4.4855,-4.63,-4.63,-4.63,-4.63,-4.63,-4.6417,-4.6729,-4.8252,-4.8915,-4.9267,-5.0867,-5.1414,-5.1414,-5.1414,-5.1414,-5.1414,-5.1414,-5.1414,-5.1414,-5.1414,-5.1414,-5.1414,-5.1414,-5.1414,-5.1414,-5.1414,-5.1316,-5.1127,-5.0758,-5.0712,-5.0712,-5.0712,-5.0712,-5.0712,-5.0712,-5.0712,-5.0712,-5.0712,-5.0712,-5.0712,-5.0712,-5.0712,-5.0712,-5.0712,-5.0712,-5.0712,-5.0712,-5.1933,-5.301,-5.3626,-5.2731,-5.2,-5.1692,-5.1048,-5.0712,-5.0712,-5.0712,-5.0712,-5.0712,-5.0712,-5.0712,-5.0712,-5.0712,-5.0712,0.0,0.0,0.0,0.0,-2.4924,-2.4197,0.0,0.0,-2.2286,-2.1679,0.0,0.0,0.0,0.0,0.0,0.0,0.0,0.0,0.0,0.0,0.0,0.0,0.0,0.0,0.0,-3.5365,-3.5963,-3.6144,-3.702,-3.79,-3.8758,-3.9533,-3.9937,-3.9937,-4.0717,-4.1109,-4.1109,-4.1109,-4.1109,-4.1109,-4.1109,-4.1109,-4.1148,-4.1888,-4.2786,-4.3725,-4.4504,-4.5402,-4.63,-4.63,-4.63,-4.63,-4.63,-4.6768,-4.7547,-4.8486,-4.9306,-5.0085,-5.1063,-5.1414,-5.1414,-5.1414,-5.1414,-5.1414,-5.1414,-5.1414,-5.1414,-5.1414,-5.1414,-5.1414,-5.1414,-5.1414,-5.1414,-5.1414,-5.1316,-5.1127,-5.0758,-5.0712,-5.0712,-5.0712,-5.0712,-5.0712,-5.0712,-5.0712,-5.0712,-5.0712,-5.0712,-5.0712,-5.0712,-5.0712,-5.0712,-5.0712,-5.0712,-5.0712,-5.0712,-5.0866,-5.2241,-5.5241,-5.3933,-5.2395,-5.0904,-5.075,-5.0712,-5.0712,-5.0712,-5.0712,-5.0712,-5.0712,-5.0712,-5.0712,-5.0712,-5.0712,0.0,0.0,0.0,0.0,0.0,0.0,-2.3198,0.0,-2.2658,0.0,0.0,0.0,0.0,0.0,0.0,0.0,0.0,0.0,0.0,0.0,0.0,0.0,0.0,0.0,0.0,0.0,0.0,0.0,-3.5771,-3.6703,-3.769,-3.8592,-3.9312,-3.978,-4.0132,-4.06,-4.1109,-4.1109,-4.1109,-4.1109,-4.1109,-4.1343,-4.1888,-4.224,-4.3138,-4.4465,-4.4855,-4.548,-4.63,-4.63,-4.63,-4.63,-4.63,-4.6846,-4.7703,-4.8486,-4.9345,-5.0202,-5.1102,-5.1414,-5.1414,-5.1414,-5.1414,-5.1414,-5.1414,-5.1414,-5.1414,-5.1414,-5.1414,-5.1414,-5.1414,-5.1414,-5.1414,-5.1414,-5.1316,-5.1127,-5.0758,-5.0712,-5.0712,-5.0712,-5.0712,-5.0712,-5.0712,-5.0712,-5.0712,-5.0712,-5.0712,-5.0712,-5.0712,-5.0712,-5.0712,-5.0712,-5.0712,-5.0712,-5.0712,-5.0712,-5.2135,-5.5472,-5.4126,-5.2433,-5.0789,-5.0712,-5.0712,-5.0712,-5.0712,-5.0712,-5.0712,-5.0712,-5.0712,-5.0712,-5.0712,-5.0712,-3.1828,0.0,0.0,0.0,0.0,0.0,0.0,0.0,0.0,0.0,0.0,0.0,0.0,0.0,0.0,0.0,0.0,0.0,0.0,0.0,0.0,0.0,0.0,0.0,0.0,0.0,0.0,0.0,0.0,-3.5207,-3.6432,-3.7615,-3.8611,-3.9468,-3.9702,-4.021,-4.1109,-4.1109,-4.1109,-4.1109,-4.1109,-4.1576,-4.2396,-4.2669,-4.3567,-4.501,-4.5246,-4.5714,-4.63,-4.63,-4.63,-4.63,-4.63,-4.6846,-4.7703,-4.8486,-4.9501,-5.0553,-5.118,-5.1414,-5.1414,-5.1414,-5.1414,-5.1414,-5.1414,-5.1414,-5.1414,-5.1414,-5.1414,-5.1414,-5.1414,-5.1414,-5.1414,-5.1414,-5.1342,-5.1175,-5.0897,-5.0767,-5.0702,-5.0712,-5.0712,-5.0712,-5.0712,-5.0712,-5.0712,-5.0712,-5.0712,-5.0712,-5.0712,-5.0712,-5.0712,-5.0712,-5.0712,-5.0712,-5.0712,-5.1558,-5.3097,-5.5549,-5.3703,-5.1972,-5.075,-5.0712,-5.0712,-5.0712,-5.0712,-5.0712,-5.0712,-5.0712,-5.0712,-5.0712,-5.0712,-5.0712,0.0,0.0,0.0,-2.8351,0.0,0.0,0.0,0.0,-2.6064,0.0,0.0,0.0,0.0,-2.6937,-2.5829,-2.4186,0.0,0.0,0.0,0.0,0.0,0.0,0.0,0.0,0.0,0.0,0.0,0.0,-3.1984,0.0,-3.4603,-3.6366,-3.775,-3.8611,-3.939,-4.021,-4.1109,-4.1109,-4.1109,-4.1109,-4.1109,-4.1576,-4.2435,-4.3255,-4.4153,-4.5049,-4.587,-4.6261,-4.63,-4.63,-4.63,-4.63,-4.63,-4.6846,-4.7703,-4.8486,-4.9891,-5.1375,-5.1375,-5.1414,-5.1414,-5.1414,-5.1414,-5.1414,-5.1414,-5.1414,-5.1414,-5.1414,-5.1414,-5.1414,-5.1414,-5.1414,-5.1414,-5.1414,-5.1394,-5.1378,-5.1231,-5.099,-5.0785,-5.0731,-5.0712,-5.0712,-5.0712,-5.0712,-5.0712,-5.0712,-5.0712,-5.0712,-5.0712,-5.0712,-5.0712,-5.0712,-5.0712,-5.0712,-5.0712,-5.3664,-5.5588,-5.5703,-5.2597,-5.075,-5.0712,-5.0712,-5.0712,-5.0712,-5.0712,-5.0712,-5.0712,-5.0712,-5.0712,-5.0712,-5.0712,-5.0712,0.0,0.0,-3.3485,-3.0879,0.0,0.0,0.0,0.0,0.0,0.0,0.0,0.0,0.0,-2.8657,-2.7504,-2.5829,-2.5797,0.0,0.0,0.0,0.0,0.0,0.0,0.0,0.0,0.0,0.0,0.0,-3.1557,0.0,-3.3673,-3.5469,-3.7087,-3.8533,-3.8845,-3.9665,-4.1109,-4.1109,-4.1109,-4.1109,-4.1109,-4.1851,-4.3255,-4.3567,-4.4504,-4.587,-4.6183,-4.63,-4.63,-4.63,-4.63,-4.63,-4.63,-4.6846,-4.7703,-4.8486,-4.954,-5.0631,-5.1219,-5.1414,-5.1414,-5.1414,-5.1414,-5.1414,-5.1414,-5.1414,-5.1414,-5.1414,-5.1414,-5.1414,-5.1414,-5.1414,-5.1414,-5.1414,-5.1408,-5.1391,-5.1331,-5.1197,-5.1012,-5.0812,-5.0721,-5.0712,-5.0712,-5.0712,-5.0712,-5.0712,-5.0712,-5.0712,-5.0712,-5.0712,-5.0712,-5.0712,-5.2713,-5.401,-5.401,-5.5049,-5.5703,-5.5703,-5.2559,-5.0712,-5.0712,-5.0712,-5.0712,-5.0712,-5.0712,-5.0712,-5.0712,-5.0712,-5.0712,-5.0712,-5.0712,-5.0712,-3.6248,-3.5864,0.0,-3.3022,-3.1819,0.0,-2.9659,0.0,-2.9232,0.0,0.0,0.0,0.0,0.0,-2.9261,-2.7587,-2.6784,-2.5853,0.0,-2.4241,0.0,0.0,0.0,0.0,0.0,0.0,-2.8622,-3.0384,-3.111,0.0,0.0,-3.4729,-3.6462,-3.8533,-3.8611,-3.9391,-4.107,-4.1109,-4.1109,-4.1109,-4.1109,-4.2007,-4.3686,-4.3686,-4.466,-4.63,-4.63,-4.63,-4.63,-4.63,-4.63,-4.63,-4.63,-4.6846,-4.7664,-4.8174,-4.9109,-5.0202,-5.1102,-5.1414,-5.1414,-5.1414,-5.1414,-5.1414,-5.1414,-5.1414,-5.1414,-5.1414,-5.1414,-5.1414,-5.1414,-5.1414,-5.1414,-5.1414,-5.1414,-5.1408,-5.138,-5.1304,-5.1142,-5.0998,-5.0829,-5.0741,-5.0712,-5.0712,-5.0712,-5.0712,-5.0712,-5.0712,-5.0712,-5.1751,-5.2482,-5.2482,-5.4395,-5.5703,-5.5703,-5.5703,-5.5703,-5.5703,-5.2559,-5.0712,-5.0712,-5.0712,-5.0712,-5.0712,-5.0712,-5.0712,-5.0712,-5.0712,-5.0712,-5.0712,-5.0712,-5.0712]},{"header":{"parameterUnit":"m.s-1","parameterCategory":1,"la1":30.6,"la2":29.2853,"lo1":-89.7004,"lo2":-87.6739,"dy":0.0162,"dx":0.0183,"nx":112,"ny":82,"refTime":"2026-05-06T00:00:00:Z","depth":0,"parameterNumber":3,"parameterNumberName":"V-component_of_WINDS"},"data":[0.0,0.0,0.0,0.0,0.0,0.0,0.0,0.0,0.0,0.0,0.0,0.0,0.0,0.0,0.0,0.0,0.0,0.0,0.0,0.0,0.0,0.0,0.0,0.0,0.0,0.0,0.0,0.0,0.0,0.0,0.0,0.0,0.0,0.0,0.0,0.0,0.0,0.0,0.0,0.0,0.0,0.0,0.0,0.0,0.0,0.0,0.0,0.0,0.0,0.0,0.0,0.0,0.0,0.0,0.0,0.0,0.0,0.0,0.0,0.0,0.0,0.0,0.0,0.0,0.0,0.0,0.0,0.0,0.0,0.0,0.0,0.0,0.0,0.0,0.0,0.0,0.0,0.0,0.0,0.0,0.0,0.0,0.0,0.0,0.0,0.0,0.0,0.0,0.0,0.0,-0.0247,-0.0496,-0.0629,-0.0652,-0.054,-0.0521,-0.0418,-0.0259,0.0,0.0,0.0,0.0,0.0,0.0,0.0,0.0,0.0,0.0,0.0,0.0,0.0,0.0,0.0,0.0,0.0,0.0,0.0,0.0,0.0,0.0,0.0,0.0,0.0,0.0,0.0,0.0,0.0,0.0,0.0,0.0,0.0,0.0,0.0,0.0,0.0,0.0,0.0,0.0,0.0,0.0,0.0,0.0,0.0,0.0,0.0,0.0,0.0,0.0,0.0,0.0,0.0,0.0,0.0,0.0,0.0,0.0,0.0,0.0,0.0,0.0,0.0,0.0,0.0,0.0,0.0,0.0,0.0,0.0,0.0,0.0,0.0,0.0,0.0,0.0,0.0,0.0,0.0,0.0,0.0,0.0,0.0,0.0,0.0,0.0,0.0,0.0,0.0,0.0,0.0,0.0,0.0,0.0,0.0,0.0,0.0,0.0,0.0,0.0,0.0,0.0,0.0,0.0,-0.0431,-0.0648,-0.0695,-0.0697,-0.0675,-0.0558,-0.0481,-0.046,0.0,0.0,0.0,0.0,0.0,0.0,0.0,0.0,0.0,0.0,0.0,0.0,0.0,0.0,0.0,0.0,0.0,0.0,0.0,0.0,0.0,0.0,0.0,0.0,0.0,0.0,0.0,0.0,0.0,0.0,0.0,0.0,0.0,0.0,0.0,0.0,0.0,0.0,0.0,0.0,0.0,0.0,0.0,0.0,0.0,0.0,0.0,0.0,0.0,0.0,0.0,0.0,0.0,0.0,0.0,0.0,0.0,0.0,0.0,0.0,0.0,0.0,0.0,0.0,0.0,0.0,0.0,0.0,0.0,0.0,0.0,0.0,0.0,0.0,0.0,0.0,0.0,0.0,0.0,0.0,0.0,0.0,0.0,0.0,0.0,0.0,0.0,0.0,0.0,0.0,0.0,0.0,0.0,0.0,0.0,0.0,0.0,0.0,0.0,0.0,0.0,0.0,0.0,-0.0408,-0.0557,-0.0687,-0.0701,-0.0727,-0.0743,-0.067,-0.0575,-0.0509,-0.0352,0.0,0.0,0.0,0.0,0.0,0.0,0.0,0.0,0.0,0.0,0.0,0.0,0.0,0.0,0.0,0.0,0.0,0.0,0.0,0.0,0.0,0.0,0.0,0.0,0.0,0.0,0.0,0.0,0.0,0.0,0.0,0.0,0.0,0.0,0.0,0.0,0.0,0.0,0.0,0.0,0.0,0.0,0.0,0.0,0.0,0.0,0.0,0.0,0.0,0.0,0.0,0.0,0.0,0.0,0.0,0.0,0.0,0.0,0.0,0.0,0.0,0.0,0.0,0.0,0.0,0.0,0.0,0.0,0.0,0.0,0.0,0.0,0.0,0.0,0.0,0.0,0.0,0.0,0.0,0.0,0.0,0.0,0.0,0.0,0.0,0.0,0.0,0.0,0.0,0.0,0.0,0.0,0.0,0.0,0.0,0.0,0.0,0.0,0.0,0.0,0.0,0.0,-0.0551,-0.0656,-0.0723,-0.0727,-0.0747,-0.0787,-0.0745,-0.0676,-0.0533,-0.0397,0.0,0.0,0.0,0.0,0.0,0.0,0.0,0.0,0.0,0.0,0.0,0.0,0.0,0.0,0.0,0.0,0.0,0.0,0.0,0.0,0.0,0.0,0.0,0.0,0.0,0.0,0.0,0.0,0.0,0.0,0.0,0.0,0.0,0.0,0.0,0.0,0.0,0.0,0.0,0.0,0.0,0.0,0.0,0.0,0.0,0.0,0.0,0.0,0.0,0.0,0.0,0.0,0.0,0.0,0.0,0.0,0.0,0.0,0.0,0.0,0.0,0.0,0.0,0.0,0.0,0.0,0.0,0.0,0.0,0.0,0.0,0.0,0.0,0.0,0.0,0.0,0.0,0.0,0.0,0.0,0.0,0.0,0.0,0.0,0.0,0.0,0.0,0.0,0.0,0.0,0.0,0.0,0.0,0.0,0.0,0.0,0.0,0.0,0.0,0.0,0.0,0.0,-0.0651,-0.0725,-0.0788,-0.0799,-0.0791,-0.0791,-0.0784,-0.0744,-0.0594,-0.0461,0.0,0.0,0.0,0.0,0.0,0.0,0.0,0.0,0.0,0.0,0.0,0.0,0.0,0.0,0.0,0.0,0.0,0.0,0.0,0.0,0.0,0.0,0.0,0.0,0.0,0.0,0.0,0.0,0.0,0.0,0.0,0.0,0.0,0.0,0.0,0.0,0.0,0.0,0.0,0.0,0.0,0.0,0.0,0.0,0.0,0.0,0.0,0.0,0.0,0.0,0.0,0.0,0.0,0.0,0.0,0.0,0.0,0.0,0.0,0.0,0.0,0.0,0.0,0.0,0.0,0.0,0.0,0.0,0.0,0.0,0.0,0.0,0.0,0.0,0.0,0.0,0.0,0.0,0.0,0.0,0.0,0.0,0.0,0.0,0.0,0.0,0.0,0.0,0.0,0.0,0.0,0.0,0.0,0.0,0.0,0.0,0.0,0.0,0.0,0.0,0.0,0.0,-0.0653,-0.0729,0.0,-0.0807,-0.0795,-0.0791,-0.077,-0.069,-0.0543,0.0,0.0,0.0,0.0,0.0,0.0,0.0,0.0,0.0,0.0,0.0,0.0,0.0,0.0,0.0,0.0,0.0,0.0,0.0,0.0,0.0,0.0,0.0,0.0,0.0,0.0,0.0,0.0,0.0,0.0,0.0,0.0,0.0,0.0,0.0,0.0,0.0,0.0,0.0,0.0,0.0,0.0,0.0,0.0,0.0,0.0,0.0,0.0,0.0,0.0,0.0,0.0,0.0,0.0,0.0,0.0,0.0,0.0,0.0,0.0,0.0,0.0,0.0,0.0,0.0,0.0,0.0,0.0,0.0,0.0,0.0,0.0,0.0,0.0,0.0,0.0,0.0,0.0,0.0,0.0,0.0,0.0,0.0,0.0,0.0,0.0,0.0,0.0,0.0,0.0,0.0,0.0,0.0,0.0,0.0,0.0,0.0,0.0,0.0,0.0,0.0,0.0,-0.0614,-0.0683,-0.0759,0.0,-0.0836,-0.0819,-0.0806,-0.0759,-0.0666,-0.0513,0.0,0.0,0.0,0.0,0.0,0.0,0.0,0.0,0.0,0.0,0.0,0.0,0.0,0.0,0.0,0.0,0.0,0.0,0.0,0.0,0.0,0.0,0.0,0.0,0.0,0.0,0.0,0.0,0.0,0.0,0.0,0.0,0.0,0.0,0.0,0.0,0.0,0.0,0.0,0.0,0.0,0.0,0.0,0.0,0.0,0.0,0.0,0.0,0.0,0.0,0.0,0.0,0.0,0.0,0.0,0.0,0.0,0.0,0.0,0.0,0.0,0.0,0.0,0.0,0.0,0.0,0.0,0.0,0.0,0.0,0.0,0.0,0.0,0.0,0.0,0.0,0.0,0.0,0.0,0.0,0.0,0.0,0.0,0.0,0.0,0.0,0.0,0.0,0.0,0.0,0.0,0.0,0.0,0.0,0.0,0.0,0.0,0.0,0.0,0.0,0.0,0.0,-0.0675,-0.0748,-0.0821,-0.0887,-0.0897,-0.0872,-0.0811,-0.0806,-0.0707,0.0,0.0,0.0,0.0,0.0,0.0,0.0,0.0,0.0,0.0,0.0,0.0,0.0,0.0,0.0,0.0,0.0,0.0,0.0,0.0,0.0,0.0,0.0,0.0,0.0,0.0,0.0,0.0,0.0,0.0,0.0,0.0,0.0,0.0,0.0,0.0,0.0,0.0,0.0,0.0,0.0,0.0,0.0,0.0,0.0,0.0,0.0,0.0,0.0,0.0,0.0,0.0,0.0,0.0,0.0,0.0,0.0,0.0,0.0,0.0,0.0,0.0,0.0,0.0,0.0,0.0,0.0,0.0,0.0,0.0,0.0,0.0,0.0,0.0,0.0,0.0,0.0,0.0,0.0,0.0,0.0,0.0,0.0,0.0,0.0,0.0,0.0,0.0,0.0,0.0,0.0,0.0,0.0,0.0,0.0,0.0,0.0,0.0,0.0,0.0,0.0,0.0,0.0,-0.0614,-0.0739,-0.0838,-0.0887,-0.0912,-0.0864,-0.0808,-0.0795,-0.0707,-0.0515,0.0,0.0,0.0,0.0,0.0,0.0,0.0,0.0,0.0,0.0,0.0,0.0,0.0,0.0,0.0,0.0,0.0,0.0,0.0,0.0,0.0,0.0,0.0,0.0,0.0,0.0,0.0,0.0,0.0,0.0,0.0,0.0,0.0,0.0,0.0,0.0,0.0,0.0,0.0,0.0,0.0,0.0,0.0,0.0,0.0,0.0,0.0,0.0,0.0,0.0,0.0,0.0,0.0,0.0,0.0,0.0,0.0,0.0,0.0,0.0,0.0,0.0,0.0,0.0,0.0,0.0,0.0,0.0,0.0,0.0,0.0,0.0,0.0,0.0,0.0,0.0,0.0,0.0,0.0,0.0,0.0,0.0,0.0,0.0,0.0,0.0,0.0,0.0,0.0,0.0,0.0,0.0,0.0,0.0,0.0,0.0,0.0,0.0,0.0,0.0,0.0,0.0,-0.059,-0.0721,-0.0818,-0.0902,-0.0852,-0.0817,-0.0831,-0.0779,-0.0671,-0.0547,0.0,0.0,0.0,0.0,0.0,0.0,0.0,0.0,0.0,0.0,0.0,0.0,0.0,0.0,0.0,0.0,0.0,0.0,0.0,0.0,0.0,0.0,0.0,0.0,0.0,0.0,0.0,0.0,0.0,0.0,0.0,0.0,0.0,0.0,0.0,0.0,0.0,0.0,0.0,0.0,0.0,0.0,0.0,0.0,0.0,0.0,0.0,0.0,0.0,0.0,0.0,0.0,0.0,0.0,0.0,0.0,0.0,0.0,0.0,0.0,0.0,0.0,0.0,0.0,0.0,0.0,0.0,0.0,0.0,0.0,0.0,0.0,0.0,0.0,0.0,0.0,0.0,0.0,0.0,0.0,0.0,0.0,0.0,0.0,0.0,0.0,0.0,0.0,0.0,0.0,0.0,0.0,0.0,0.0,0.0,0.0,0.0,0.0,0.0,0.0,0.0,0.0,-0.0598,-0.0711,-0.0818,-0.0902,-0.0769,-0.0747,-0.0855,-0.0695,-0.0592,-0.0564,0.0,0.0,0.0,0.0,0.0,0.0,0.0,0.0,0.0,0.0,0.0,0.0,0.0,0.0,0.0,0.0,0.0,0.0,0.0,0.0,0.0,0.0,0.0,0.0,0.0,0.0,0.0,0.0,0.0,0.0,0.0,0.0,0.0,0.0,0.0,0.0,0.0,0.0,0.0,0.0,0.0,0.0,0.0,0.0,0.0,0.0,0.0,0.0,0.0,0.0,0.0,0.0,0.0,0.0,0.0,0.0,0.0,0.0,0.0,0.0,-0.1056,0.0,0.0,0.0,0.0,0.0,0.0,0.0,0.0,0.0,0.0,0.0,0.0,0.0,0.0,0.0,0.0,0.0,0.0,0.0,0.0,0.0,0.0,0.0,0.0,0.0,0.0,0.0,0.0,0.0,0.0,0.0,0.0,0.0,0.0,0.0,0.0,0.0,0.0,0.0,0.0,0.0,-0.0601,-0.0711,-0.0818,-0.0902,-0.0769,-0.0691,-0.0668,-0.0618,-0.0533,-0.0374,-0.0388,0.0,0.0,0.0,0.0,0.0,0.0,0.0,0.0,0.0,0.0,0.0,0.0,0.0,0.0,0.0,0.0,0.0,0.0,0.0,0.0,0.0,0.0,0.0,0.0,0.0,0.0,0.0,0.0,0.0,0.0,0.0,0.0,0.0,0.0,0.0,0.0,0.0,0.0,0.0,0.0,0.0,0.0,0.0,0.0,0.0,0.0,0.0,0.0,0.0,0.0,0.0,0.0,0.0,0.0,0.0,0.0,0.0,0.0,0.0,0.0,-0.1588,0.0,0.0,0.0,0.0,0.0,0.0,0.0,0.0,0.0,0.0,0.0,0.0,0.0,0.0,0.0,0.0,0.0,0.0,0.0,0.0,0.0,0.0,0.0,0.0,0.0,0.0,0.0,0.0,0.0,0.0,0.0,0.0,0.0,0.0,0.0,0.0,0.0,0.0,0.0,0.0,-0.0645,-0.0755,-0.086,-0.0904,-0.0687,-0.0584,-0.0656,-0.0494,-0.0394,-0.0348,-0.032,0.0,0.0,0.0,0.0,0.0,0.0,0.0,0.0,0.0,0.0,0.0,0.0,0.0,0.0,0.0,0.0,0.0,0.0,0.0,0.0,0.0,0.0,0.0,0.0,0.0,0.0,0.0,0.0,0.0,0.0,0.0,0.0,0.0,0.0,0.0,0.0,0.0,0.0,0.0,0.0,0.0,0.0,0.0,0.0,0.0,0.0,0.0,0.0,0.0,0.0,0.0,0.0,0.0,-0.2348,-0.1972,-0.1563,-0.0934,-0.0949,-0.1534,-0.1874,-0.1849,-0.1566,-0.1803,0.0,0.0,0.0,0.0,0.0,0.0,0.0,0.0,0.0,0.0,0.0,0.0,0.0,0.0,0.0,0.0,0.0,0.0,0.0,0.0,0.0,0.0,0.0,0.0,-0.1414,-0.1723,-0.1705,0.0,0.0,0.0,0.0,0.0,0.0,0.0,0.0,0.0,0.0,0.0,-0.0707,-0.0834,-0.0908,-0.0913,-0.0606,-0.0477,-0.0645,-0.0368,-0.0224,-0.029,-0.0215,-0.0096,0.0,0.0,0.0,0.0,0.0,0.0,0.0,0.0,0.0,0.0,0.0,0.0,0.0,0.0,0.0,0.0,0.0,0.0,0.0,0.0,0.0,0.0,0.0,0.0,0.0,0.0,0.0,0.0,0.0,0.0,0.0,0.0,-0.3432,-0.3208,0.0,0.0,0.0,0.0,0.0,0.0,0.0,0.0,0.0,0.0,0.0,0.0,0.0,-0.3709,-0.3787,-0.4077,-0.3946,-0.339,-0.299,-0.25,-0.1934,-0.1423,-0.1301,-0.1533,-0.1902,0.0,-0.2098,-0.1961,0.0,0.0,0.0,0.0,0.0,0.0,0.0,0.0,0.0,0.0,0.0,0.0,0.0,0.0,0.0,0.0,0.0,0.0,0.0,0.0,0.0,0.0,-0.1024,-0.1293,-0.1624,-0.1907,0.0,-0.1833,-0.1523,-0.1103,-0.0834,0.0,0.0,0.0,0.0,0.0,0.0,0.0,-0.0769,-0.086,-0.0888,-0.0889,-0.0587,-0.0421,-0.0449,-0.0289,-0.0101,0.01,0.0022,0.0104,0.043,0.0592,0.0,0.0,0.0,0.0,0.0,0.0,0.0,0.0,0.0,0.0,0.0,0.0,0.0,0.0,0.0,0.0,0.0,0.0,0.0,0.0,0.0,0.0,0.0,0.0,0.0,0.0,0.0,0.0,0.0,-0.3806,-0.4438,-0.4033,-0.4132,-0.3995,0.0,0.0,0.0,0.0,0.0,0.0,0.0,0.0,0.0,-0.369,-0.4038,-0.4246,-0.4338,-0.4643,-0.4577,-0.4129,-0.3732,-0.3281,-0.2771,-0.2063,-0.1797,-0.1838,-0.1716,-0.1676,-0.1717,-0.1899,-0.1783,-0.1485,0.0,0.0,0.0,0.0,-0.1016,-0.0998,-0.0998,-0.1019,-0.1011,-0.1025,0.0,0.0,0.0,0.0,0.0,0.0,0.0,0.0,0.0,0.0,-0.105,-0.1234,-0.1542,-0.1781,-0.1728,-0.1672,-0.1573,0.0,-0.0987,-0.0759,-0.0752,0.0,0.0,0.0,0.0,-0.0778,-0.0859,-0.0877,-0.0911,-0.0896,-0.0589,-0.0393,-0.0393,-0.0214,0.0,0.0177,0.033,0.0464,0.0612,0.0886,0.0885,0.0,0.0,0.0,0.0,0.0,0.0,0.0,0.0,0.0,0.0,0.0,0.0,0.0,0.0,0.0,0.0,0.0,0.0,0.0,0.0,0.0,0.0,0.0,0.0,0.0,0.0,0.0,0.0,-0.4469,-0.5056,-0.4702,-0.4808,-0.4652,0.0,0.0,0.0,0.0,0.0,0.0,-0.3906,-0.3983,-0.4098,-0.4246,-0.4512,-0.4734,-0.4827,-0.5123,-0.5032,-0.4625,-0.4272,-0.381,-0.3179,-0.2472,-0.2053,-0.1882,-0.1498,-0.1323,-0.1351,-0.167,-0.1632,-0.1346,-0.1196,-0.115,-0.1156,-0.1139,-0.1139,-0.111,-0.1136,-0.1133,-0.1135,-0.1143,-0.107,-0.1017,-0.0955,0.0,0.0,0.0,0.0,-0.0963,-0.1016,-0.1022,-0.1054,-0.115,-0.1365,-0.1511,-0.1346,-0.138,-0.1448,0.0,-0.1109,-0.0836,-0.0815,0.0,0.0,0.0,0.0,-0.0852,-0.0902,-0.0907,-0.0897,-0.0841,-0.0589,-0.0393,-0.0364,-0.0136,0.0079,0.0253,0.0511,0.067,0.0709,0.1026,0.0977,0.0541,0.0,0.0,0.0,0.0,0.0,0.0,0.0,0.0,0.0,0.0,0.0,0.0,0.0,0.0,0.0,0.0,0.0,0.0,0.0,0.0,0.0,0.0,0.0,0.0,0.0,0.0,0.0,0.0,0.0,-0.481,-0.503,0.0,0.0,0.0,0.0,-0.3851,-0.3868,-0.3976,-0.4262,-0.452,-0.4651,-0.4662,-0.5007,-0.5154,-0.5159,-0.5336,-0.5152,-0.4699,-0.4282,-0.3639,-0.2736,-0.235,-0.1923,-0.143,-0.1385,-0.1414,-0.1382,-0.1362,-0.1336,-0.1287,-0.1228,-0.1223,-0.1279,-0.122,-0.1181,-0.1201,-0.1209,-0.1198,-0.1203,-0.1196,-0.1164,-0.1108,-0.1078,-0.1048,0.0,0.0,-0.1089,-0.1078,-0.1079,-0.1079,-0.1114,-0.1114,-0.1126,-0.1097,-0.1037,-0.1031,-0.1075,0.0,-0.1029,-0.0902,-0.0901,0.0,-0.0803,-0.0804,-0.0856,-0.0904,-0.0905,-0.0907,-0.0841,-0.0729,-0.0533,-0.0336,-0.0224,-0.0081,0.0105,0.0379,0.0461,0.0561,0.0696,0.0848,0.0807,0.0603,0.0599,0.0,0.0,0.0,0.0,0.0,0.0,0.0,0.0,0.0,0.0,0.0,0.0,0.0,0.0,0.0,0.0,0.0,0.0,0.0,0.0,0.0,0.0,0.0,0.0,0.0,0.0,0.0,0.0,-0.4802,-0.5085,0.0,-0.4578,-0.4159,-0.4023,-0.4262,-0.4355,-0.4501,-0.4746,-0.4909,-0.5073,-0.515,-0.5311,-0.5378,-0.5378,-0.5545,-0.538,-0.4959,-0.445,-0.3908,-0.3319,-0.2555,-0.2099,-0.1914,-0.1587,-0.1441,-0.1476,-0.1455,-0.1358,-0.1288,-0.1267,-0.1265,-0.1313,-0.1291,-0.1249,-0.1255,-0.1265,-0.1254,-0.125,-0.1221,-0.1183,-0.1148,-0.1172,-0.1114,-0.1062,-0.1161,-0.1178,-0.1151,-0.1151,-0.1151,-0.1145,-0.1126,-0.1112,-0.1096,-0.1067,-0.1014,-0.1028,-0.1069,-0.0998,-0.0963,-0.0913,-0.0873,-0.086,-0.0868,-0.0874,-0.091,-0.091,-0.0835,-0.0757,-0.0701,-0.0449,-0.0252,-0.0196,-0.0083,0.0081,0.0253,0.0498,0.0601,0.0563,0.0695,0.068,0.0485,0.0561,0.0544,0.0,0.0,0.0,0.0,0.0,0.0,0.0,0.0,0.0,0.0,0.0,0.0,0.0,0.0,0.0,0.0,0.0,0.0,0.0,0.0,0.0,0.0,0.0,0.0,0.0,0.0,-0.4853,-0.481,-0.5079,-0.5126,-0.4791,-0.4518,-0.4442,-0.4637,-0.4799,-0.4958,-0.5127,-0.5246,-0.5344,-0.5426,-0.5589,-0.5582,-0.5494,-0.552,-0.5293,-0.4758,-0.415,-0.3568,-0.3046,-0.2286,-0.1907,-0.1813,-0.1573,-0.1478,-0.1478,-0.1478,-0.1433,-0.1363,-0.1354,-0.135,-0.1347,-0.1327,-0.1319,-0.1315,-0.1328,-0.1318,-0.1311,-0.1231,-0.1238,-0.125,-0.125,-0.1191,-0.1171,-0.1229,-0.1234,-0.1234,-0.1234,-0.1226,-0.1176,-0.1156,-0.11,-0.1115,-0.1095,-0.1069,-0.1047,-0.1047,-0.1016,-0.0982,-0.0931,-0.0928,-0.0918,-0.0917,-0.0913,-0.0881,-0.0842,-0.0757,-0.0645,-0.0533,-0.0336,-0.0168,-0.014,-0.0056,0.0054,0.0202,0.0453,0.0561,0.0473,0.0561,0.0531,0.041,0.0593,0.0698,0.0711,0.0,0.0,0.0,0.0,0.0,0.0,0.0,0.0,0.0,0.0,0.0,0.0,0.0,0.0,0.0,0.0,0.0,0.0,0.0,0.0,0.0,0.0,0.0,-0.3584,-0.4189,-0.4655,-0.48,-0.5049,-0.5141,-0.4923,-0.4853,-0.486,-0.5018,-0.5132,-0.5252,-0.5413,-0.5491,-0.5518,-0.5518,-0.579,-0.5772,-0.5501,-0.5326,-0.4853,-0.4047,-0.329,-0.2528,-0.1768,-0.1576,-0.1337,-0.1099,-0.1385,-0.148,-0.148,-0.148,-0.148,-0.1525,-0.1494,-0.1482,-0.1474,-0.1414,-0.1392,-0.1386,-0.1317,-0.1306,-0.1306,-0.1306,-0.1286,-0.1303,-0.1303,-0.1283,-0.1299,-0.1298,-0.1298,-0.1298,-0.1296,-0.1235,-0.1213,-0.1212,-0.1167,-0.1088,-0.1088,-0.1099,-0.1111,-0.1111,-0.1063,-0.0991,-0.099,-0.099,-0.0979,-0.0919,-0.0884,0.0,-0.0705,-0.0702,-0.0561,-0.0224,-0.0196,-0.014,0.0,0.0,0.0054,0.0177,0.0328,0.0391,0.0384,0.0382,0.0405,0.0427,0.0754,0.1045,0.1321,0.0,0.0,0.0,0.0,0.0,0.0,0.0,0.0,0.0,0.0,0.0,0.0,0.0,0.0,0.0,0.0,0.0,0.0,0.0,0.0,0.0,-0.3653,-0.392,-0.395,-0.4278,-0.4585,-0.4767,-0.5045,-0.5196,-0.5118,-0.5188,-0.5235,-0.5268,-0.5382,-0.5421,-0.5454,-0.5692,-0.5806,-0.5806,-0.5953,-0.58,-0.5378,-0.4931,-0.4263,-0.3309,-0.2284,-0.1666,-0.1344,-0.0895,-0.0895,-0.1193,-0.1244,-0.1393,-0.1592,-0.1592,-0.1592,-0.1587,-0.1534,-0.15,-0.1479,-0.1461,-0.1427,-0.1389,-0.1381,-0.1322,-0.1306,-0.1306,-0.1301,-0.1294,-0.1294,-0.1288,-0.1318,-0.1296,-0.129,-0.1286,-0.1302,-0.1291,-0.1278,-0.1217,-0.1198,-0.1181,-0.1159,-0.113,-0.1108,-0.1108,-0.1078,-0.1046,-0.0993,-0.0989,-0.098,-0.098,-0.0837,0.0,-0.0698,-0.0484,-0.0308,-0.0196,-0.0112,-0.0028,0.0,0.0,0.0028,0.0053,0.0077,0.0099,0.0118,0.0117,0.0423,0.1101,0.1223,0.1462,0.0,0.0,0.0,0.0,0.0,0.0,0.0,0.0,0.0,0.0,0.0,0.0,0.0,0.0,0.0,0.0,0.0,0.0,0.0,0.0,0.0,0.0,-0.3947,-0.4246,-0.4364,-0.4534,-0.4675,-0.4779,-0.5045,-0.5186,-0.5186,-0.5344,-0.5442,-0.5442,-0.5513,-0.5605,-0.5653,-0.5828,-0.5926,-0.5975,-0.61,-0.5873,-0.5202,-0.4606,-0.3772,-0.2729,-0.1638,-0.1049,-0.0858,-0.0555,-0.0656,-0.1061,-0.1162,-0.1364,-0.1617,-0.1617,-0.1617,0.0,0.0,0.0,0.0,0.0,-0.147,-0.1427,-0.1427,-0.1408,-0.1342,-0.1342,-0.1333,-0.1323,-0.1323,-0.1315,-0.1302,-0.1285,-0.128,-0.1314,-0.1284,-0.1316,-0.1307,-0.1238,-0.1221,-0.1206,-0.1189,-0.1161,-0.1137,-0.1088,-0.1072,0.0,-0.0926,-0.0985,-0.1009,-0.0917,-0.0806,-0.0668,-0.0503,-0.0319,-0.0171,-0.0112,-0.0056,0.0,0.0,0.0,0.0,0.0,0.0,0.0,0.0,0.0098,0.0,0.0,0.0,0.0,0.0,0.0,0.0,0.0,0.1364,0.1316,0.0,0.0,0.0,0.0,0.0,0.0,0.0,0.0,0.0,0.0,0.0,0.0,0.0,0.0,0.0,0.0,-0.4191,-0.4474,-0.4752,-0.4806,-0.4822,-0.4833,-0.5072,-0.5214,-0.5224,-0.5394,-0.5529,-0.5529,-0.5642,-0.575,-0.5899,0.0,0.0,0.0,0.0,-0.5894,-0.5058,-0.4292,-0.3374,-0.232,-0.1212,-0.0606,-0.0353,-0.0353,-0.0505,-0.0808,-0.1061,-0.1314,-0.1617,-0.1617,-0.1617,-0.1614,-0.1583,-0.1621,-0.1568,-0.1538,-0.1509,-0.1485,-0.1482,0.0,0.0,-0.1392,-0.1416,-0.1395,-0.1395,-0.1378,-0.1314,-0.1311,-0.131,-0.1302,-0.1311,-0.1302,-0.1295,-0.1305,-0.1236,-0.1217,-0.1217,-0.1193,-0.1164,-0.11,-0.0984,-0.0869,-0.0782,-0.0911,-0.0967,-0.0781,-0.0745,-0.0602,-0.027,-0.0177,-0.0146,0.0,0.0,0.0,0.0,0.0,0.0,0.0,0.0,0.0,0.0,0.0253,0.0632,0.1142,0.1391,0.1737,0.2176,0.2314,0.2293,0.2147,0.1695,0.1494,0.0,0.0,0.0,0.0,0.0,0.0,0.0,0.0,0.0,0.0,0.0,0.0,0.0,0.0,0.0,-0.4181,-0.4477,-0.472,-0.4785,-0.4882,-0.5018,-0.5105,-0.5246,-0.5371,-0.5427,-0.5567,-0.5653,-0.5653,-0.5806,-0.5882,-0.5899,-0.6089,-0.6257,-0.6279,-0.6344,-0.5907,-0.486,-0.387,-0.2821,-0.1765,0.0,0.0,-0.0101,-0.0101,-0.0353,-0.0808,-0.0858,-0.1162,-0.1617,-0.1617,-0.1617,-0.1614,-0.1583,-0.1621,-0.1568,-0.1538,-0.1523,-0.1513,-0.1489,-0.1476,-0.1468,-0.1399,-0.1387,-0.1381,-0.1381,-0.1379,0.0,-0.1389,-0.1382,-0.137,-0.1316,-0.1302,-0.1295,-0.1305,-0.1292,-0.1288,-0.1288,-0.1224,-0.1164,-0.0971,-0.0902,-0.084,-0.0592,-0.0581,-0.0605,-0.0569,-0.0459,-0.0354,-0.0286,-0.0152,-0.0029,0.0,0.0,0.0,0.0,0.0,0.0,0.0,0.0,0.0,0.0,0.0154,0.0409,0.079,0.0947,0.1354,0.2041,0.2118,0.228,0.2499,0.219,0.2038,0.0,0.0,0.0,0.0,0.0,0.0,0.0,0.0,0.0,0.0,0.0,-0.3213,-0.3526,0.0,-0.4197,-0.4471,-0.4681,-0.4817,-0.4876,-0.4941,-0.5061,-0.517,-0.5336,-0.5415,-0.5497,-0.5615,-0.5691,-0.5691,-0.5839,-0.5931,-0.5991,-0.617,-0.6247,-0.6158,-0.6061,-0.5486,-0.4433,-0.3327,-0.232,-0.1414,-0.0454,0.0,0.0,0.0,-0.0202,-0.0606,-0.0757,-0.1011,-0.1415,-0.1566,-0.1617,-0.1615,-0.16,-0.1594,-0.1592,-0.1577,-0.1562,-0.1547,-0.1531,-0.1506,-0.1478,-0.1463,-0.1448,-0.1391,-0.1391,-0.1391,-0.1387,-0.1416,-0.1412,-0.1403,-0.1358,-0.1336,-0.1317,-0.1287,-0.1307,-0.1296,-0.1296,-0.1167,-0.1038,-0.0911,-0.0742,-0.0542,-0.0422,-0.0312,-0.0274,-0.0372,-0.0333,-0.0262,-0.0162,-0.0063,0.0,0.0,0.0,0.0,0.0,0.0,0.0,0.0,0.0,0.0,0.0,0.0188,0.0429,0.0683,0.1127,0.1594,0.2098,0.245,0.2715,0.2938,0.2882,0.2717,0.0,0.0,0.0,0.0,0.0,0.0,0.0,0.0,-0.2562,-0.3029,-0.3392,-0.3724,-0.3932,-0.4202,-0.4436,-0.469,-0.479,-0.4866,-0.5002,-0.5018,-0.5067,-0.5208,-0.5353,-0.5426,-0.5529,-0.5632,-0.5696,-0.5718,-0.5871,-0.5991,-0.6116,-0.6236,-0.6197,-0.5937,-0.5636,-0.4935,-0.383,-0.2773,-0.1866,-0.1112,-0.0353,0.0,0.0,0.0,-0.0151,-0.0404,-0.0757,-0.1011,-0.1213,-0.1465,-0.1617,-0.1617,-0.1617,-0.1617,-0.1617,-0.1617,-0.1602,-0.158,-0.1622,-0.1587,-0.1497,-0.1485,-0.1464,-0.1397,-0.1392,-0.1391,-0.1391,-0.1391,-0.1391,-0.1384,-0.1397,-0.1369,-0.1298,-0.131,-0.1319,-0.1296,-0.1296,-0.11,-0.0899,-0.0843,-0.0532,-0.0299,-0.0251,-0.0106,-0.007,-0.0203,-0.0236,-0.0167,-0.0033,0.0,0.0,0.0,0.0,0.0,0.0,0.0,0.0,0.0,0.0,0.0,0.0,0.0257,0.0515,0.0772,0.1427,0.1968,0.237,0.2872,0.323,0.3411,0.353,0.3331,-0.088,-0.15,-0.2203,-0.2389,-0.2405,-0.2471,0.0,0.0,-0.3033,-0.3455,-0.3717,-0.3938,-0.4213,-0.4487,-0.4695,-0.479,-0.4876,-0.5002,-0.5018,-0.5018,-0.5099,-0.5364,-0.5402,-0.5458,-0.5648,-0.568,-0.5729,-0.5877,-0.5996,-0.6121,-0.6289,-0.6355,-0.6176,-0.5636,-0.5135,-0.4379,-0.3324,-0.2217,-0.1412,-0.0858,-0.0252,0.0,0.0,0.0,-0.0151,-0.0404,-0.096,-0.1162,-0.1213,-0.1465,-0.1617,-0.1617,-0.1617,-0.1617,-0.1617,-0.1617,-0.1614,-0.1607,-0.1581,-0.1615,-0.1601,-0.1498,-0.1478,-0.1471,-0.1399,-0.1391,-0.1391,-0.1391,-0.1391,-0.1384,-0.1397,-0.1369,-0.1298,-0.131,-0.1319,-0.1296,-0.1296,-0.11,-0.0863,-0.0665,-0.0461,-0.0227,-0.0075,0.0,0.0,-0.0034,-0.0034,-0.0034,0.0,0.0,0.0,0.0,0.0,0.0,0.0,0.0,0.0,0.0,0.0,0.0,0.0,0.0214,0.0549,0.1036,0.1431,0.2042,0.2924,0.3149,0.3458,0.3823,0.3839,0.3707,-0.1677,-0.2334,-0.2987,0.0,-0.3254,-0.3332,-0.3544,-0.3609,-0.3731,-0.4062,-0.4268,-0.4404,-0.4577,-0.4692,-0.48,0.0,-0.4947,-0.5018,-0.5018,-0.5018,-0.5105,-0.538,-0.5413,-0.5464,-0.5664,-0.5691,-0.5707,-0.5801,-0.598,-0.6111,-0.6159,-0.6339,-0.6087,-0.5386,-0.468,-0.3827,-0.2723,-0.1665,-0.0959,-0.0555,-0.0202,0.0,0.0,0.0,-0.0151,-0.0404,-0.0808,-0.1061,-0.1213,-0.1465,-0.1617,-0.1617,-0.1617,-0.1617,-0.1617,-0.1617,-0.1617,-0.1615,-0.1602,-0.1585,-0.1617,-0.159,-0.1509,-0.1478,-0.1466,-0.1449,-0.1391,-0.1391,-0.1391,-0.1388,-0.1419,-0.1395,-0.1365,-0.1294,-0.1306,-0.1319,-0.13,-0.0982,-0.0707,-0.0629,-0.0351,-0.0116,0.0,0.0,0.0,0.0,0.0,0.0,0.0,0.0,0.0,0.0,0.0,0.0,0.0,0.0,0.0,0.0,0.0,0.0,0.0,0.0278,0.0679,0.1201,0.1693,0.2342,0.3171,0.3508,0.3788,0.4013,0.4083,0.4084,-0.2355,0.0,0.0,-0.3775,-0.3835,-0.389,-0.4072,-0.4083,-0.4175,-0.4382,-0.4553,-0.4662,-0.4719,-0.4752,-0.4828,-0.4914,-0.4996,-0.5018,-0.5018,-0.5018,-0.5105,-0.538,-0.5413,-0.5464,-0.5664,-0.5691,-0.5702,-0.5734,-0.5969,-0.61,-0.6132,-0.6328,-0.5987,-0.514,-0.4228,-0.3274,-0.2169,-0.1111,-0.0505,-0.0303,-0.0101,0.0,0.0,0.0,-0.0101,-0.0303,-0.0656,-0.091,-0.1112,-0.1465,-0.1617,-0.1617,-0.1617,-0.1617,-0.1617,-0.1617,-0.1617,-0.1617,-0.1617,-0.1602,-0.1583,-0.1624,-0.1536,-0.1491,-0.1483,-0.1459,-0.1391,-0.1391,-0.1391,-0.1391,-0.1391,-0.1412,-0.1385,-0.1322,-0.1331,-0.1296,-0.1235,-0.0907,-0.0589,-0.0511,-0.0236,0.0,0.0,0.0,0.0,0.0,0.0,0.0,0.0,0.0,0.0,0.0,0.0,0.0,0.0,0.0,0.0,0.0,0.0,0.0,0.0,0.0317,0.0822,0.1515,0.2051,0.2747,0.3568,0.3865,0.4067,0.417,0.4262,0.43,0.0,0.0,-0.3637,-0.3841,-0.39,-0.3932,-0.4056,-0.4083,-0.4153,-0.4278,-0.4398,-0.4509,-0.4514,-0.4675,-0.4795,-0.4801,-0.4903,-0.5018,-0.5018,-0.5018,-0.5105,-0.538,-0.5413,-0.5464,0.0,-0.5691,-0.5734,-0.5888,-0.6013,-0.6138,-0.6306,-0.6372,-0.5937,-0.4834,-0.3776,-0.272,-0.1613,-0.0555,0.0,0.0,0.0,0.0,0.0,0.0,0.0,-0.005,-0.0555,-0.0808,-0.0858,-0.1364,-0.1617,-0.1617,-0.1617,-0.1617,-0.1617,-0.1617,-0.1617,-0.1617,-0.1617,-0.1615,-0.161,-0.1581,-0.155,-0.1519,-0.149,-0.1459,-0.1391,-0.1391,-0.1391,-0.1391,-0.1391,-0.1412,-0.1389,-0.1389,-0.1344,-0.1261,-0.1057,-0.0798,-0.055,-0.0354,-0.0157,0.0,0.0,0.0,0.0,0.0,0.0,0.0,0.0,0.0,0.0,0.0,0.0,0.0,0.0,0.0,0.0,0.0,0.0,0.0,0.0,0.0336,0.1007,0.2041,0.2476,0.3213,0.4256,0.4295,0.4295,0.4295,0.43,0.43,-0.2828,0.0,-0.3825,-0.3986,-0.4083,-0.4208,-0.4322,-0.4349,-0.4387,-0.4542,-0.4476,-0.4438,-0.4597,-0.4529,-0.4556,-0.4758,-0.4833,-0.4914,-0.5105,-0.5132,-0.5219,-0.5464,-0.542,0.0,0.0,0.0,0.0,-0.5739,-0.5975,-0.6058,-0.591,-0.5891,-0.5386,-0.4282,-0.3226,-0.2219,-0.1363,-0.0454,0.0,0.0,0.0,0.0,0.0,0.0,0.0,-0.005,-0.0555,-0.0808,-0.0858,-0.1364,-0.1617,-0.1617,-0.1617,-0.1617,-0.1617,-0.1617,-0.1617,-0.1617,-0.1617,-0.1617,-0.1615,-0.1605,-0.1568,-0.1477,-0.1513,-0.1475,-0.1391,-0.1391,-0.1391,-0.1391,-0.1391,-0.1383,-0.1415,-0.1395,-0.1233,-0.1078,-0.102,-0.0679,-0.0393,-0.0314,-0.0157,0.0,0.0,0.0,0.0,0.0,0.0,0.0,0.0,0.0,0.0,0.0,0.0,0.0,0.0,0.0,0.0,0.0,0.0135,0.0202,0.0202,0.074,0.1445,0.2281,0.2787,0.346,0.43,0.43,0.43,0.43,0.43,0.43,-0.3244,-0.3666,-0.3997,-0.4153,-0.424,-0.4322,-0.4393,-0.4443,-0.4454,-0.4487,-0.4344,-0.4268,-0.4376,-0.4344,-0.4387,-0.4659,-0.4742,-0.4866,-0.5099,-0.5159,-0.5262,-0.5464,-0.5458,-0.5513,0.0,0.0,0.0,-0.5691,-0.5953,-0.5947,-0.5569,-0.5429,-0.4834,-0.3729,-0.2672,-0.1765,-0.1061,-0.0353,0.0,0.0,0.0,0.0,0.0,0.0,0.0,-0.005,-0.0555,-0.0808,-0.0858,-0.1364,-0.1617,-0.1617,-0.1617,-0.1617,-0.1617,-0.1617,-0.1617,-0.1617,-0.1617,-0.1617,-0.1617,-0.1617,-0.1583,-0.154,-0.153,-0.1491,-0.1449,-0.1393,-0.1391,-0.1391,-0.1391,-0.1391,-0.1385,-0.1323,-0.1124,-0.0974,-0.0828,-0.0526,-0.0278,-0.0197,-0.0079,0.0,0.0,0.0,0.0,0.0,0.0,0.0,0.0,0.0,0.0,0.0,0.0,0.0,0.0,0.0,0.0,0.0,0.0202,0.0371,0.0572,0.1111,0.1814,0.2683,0.3088,0.3627,0.43,0.43,0.43,0.43,0.43,0.43,-0.3778,-0.4035,-0.4164,-0.4278,-0.4306,-0.43,-0.43,-0.4295,-0.4257,-0.4143,-0.4073,-0.4029,0.0,0.0,-0.4317,-0.4482,-0.467,-0.4833,-0.5007,-0.5127,-0.5241,0.0,0.0,0.0,0.0,0.0,0.0,-0.5652,0.0,-0.5805,-0.5289,-0.4888,-0.4232,-0.3173,-0.2116,-0.1312,-0.0808,-0.0252,0.0,0.0,0.0,0.0,0.0,0.0,0.0,-0.005,-0.0555,-0.0808,-0.0858,-0.1364,-0.1566,-0.1617,-0.1617,-0.1617,-0.1617,-0.1617,-0.1617,-0.1617,-0.1617,-0.1617,-0.1617,-0.1617,-0.1596,-0.1566,-0.1538,-0.1506,-0.1475,-0.14,-0.1392,-0.1391,-0.1391,-0.1391,-0.1346,-0.1166,-0.1016,-0.0866,-0.0466,-0.0331,-0.0243,-0.0039,0.0,0.0,0.0,0.0,0.0,0.0,0.0,0.0,0.0,0.0,0.0,0.0,0.0,0.0,0.0,0.0,0.0,0.0,0.0202,0.0539,0.1076,0.1445,0.215,0.3184,0.3418,0.3794,0.4311,0.4311,0.4311,0.4317,0.4317,0.4317,-0.4137,-0.4283,-0.4421,-0.4454,-0.436,-0.43,-0.43,-0.423,-0.4153,-0.4094,-0.3903,-0.3762,0.0,0.0,0.0,-0.4443,-0.4635,0.0,-0.5099,-0.5246,0.0,-0.5448,0.0,-0.5556,-0.568,-0.5691,0.0,0.0,-0.5396,-0.5217,-0.457,-0.393,-0.3224,-0.2318,-0.1463,-0.0858,-0.0505,-0.0151,0.0,0.0,0.0,0.0,0.0,0.0,0.0,0.0,-0.0353,-0.0606,-0.0808,-0.1162,-0.1415,-0.1617,-0.1617,-0.1617,-0.1617,-0.1617,-0.1617,-0.1617,-0.1617,-0.1617,-0.1617,-0.1617,-0.1596,-0.162,-0.1562,-0.1523,-0.1479,-0.1471,-0.1453,-0.1391,-0.1391,-0.1301,-0.1166,-0.1122,-0.0839,-0.0522,-0.0432,-0.0209,-0.0081,0.0,0.0,0.0,0.0,0.0,0.0,0.0,0.0,0.0,0.0,0.0,0.0,0.0,0.0,0.0,0.0,0.0,0.0,0.0,0.027,0.0673,0.1244,0.1848,0.2582,0.3418,0.3723,0.4069,0.446,0.446,0.4509,0.4597,0.4597,0.4597,-0.4344,-0.4498,-0.4575,-0.452,-0.4454,-0.4349,-0.4175,-0.3998,-0.3825,-0.3661,-0.3395,0.0,-0.339,0.0,0.0,0.0,0.0,0.0,-0.4985,-0.5224,-0.5393,0.0,-0.5524,0.0,-0.568,-0.5734,-0.5582,0.0,-0.5052,-0.4651,-0.3772,-0.2944,-0.2167,-0.1513,-0.0808,-0.0353,-0.0202,-0.005,0.0,0.0,0.0,0.0,0.0,0.0,0.0,0.0,0.0,-0.0505,-0.0656,-0.1061,-0.1314,-0.1415,-0.1566,-0.1617,-0.1617,-0.1617,-0.1617,-0.1617,-0.1617,-0.1617,-0.1617,-0.1617,-0.1606,-0.159,-0.1576,-0.1596,-0.1515,-0.1489,-0.1468,-0.1407,-0.1303,-0.1166,-0.1032,-0.0852,-0.0578,-0.0352,-0.0262,-0.0085,0.0,0.0,0.0,0.0,0.0,0.0,0.0,0.0,0.0,0.0,0.0,0.0,0.0,0.0,0.0,0.0,0.0,0.0,0.0,0.0,0.0303,0.0841,0.1613,0.2214,0.2954,0.3823,0.4108,0.4301,0.4503,0.4558,0.4618,0.469,0.469,0.469,-0.452,-0.4629,-0.4684,-0.4558,-0.4503,-0.4353,-0.397,-0.369,-0.3386,-0.2997,0.0,-0.2576,-0.2693,-0.2925,-0.3279,-0.3758,0.0,-0.4512,-0.4736,-0.5121,-0.5391,-0.5407,-0.5583,-0.5691,-0.5691,-0.5839,-0.5629,-0.4892,-0.4598,-0.402,-0.2953,-0.2,-0.1261,-0.0707,-0.0252,0.0,0.0,0.0,0.0,0.0,0.0,0.0,0.0,0.0,0.0,0.0,-0.0252,-0.0353,-0.0454,-0.091,-0.1112,-0.1213,-0.1465,-0.1566,-0.1617,-0.1617,-0.1617,-0.1617,-0.1617,-0.1617,-0.1617,-0.1617,-0.1617,-0.1611,-0.1585,-0.1624,-0.161,-0.1508,-0.1487,-0.1383,-0.1176,-0.1034,-0.0896,-0.0493,-0.0359,-0.0268,-0.0044,0.0,0.0,0.0,0.0,0.0,0.0,0.0,0.0,0.0,0.0,0.0,0.0,0.0,0.0,0.0,0.0,0.0,0.0,0.0034,0.0034,0.0034,0.0409,0.1089,0.2138,0.2578,0.3292,0.4349,0.4482,0.4536,0.4553,0.4662,0.4723,0.4739,0.4739,0.4739,-0.4741,-0.4747,-0.4773,-0.469,-0.4509,-0.4223,-0.3821,-0.3355,0.0,0.0,-0.2136,-0.1888,-0.2174,-0.2454,-0.2817,-0.3382,0.0,0.0,0.0,0.0,-0.5298,0.0,0.0,0.0,0.0,0.0,0.0,0.0,0.0,-0.3057,-0.2509,-0.1512,-0.0707,-0.0151,-0.005,0.0,0.0,0.0,0.0,0.0,0.0,0.0,0.0,0.0,0.0,0.0,-0.005,0.0,-0.0404,-0.0505,-0.0808,-0.1213,-0.1263,-0.1415,-0.1617,-0.1617,-0.1617,-0.1617,-0.1617,-0.1617,-0.1617,-0.1617,-0.1617,-0.1615,-0.161,-0.1591,-0.1618,-0.1607,-0.1376,-0.1156,-0.1105,-0.0818,-0.0493,-0.0403,-0.0224,-0.0045,0.0,0.0,0.0,0.0,0.0,0.0,0.0,0.0,0.0,0.0,0.0,0.0,0.0,0.0,0.0,0.0,0.0,0.0,0.0,0.0144,0.0252,0.0252,0.0935,0.169,0.2476,0.3049,0.3763,0.4629,0.4646,0.4706,0.4736,0.4752,0.4855,0.4953,0.4953,0.4953,-0.4724,-0.4833,-0.4887,-0.4734,-0.4553,-0.4239,-0.3592,0.0,0.0,0.0,-0.1489,-0.1223,-0.1577,0.0,0.0,0.0,0.0,0.0,0.0,0.0,0.0,0.0,0.0,0.0,0.0,0.0,0.0,0.0,0.0,-0.2421,-0.2016,-0.0959,-0.0252,0.0,0.0,0.0,0.0,0.0,0.0,0.0,0.0,0.0,0.0,0.0,0.0,0.0,0.0,-0.005,-0.0202,-0.0353,-0.0555,-0.0808,-0.096,-0.1061,-0.1213,-0.1364,-0.1415,-0.1415,-0.1566,-0.1617,-0.1617,-0.1617,-0.1617,-0.1566,-0.1415,-0.1305,-0.1144,-0.1034,-0.0775,-0.0475,-0.0372,-0.0138,0.0045,0.0135,0.0179,0.018,0.0045,0.0,0.0,0.0,0.0,0.0,0.0,0.0,0.0,0.0,0.0,0.0,0.0,0.0,0.0,0.0,0.0,0.0,0.0,0.0182,0.0437,0.0801,0.1348,0.2112,0.3092,0.3455,0.3998,0.469,0.475,0.4773,0.4795,0.486,0.492,0.5018,0.5018,0.5018,-0.4712,-0.4833,-0.4925,-0.4744,-0.4558,-0.4184,-0.3345,-0.2647,0.0,0.0,-0.0882,-0.065,-0.0976,0.0,0.0,0.0,0.0,0.0,0.0,0.0,0.0,0.0,0.0,0.0,0.0,0.0,0.0,0.0,0.0,0.0,-0.1259,-0.0454,0.0,0.0,0.0,0.0,0.0,0.0,0.0,0.0,0.0,0.0,0.0,0.0,0.0,0.0,0.0,0.0,0.0,-0.0252,-0.0353,-0.0404,-0.0656,-0.0757,-0.0808,-0.1061,-0.1162,-0.1213,-0.1465,-0.1566,-0.1566,-0.1516,-0.1516,-0.1465,-0.1213,-0.0808,-0.0403,-0.0149,0.0246,0.0633,0.085,0.0931,0.0919,0.0856,0.0672,0.0359,0.0045,0.0,0.0,0.0,0.0,0.0,0.0,0.0,0.0,0.0,0.0,0.0,0.0,0.0,0.0,0.0,0.0,0.0,0.0,0.0222,0.0666,0.1334,0.1777,0.2513,0.3659,0.3879,0.4252,0.4766,0.4822,0.4833,0.4833,0.493,0.5018,0.5018,0.5018,0.5018,-0.4757,-0.4795,-0.4779,-0.4723,-0.4398,-0.3951,-0.3193,0.0,0.0,-0.0997,-0.0441,-0.0138,-0.0418,-0.0639,-0.0929,0.0,0.0,-0.2122,0.0,0.0,0.0,0.0,0.0,0.0,0.0,0.0,0.0,0.0,0.0,0.0,-0.0151,-0.005,0.0,0.0,0.0,0.0,0.0,0.0,0.0,0.0,0.0,0.0,0.0,0.0,0.0,0.0,0.0,0.0,0.0,-0.005,-0.0202,-0.0404,-0.0404,-0.0606,-0.0808,-0.0808,-0.1011,-0.1213,-0.1213,-0.1415,-0.1566,-0.1314,-0.1213,-0.1162,-0.091,-0.0151,0.0706,0.0956,0.1787,0.2542,0.2582,0.2654,0.2525,0.1577,0.0986,0.0538,0.009,0.0,0.0,0.0,0.0,0.0,0.0,0.0,0.0,0.0,0.0,0.0,0.0,0.0,0.0,0.0,0.0,0.0,0.0,0.0351,0.0858,0.1518,0.2299,0.3115,0.4003,0.4433,0.4748,0.4985,0.4996,0.5002,0.5002,0.5012,0.5018,0.5018,0.5018,0.5018,-0.4359,-0.4597,-0.4681,-0.4415,-0.4107,-0.3638,-0.278,0.0,-0.1329,-0.0737,-0.0296,-0.0056,-0.0244,-0.0421,-0.0598,-0.0847,-0.1091,-0.146,-0.2006,0.0,0.0,0.0,0.0,0.0,0.0,0.0,0.0,0.0,0.0,0.0,0.0,0.0,0.0,0.0,0.0,0.0,0.0,0.0,0.0,0.0,0.0,0.0,0.0,0.0,0.0,0.0,0.0,0.0,0.0,0.0,-0.005,-0.0151,-0.0151,-0.0202,-0.0353,-0.0505,-0.0606,-0.0757,-0.091,-0.1011,-0.1112,-0.1011,-0.0858,-0.0656,-0.0404,0.0454,0.1361,0.1816,0.2707,0.3518,0.3436,0.3272,0.2894,0.2065,0.1613,0.1166,0.0404,0.0224,0.0178,0.0043,0.0,0.0,0.0,0.0,0.0,0.0,0.0,0.0,0.0,0.0,0.0,0.0,0.0,0.0,0.0,0.0354,0.1059,0.2074,0.2663,0.3487,0.4579,0.4779,0.4901,0.5018,0.5018,0.5018,0.5018,0.5089,0.5121,0.5121,0.5197,0.523,-0.3997,-0.4311,-0.4472,-0.4102,-0.3753,-0.3267,0.0,-0.1659,-0.1049,-0.0561,-0.0224,-0.0036,-0.0127,-0.0176,-0.0252,-0.035,-0.0439,-0.0674,-0.1169,0.0,0.0,0.0,0.0,0.0,0.0,0.0,0.0,0.0,0.0,0.0,0.0,0.0,0.0,0.0,0.0,0.0,0.0,0.0,0.0,0.0,0.0,0.0,0.0,0.0,0.0,0.0,0.0,0.0,0.0,0.0,0.0,0.0,0.0,0.0,0.0,-0.0202,-0.0353,-0.0404,-0.0606,-0.0757,-0.0808,-0.0707,-0.0555,-0.0303,0.0101,0.111,0.2167,0.2723,0.3764,0.4654,0.4478,0.4108,0.3612,0.2959,0.2464,0.1884,0.0896,0.0583,0.0401,0.0044,0.0,0.0,0.0,0.0,0.0,0.0,0.0,0.0039,0.0079,0.0079,0.0118,0.0157,0.0196,0.0118,0.0,0.0354,0.1138,0.2426,0.2895,0.3682,0.494,0.5018,0.5034,0.5067,0.5067,0.5083,0.5121,0.5203,0.5241,0.5241,0.5369,0.5471,-0.3642,-0.4066,-0.4233,-0.3894,-0.3407,-0.2823,0.0,-0.1391,-0.0809,-0.0481,-0.0181,0.0,0.0,0.0114,0.02,0.0188,0.0304,0.0281,-0.008,0.0,0.0,0.0,0.0,0.0,0.0,0.0,0.0,0.0,0.0,0.0,0.0,0.0,0.0,0.0,0.0,0.0,0.0,0.0,0.0,0.0,0.0,0.0,0.0,0.0,0.0,0.0,0.0,0.0,0.0,0.0,0.0,0.0,0.0,0.0,0.0,0.0,-0.0151,-0.0404,-0.0404,-0.0555,-0.0757,-0.0505,-0.0404,-0.0252,0.0555,0.1917,0.3274,0.383,0.507,0.6214,0.5969,0.5537,0.5004,0.441,0.3582,0.2598,0.1615,0.1031,0.0579,0.0087,0.0,0.0,0.0,0.0,0.0,0.0,0.0,0.0079,0.0275,0.0314,0.0393,0.0589,0.0589,0.0432,0.0039,0.0354,0.1138,0.2426,0.2895,0.3682,0.494,0.5018,0.5067,0.5181,0.5186,0.5246,0.5407,0.5407,0.5407,0.5407,0.5413,0.5557,-0.2666,-0.3086,-0.3308,-0.2934,-0.2591,-0.2151,-0.149,-0.0939,-0.0507,-0.0298,-0.0127,0.0,0.0,0.0114,0.0199,0.0209,0.0304,0.0,0.0,0.0,0.0,0.0,0.0,0.0,0.0,0.0,0.0,0.0,0.0,0.0,0.0,0.0,0.0,0.0,0.0,0.0,0.0,0.0,0.0,0.0,0.0,0.0,0.0,0.0,0.0,0.0,0.0,0.0,0.0,0.0,0.0,0.0,0.0,0.0,0.0,0.0,-0.005,-0.0151,-0.0151,-0.0202,-0.0252,-0.0151,-0.0151,0.0,0.0606,0.1917,0.3525,0.5181,0.5904,0.6127,0.6045,0.5675,0.519,0.4705,0.4072,0.3269,0.2195,0.1703,0.1209,0.0445,0.0264,0.0217,0.0043,0.0,0.0,0.0,0.0122,0.0241,0.0282,0.0436,0.0511,0.0589,0.0589,0.0511,0.0236,0.0589,0.1295,0.2426,0.2895,0.3682,0.494,0.5094,0.5148,0.5186,0.5309,0.5416,0.5621,0.5707,0.5872,0.6089,0.6089,0.615,-0.1752,-0.2212,-0.247,-0.2079,-0.1824,-0.1512,-0.095,-0.0541,-0.0224,-0.0138,-0.0055,0.0,0.0,0.0156,0.0266,0.0279,0.0425,0.054,0.0,0.0,0.0,0.0,0.0,0.0,0.0,0.0,0.0,0.0,0.0,0.0,0.0141,0.0145,0.0098,0.0,0.0,0.0,0.0,0.0,0.0,0.0,0.0,0.0,0.0,0.0,0.0,0.0,0.0,0.0,0.0,0.0,0.0,0.0,0.0,0.0,0.0,0.0,0.0,0.0,0.0,0.0,0.0,0.0,0.0151,0.0454,0.1161,0.237,0.3924,0.5837,0.6268,0.6132,0.604,0.5812,0.5515,0.5156,0.4696,0.4072,0.3176,0.2598,0.1929,0.0986,0.0622,0.0439,0.0174,0.0172,0.017,0.0253,0.0374,0.0495,0.0536,0.0692,0.0764,0.0837,0.0875,0.0754,0.055,0.0746,0.134,0.2339,0.2817,0.3627,0.4948,0.5097,0.5197,0.5322,0.5482,0.567,0.5849,0.601,0.6218,0.6384,0.6384,0.6473,0.0,-0.1393,-0.1639,-0.1322,-0.1134,-0.0945,-0.048,-0.0194,0.0,0.0,0.0,0.0,0.002,0.0225,0.0406,0.0403,0.0627,0.0,0.0,0.0,0.0,0.0,0.0,0.0,0.0,0.0,0.0,0.0,0.0,0.0,0.0418,0.0386,0.0295,0.0,0.0,0.0,0.0,0.0,0.0,0.0,0.0,0.0,0.0,0.0,0.0,0.0,0.0,0.0,0.0,0.0,0.0,0.0,0.0,0.0,0.0,0.0,0.0,0.0,0.0,0.0,0.0,0.0,0.0353,0.0959,0.2017,0.3126,0.4268,0.5821,0.6268,0.6203,0.5975,0.5904,0.5866,0.5712,0.5369,0.4919,0.4433,0.3626,0.2688,0.166,0.1122,0.0713,0.0481,0.0436,0.052,0.0679,0.0719,0.0802,0.0971,0.1012,0.1087,0.1268,0.1306,0.1213,0.0949,0.0906,0.1312,0.2232,0.2724,0.3613,0.4912,0.5006,0.5183,0.5551,0.5815,0.6008,0.6169,0.6346,0.6428,0.6428,0.6428,0.6574,0.031,0.0,-0.097,-0.074,-0.062,-0.0506,0.0,-0.0127,0.0,0.0,0.0,0.0037,0.0143,0.0293,0.0432,0.0535,0.0728,0.0887,0.0,0.0,0.0,0.0,0.0,0.0,0.0,0.0,0.0,0.0,0.0,0.0668,0.0435,0.0396,0.0301,0.0,0.0,0.0,0.0,0.0,0.0,0.0,0.0,0.0,0.0,0.0,0.0,0.0,0.0,0.0,0.0,0.0,0.0,0.0,0.0,0.0,0.0,0.0,0.0,0.0,0.0,0.0,0.0,0.0,0.0202,0.0656,0.1513,0.267,0.3977,0.5359,0.5781,0.5884,0.6009,0.5909,0.5723,0.5696,0.5508,0.5191,0.4696,0.4117,0.3403,0.2419,0.2016,0.1657,0.1025,0.0935,0.0889,0.0708,0.0829,0.095,0.0994,0.1149,0.1261,0.1297,0.1296,0.121,0.0995,0.1101,0.1415,0.1948,0.264,0.3544,0.4736,0.5161,0.5609,0.611,0.6424,0.658,0.6618,0.6833,0.6915,0.6915,0.6915,0.707,0.0687,0.0274,-0.0147,-0.0072,-0.0047,-0.0023,0.007,0.0126,0.0,0.0,0.0,0.02,0.0279,0.0397,0.0528,0.0621,0.079,0.0,0.0,0.0,0.0,0.0,0.0,0.0,0.0,0.0,0.0,0.0,0.0,0.1069,0.0785,0.075,0.0656,0.0353,0.0353,0.0252,0.0,0.0,0.0,0.0,0.0,0.0,0.0,0.0,0.0,0.0,0.0,0.0,0.0,0.0,0.0,0.0,0.0,0.0,0.0,0.0,0.0,0.0,0.0,0.0,0.0,0.0,0.0202,0.0505,0.106,0.2017,0.3168,0.4732,0.5289,0.5523,0.5889,0.5909,0.5801,0.5702,0.5597,0.5508,0.5364,0.4964,0.4385,0.3753,0.3221,0.2598,0.1882,0.1569,0.1346,0.1077,0.1111,0.1192,0.1192,0.1268,0.1339,0.1326,0.1367,0.1277,0.1138,0.126,0.1511,0.1844,0.25,0.3464,0.466,0.5203,0.5807,0.6505,0.6713,0.684,0.6922,0.7054,0.7098,0.7098,0.721,0.7292,0.0685,0.0682,0.0626,0.0532,0.0458,0.0411,0.0409,0.0,0.0,0.0,0.0,0.0,0.0,0.0516,0.0,0.0,0.0,0.0,0.0,0.0,0.0,0.0,0.0,0.0,0.0,0.0,0.0,0.0,0.0,0.1475,0.1232,0.1201,0.1061,0.0808,0.0808,0.0555,0.005,0.005,0.005,0.0,0.0,0.0,0.0,0.0,0.0,0.0,0.0,0.0,0.0,0.0,0.0,0.0,0.0,0.0,0.0,0.0,0.0,0.0,0.0,0.0,0.0,0.0,0.0151,0.0404,0.0606,0.1212,0.2159,0.3936,0.4748,0.5195,0.5753,0.5915,0.5877,0.5718,0.573,0.5819,0.6041,0.5769,0.5413,0.5181,0.4425,0.3578,0.2819,0.233,0.1884,0.157,0.148,0.1436,0.1391,0.1391,0.1381,0.14,0.1441,0.1474,0.1448,0.1513,0.1703,0.1965,0.2485,0.3426,0.4781,0.5369,0.6035,0.684,0.684,0.6922,0.7098,0.7098,0.7105,0.7132,0.7312,0.7439,0.0675,0.0774,0.0806,0.0625,0.0496,0.0393,0.0406,0.0,0.0,0.0,0.0,0.0,0.0,0.0586,0.0,0.0,0.0,0.0,0.0,0.0,0.0,0.0,0.0,0.0,0.0,0.0,0.0,0.0,0.0,0.1484,0.1207,0.1211,0.1061,0.0808,0.0808,0.0656,0.0353,0.0353,0.0202,0.0,0.0,0.0,0.0,0.0,0.0,0.0,0.0,0.0,0.0,0.0,0.0,0.0,0.0,0.0,0.0,0.0,0.0,0.0,0.0,0.0,0.0,0.0,0.005,0.005,0.0101,0.0505,0.1307,0.2855,0.3964,0.4966,0.5858,0.598,0.5877,0.5718,0.5863,0.6041,0.6086,0.6041,0.5902,0.563,0.5142,0.4563,0.3805,0.3314,0.278,0.2153,0.1884,0.166,0.1436,0.1391,0.1388,0.1384,0.1607,0.1829,0.2045,0.223,0.2455,0.2719,0.2808,0.3701,0.5453,0.6384,0.6922,0.7054,0.7054,0.7054,0.7098,0.7098,0.721,0.7333,0.7405,0.7502,0.0681,0.0773,0.0827,0.0778,0.0712,0.0659,0.0623,0.0623,0.0,0.0,0.0,0.0,0.0,0.0,0.0,0.0,0.0,0.0,0.0,0.0,0.0,0.0,0.0,0.0,0.0,0.0,0.0,0.0,0.0,0.0,0.1414,0.1415,0.1364,0.1213,0.1213,0.1011,0.0606,0.0606,0.0404,0.0,0.0,0.0,0.0,0.0,0.0,0.0,0.0,0.0,0.0,0.0,0.0,0.0,0.0,0.0,0.0,0.0,0.0,0.0,0.0,0.0,0.0,0.0,0.0,0.0,0.0,0.0353,0.1109,0.2491,0.3552,0.457,0.5847,0.6178,0.6105,0.607,0.6169,0.6302,0.6441,0.6485,0.6485,0.6473,0.6074,0.5586,0.4964,0.4291,0.3555,0.2691,0.2302,0.19,0.1485,0.1438,0.1432,0.1461,0.1779,0.2179,0.2558,0.2911,0.3179,0.3448,0.3805,0.4607,0.5858,0.67,0.7098,0.7098,0.7098,0.7098,0.7098,0.7224,0.7299,0.7419,0.7536,0.7678,0.0712,0.0762,0.0806,0.0895,0.0,0.0885,0.0838,0.0827,0.0827,0.0,0.0,0.0,0.0,0.0,0.0,0.0,0.0,0.0,0.0,0.1343,0.1393,0.14,0.1421,0.0,0.0,0.0,0.0,0.0,0.0,0.0,0.1617,0.1617,0.1617,0.1617,0.1617,0.1364,0.0808,0.0808,0.0555,0.0,0.0,0.0,0.0,0.0,0.0,0.0,0.0,0.0,0.0,0.0,0.0,0.0,0.0,0.0,0.0,0.0,0.0,0.0,0.0,0.0,0.0,0.0,0.0,0.0,0.0,0.0353,0.0959,0.2267,0.3141,0.411,0.5858,0.6368,0.6426,0.6518,0.6571,0.6661,0.6847,0.6937,0.7027,0.7206,0.6886,0.6481,0.6031,0.5288,0.4417,0.3443,0.2969,0.2476,0.1954,0.1859,0.1896,0.1866,0.233,0.2818,0.339,0.3857,0.4202,0.4385,0.4875,0.5458,0.6124,0.6789,0.7098,0.7098,0.7098,0.7112,0.7152,0.7312,0.7453,0.7482,0.7706,0.7828,0.0761,0.0789,0.0806,0.0891,0.0903,0.0897,0.0892,0.089,0.0,0.089,0.0,0.0,0.0,0.0,0.0,0.0,0.0,0.0,0.0,0.0,0.14,0.1384,0.1389,0.0,0.0,0.0,0.0,0.0,0.0,0.0,0.1615,0.1617,0.1617,0.1617,0.1617,0.1364,0.0808,0.0808,0.0555,0.0,0.0,0.0,0.0,0.0,0.0,0.0,0.0,0.0,0.0,0.0,0.0,0.0,0.0,0.0,0.0,0.0,0.0,0.0,0.0,0.0,0.0,0.0,0.0,0.0,0.0,0.0202,0.0656,0.1765,0.2618,0.3701,0.5786,0.6483,0.669,0.6844,0.7001,0.7135,0.7182,0.7376,0.757,0.7563,0.7329,0.7088,0.686,0.6203,0.5454,0.4694,0.4135,0.3569,0.3049,0.3002,0.2999,0.2996,0.3468,0.4098,0.4982,0.5335,0.5675,0.5902,0.5769,0.5852,0.634,0.6833,0.7098,0.7098,0.7098,0.721,0.7353,0.7412,0.7509,0.778,0.7801,0.7889,0.0723,0.0773,0.0799,0.0839,0.086,0.0,0.0,0.0941,0.096,0.0947,0.0997,0.0,0.0,0.0,0.0,0.0,0.0,0.0,0.0,0.0,0.0,0.0,0.0,0.0,0.0,0.0,0.0,0.0,0.0,0.1549,0.156,0.156,0.156,0.156,0.1579,0.134,0.0794,0.0804,0.0555,0.0,0.0,0.0,0.0,0.0,0.0,0.0,0.0,0.0,0.0,0.0,0.0,0.0,0.0,0.0,0.0,0.0,0.0,0.0,0.0,0.0,0.0,0.0,0.0,0.0,0.0,0.0303,0.0808,0.1564,0.2569,0.386,0.5557,0.6311,0.6762,0.7206,0.7409,0.7456,0.7456,0.755,0.7597,0.7597,0.7503,0.7409,0.7362,0.6905,0.6331,0.5706,0.5231,0.4777,0.4237,0.4139,0.4166,0.4168,0.4879,0.5586,0.6205,0.6545,0.6789,0.6924,0.6433,0.6302,0.6656,0.6922,0.7098,0.7098,0.7238,0.7312,0.7419,0.7556,0.7699,0.7814,0.7909,0.7934,0.0712,0.0728,0.077,0.0795,0.0,0.0,0.0917,0.0987,0.1025,0.1022,0.1084,0.1146,0.1132,0.0,0.0,0.0,0.0,0.0,0.0,0.0,0.0,0.0,0.0,0.0,0.0,0.0,0.0,0.0,0.15,0.1516,0.1478,0.1478,0.1531,0.154,0.1561,0.133,0.0793,0.0803,0.0555,0.0,0.0,0.0,0.0,0.0,0.0,0.0,0.0,0.0,0.0,0.0,0.0,0.0,0.0,0.0,0.0,0.0,0.0,0.0,0.0,0.0,0.0,0.0101,0.0151,0.0151,0.0202,0.0505,0.0909,0.1362,0.237,0.3667,0.5102,0.6067,0.6838,0.7568,0.774,0.774,0.774,0.774,0.774,0.774,0.774,0.774,0.774,0.7427,0.7052,0.6606,0.6184,0.5837,0.5377,0.5327,0.535,0.5429,0.6059,0.6608,0.7,0.7296,0.7441,0.7441,0.7021,0.6796,0.6884,0.701,0.7119,0.721,0.7319,0.746,0.7509,0.7712,0.7834,0.7882,0.7941,0.7988,0.0712,0.0698,0.0718,0.0,0.0,0.0,0.0998,0.1066,0.1085,0.1115,0.1147,0.1203,0.1203,0.1191,0.0,0.1212,0.1248,0.1306,0.0,0.0,0.0,0.0,0.0,0.0,0.0,0.0,0.0,0.0,0.148,0.1493,0.1477,0.1478,0.1539,0.1618,0.162,0.1338,0.0808,0.0808,0.0555,0.0,0.0,0.0,0.0,0.0,0.0,0.0,0.0,0.0,0.0,0.0,0.0,0.0,0.0,0.0,0.0,0.0,0.0,0.0,0.0,0.0,0.005,0.0303,0.0404,0.0454,0.0707,0.0808,0.0858,0.1112,0.1969,0.3126,0.4425,0.5782,0.6992,0.7789,0.7988,0.7988,0.7988,0.7988,0.7988,0.7988,0.7988,0.7988,0.7988,0.7796,0.7497,0.7241,0.6992,0.6692,0.6437,0.6437,0.6537,0.6792,0.6923,0.713,0.7379,0.7543,0.7604,0.7604,0.7597,0.7461,0.7112,0.7098,0.7217,0.7419,0.7419,0.7516,0.7814,0.7814,0.7889,0.7988,0.7988,0.7988,0.085,0.0813,0.0,0.0848,0.0,0.0,0.0,0.108,0.0,0.0,0.1206,0.1198,0.1198,0.1206,0.0,0.1212,0.1248,0.1306,0.0,0.0,0.0,0.0,0.0,0.0,0.0,0.0,0.0,0.0,0.1449,0.1453,0.1416,0.1482,0.1498,0.1508,0.1597,0.133,0.0792,0.0803,0.0555,0.0,0.0,0.0,0.0,0.0,0.0,0.0,0.0,0.0,0.0,0.0,0.0,0.0,0.0,0.0,0.0,0.0,0.0,0.0,0.0,0.0101,0.0303,0.0353,0.0505,0.0707,0.0757,0.091,0.1112,0.1162,0.1969,0.3025,0.3974,0.5081,0.6287,0.769,0.7988,0.7988,0.7988,0.7988,0.7988,0.7988,0.7988,0.7988,0.7988,0.7939,0.7839,0.7789,0.769,0.759,0.754,0.754,0.754,0.764,0.77,0.7724,0.7822,0.7786,0.7746,0.7746,0.7651,0.7556,0.7468,0.7461,0.7482,0.7529,0.7631,0.7726,0.7814,0.7874,0.7948,0.7988,0.7988,0.7988,0.0979,0.0892,0.0,0.0878,0.091,0.0973,0.1107,0.0,0.0,0.0,0.0,0.123,0.123,0.123,0.0,0.123,0.1256,0.1306,0.1306,0.0,0.0,0.0,0.0,0.0,0.0,0.0,0.0,0.1705,0.1705,0.1705,0.1705,0.1635,0.1566,0.1498,0.1535,0.1321,0.0794,0.0804,0.0555,0.0,0.0,0.0,0.0,0.0,0.0,0.0,0.0,0.0,0.0,0.0,0.0,0.0,0.0,0.0,0.0,0.0101,0.0151,0.0151,0.0303,0.0404,0.0555,0.0707,0.0808,0.096,0.1061,0.1213,0.1364,0.1364,0.1969,0.2823,0.3525,0.4479,0.5687,0.7285,0.7739,0.7889,0.7988,0.7988,0.7988,0.7988,0.7988,0.7988,0.7988,0.7988,0.7988,0.7988,0.7988,0.7988,0.7988,0.7988,0.7988,0.7988,0.7988,0.7988,0.7988,0.7907,0.7902,0.7902,0.7821,0.7773,0.7773,0.7658,0.7624,0.7685,0.7767,0.7841,0.7902,0.7941,0.7988,0.7988,0.7988,0.7988,0.1169,0.0,0.0,0.0918,0.0976,0.0,0.1186,0.1213,0.1224,0.1291,0.0,0.1296,0.1296,0.1296,0.1296,0.1296,0.1309,0.1306,0.1306,0.0,0.0,0.0,0.0,0.0,0.0,0.0,0.0,0.2242,0.2242,0.2242,0.2242,0.1977,0.1742,0.1524,0.1528,0.1315,0.0858,0.0858,0.0555,0.005,0.005,0.0,0.0,0.0,0.0,0.0,0.0,0.0,0.0,0.0,0.0,0.0,0.0,0.0,0.005,0.0303,0.0404,0.0454,0.0707,0.0808,0.0858,0.1112,0.1213,0.1263,0.1516,0.1617,0.1617,0.1617,0.1969,0.2471,0.2972,0.3927,0.5135,0.6686,0.7291,0.7646,0.7939,0.7988,0.7988,0.7988,0.7988,0.7988,0.7988,0.7988,0.7988,0.7988,0.7988,0.7988,0.7988,0.7988,0.7988,0.7988,0.7988,0.7988,0.7988,0.7988,0.7988,0.7988,0.7988,0.7988,0.7988,0.778,0.7699,0.7828,0.7834,0.7902,0.7988,0.7988,0.7988,0.7988,0.7988,0.7988,0.0,0.1359,0.0,0.0,0.1153,0.1151,0.1201,0.123,0.1288,0.1295,0.1296,0.1296,0.1296,0.1296,0.1296,0.1296,0.1309,0.1306,0.1306,0.1355,0.0,0.0,0.0,0.0,0.0,0.0,0.0,0.2735,0.2732,0.2732,0.2732,0.2324,0.1907,0.1525,0.1549,0.1431,0.1111,0.1112,0.0858,0.0303,0.0303,0.0202,0.0,0.0,0.0,0.0,0.0,0.0,0.0,0.0,0.0,0.0,0.0,0.0151,0.0303,0.0353,0.0555,0.0707,0.0757,0.096,0.1112,0.1162,0.1364,0.1516,0.1566,0.1617,0.1617,0.1617,0.1819,0.2172,0.2471,0.3377,0.4483,0.5687,0.6637,0.7441,0.7889,0.7988,0.7988,0.7988,0.7988,0.7988,0.7988,0.7988,0.7988,0.7988,0.7988,0.7988,0.7988,0.7988,0.7988,0.7988,0.7988,0.7988,0.7988,0.7988,0.7988,0.7988,0.7988,0.7988,0.7988,0.7928,0.7907,0.7941,0.7941,0.7955,0.7988,0.7988,0.7988,0.7988,0.7988,0.7988,0.0,0.0,0.0,0.0,0.0,0.0,0.0,0.0,0.0,0.0,0.1296,0.0,0.0,0.0,0.0,0.0,0.0,0.0,0.0,0.0,0.0,0.0,0.0,0.0,0.0,0.0,0.0,0.3537,0.3448,0.3358,0.3224,0.2673,0.2082,0.1524,0.1542,0.1425,0.1212,0.1213,0.091,0.0404,0.0404,0.0252,0.0,0.0,0.0,0.0,0.0,0.0,0.0,0.0,0.0,0.0,0.0151,0.0252,0.0454,0.0707,0.0858,0.1011,0.1162,0.1263,0.1415,0.1415,0.1465,0.1617,0.1617,0.1617,0.1617,0.1617,0.1718,0.1819,0.1969,0.2826,0.3883,0.4981,0.6132,0.7191,0.7839,0.7988,0.7988,0.7988,0.7988,0.7988,0.7988,0.7988,0.7988,0.7988,0.7988,0.7988,0.7988,0.7988,0.7988,0.7988,0.7988,0.7988,0.7988,0.7988,0.7988,0.7988,0.7988,0.7988,0.7988,0.7988,0.7988,0.7988,0.7988,0.7988,0.7988,0.7988,0.7988,0.7988,0.7988,0.7988,0.0,0.0,0.0,0.0,0.0,0.0,0.0,0.0,0.0,0.0,0.0,0.0,0.0,0.0,0.0,0.0,0.0,0.0,0.0,0.0,0.0,0.0,0.0,0.0,0.0,0.0,0.0,0.4478,0.4251,0.3979,0.3757,0.3004,0.2237,0.1516,0.1523,0.1407,0.1257,0.1261,0.1011,0.0555,0.0505,0.0353,0.0151,0.0151,0.0101,0.0,0.0,0.0,0.0,0.0,0.005,0.0101,0.0303,0.0454,0.0606,0.1061,0.1213,0.1314,0.1516,0.1617,0.1617,0.1617,0.1617,0.1617,0.1617,0.1617,0.1617,0.1617,0.1617,0.1618,0.1624,0.2384,0.3397,0.4467,0.5684,0.6894,0.7802,0.7988,0.7988,0.7988,0.7988,0.7988,0.7988,0.7988,0.7988,0.7988,0.7988,0.7988,0.7988,0.7988,0.7988,0.7988,0.7988,0.7988,0.7988,0.7988,0.7988,0.7988,0.8022,0.8042,0.8042,0.8035,0.8029,0.8029,0.8002,0.7988,0.7988,0.7988,0.7988,0.7988,0.7988,0.7988,0.0,0.0,0.0,0.0,0.0,0.0,0.0,0.0,0.0,0.0,0.0,0.0,0.0,0.0,0.0,0.0,0.0,0.0,0.0,0.0,0.0,0.0,0.0,0.0,0.0,0.0,0.0,0.0,0.5097,0.4652,0.4243,0.3358,0.2447,0.1532,0.1512,0.1494,0.1528,0.1553,0.1415,0.1112,0.0858,0.0707,0.0707,0.0707,0.0454,0.0,0.0,0.0,0.0,0.0,0.0151,0.0353,0.0404,0.0707,0.1112,0.1162,0.1364,0.1566,0.1566,0.1617,0.1617,0.1617,0.1617,0.1617,0.1617,0.1617,0.1617,0.1617,0.1617,0.1622,0.165,0.2327,0.3164,0.4047,0.5172,0.638,0.7691,0.7988,0.7988,0.7988,0.7988,0.7988,0.7988,0.7988,0.7988,0.7988,0.7988,0.7988,0.7988,0.7988,0.7988,0.7988,0.7988,0.7988,0.7988,0.7988,0.7988,0.7988,0.815,0.8244,0.8244,0.8262,0.8241,0.8241,0.8106,0.7988,0.7988,0.7988,0.7988,0.7988,0.7988,0.7988,0.327,0.3123,0.0,0.0,0.0,0.0,0.0,0.0,0.0,0.0,0.0,0.0,0.0,0.0,0.0,0.0,0.0,0.0,0.0,0.0,0.0,0.0,0.0,0.0,0.0,0.0,0.0,0.0,0.5547,0.4964,0.4332,0.34,0.2487,0.1525,0.1494,0.1523,0.162,0.1584,0.145,0.1213,0.091,0.0808,0.0808,0.0808,0.0656,0.0454,0.0454,0.0454,0.0454,0.0454,0.0505,0.0656,0.0808,0.1011,0.1213,0.1364,0.1516,0.1617,0.1617,0.1617,0.1617,0.1617,0.1617,0.1617,0.1617,0.1617,0.1617,0.1617,0.1629,0.1645,0.1711,0.2197,0.2897,0.3791,0.4684,0.5836,0.7599,0.802,0.8006,0.8137,0.8099,0.7988,0.7988,0.7988,0.7988,0.7988,0.7988,0.7988,0.7988,0.7988,0.7988,0.7988,0.7988,0.7988,0.7988,0.7988,0.8137,0.8467,0.8575,0.8568,0.846,0.8431,0.8391,0.8391,0.816,0.7988,0.7988,0.7988,0.7988,0.7988,0.7988,0.7988,0.3556,0.3545,0.3372,0.0,0.0,0.0,0.0,0.0,0.0,0.0,0.0,0.0,0.0,0.0,0.0,0.0,0.0,0.0,0.0,0.0,0.0,0.0,0.0,0.0,0.0,0.0,0.0,0.0,0.5902,0.5142,0.4332,0.34,0.2483,0.1514,0.1476,0.1502,0.1597,0.1555,0.1474,0.1295,0.1096,0.0996,0.0996,0.0996,0.0999,0.1003,0.0857,0.0808,0.0808,0.0808,0.0858,0.091,0.1112,0.1263,0.1314,0.1516,0.1617,0.1617,0.1617,0.1617,0.1617,0.1617,0.1617,0.1617,0.1617,0.1617,0.1617,0.1617,0.1639,0.1717,0.1724,0.2065,0.2625,0.3358,0.415,0.5439,0.7654,0.813,0.8184,0.8258,0.8194,0.8049,0.7995,0.7988,0.7988,0.7988,0.7988,0.7988,0.7988,0.8123,0.8217,0.8217,0.8217,0.8217,0.8217,0.8217,0.8406,0.8858,0.8885,0.8817,0.8669,0.8601,0.854,0.854,0.8282,0.8133,0.8099,0.8008,0.8008,0.8099,0.8099,0.8119,0.3764,0.3688,0.0,0.0,0.0,0.0,0.0,0.0,0.0,0.0,0.0,0.0,0.0,0.0,0.0,0.0,0.0,0.0,0.0,0.0,0.0,0.0,0.0,0.0,0.0,0.0,0.0,0.0,0.6207,0.527,0.4332,0.34,0.2422,0.1437,0.1466,0.1482,0.1485,0.1513,0.1482,0.1483,0.1483,0.1483,0.1483,0.1483,0.1498,0.1525,0.1002,0.0808,0.0808,0.0808,0.096,0.1162,0.1213,0.1364,0.1566,0.1617,0.1617,0.1617,0.1617,0.1617,0.1617,0.1617,0.1617,0.1617,0.1617,0.1617,0.1617,0.1617,0.1639,0.1721,0.1695,0.194,0.2302,0.2674,0.3687,0.5269,0.7977,0.8501,0.8452,0.8305,0.8278,0.8211,0.8022,0.7988,0.7988,0.7988,0.7988,0.7988,0.7988,0.8487,0.8838,0.8838,0.8838,0.8838,0.8838,0.8838,0.8851,0.8885,0.8885,0.8878,0.8865,0.8777,0.8696,0.8696,0.854,0.8391,0.8306,0.8113,0.8113,0.8306,0.8306,0.833,0.4002,0.4089,0.0,0.0,0.0,0.0,0.0,0.0,0.0,0.0,0.0,0.0,0.0,0.0,0.0,0.0,0.0,0.0,0.0,0.0,0.0,0.0,0.0,0.0,0.0,0.0,0.0,0.0,0.0,0.483,0.389,0.309,0.2242,0.1436,0.14,0.146,0.148,0.151,0.1478,0.1478,0.1478,0.1478,0.1478,0.1478,0.1543,0.1572,0.1385,0.1298,0.1314,0.1314,0.1364,0.1465,0.1465,0.1516,0.1617,0.1617,0.1617,0.1617,0.1617,0.1617,0.1617,0.1617,0.1617,0.1617,0.1617,0.1617,0.1617,0.1617,0.1652,0.1692,0.1701,0.1795,0.2116,0.2742,0.4421,0.619,0.7408,0.8157,0.8574,0.8487,0.8271,0.8076,0.8002,0.8305,0.8561,0.8561,0.8561,0.8561,0.8561,0.875,0.8885,0.8885,0.8885,0.8885,0.8885,0.8885,0.8885,0.8885,0.8885,0.8885,0.8885,0.8831,0.8804,0.8804,0.871,0.8554,0.8404,0.8262,0.8262,0.8404,0.8368,0.8343,0.404,0.0,0.0,0.0,0.0,0.0,0.0,0.0,0.0,0.0,0.0,0.0,0.0,0.0,0.0,0.0,0.0,0.0,0.0,0.0,0.0,0.0,0.0,0.0,0.0,0.0,0.0,0.0,0.0,0.0,0.34,0.2735,0.211,0.1436,0.1391,0.14,0.1466,0.1486,0.1449,0.1449,0.1449,0.1449,0.1449,0.1449,0.1517,0.1555,0.1555,0.1579,0.1617,0.1617,0.1617,0.1617,0.1617,0.1617,0.1617,0.1617,0.1617,0.1617,0.1617,0.1617,0.1617,0.1617,0.1617,0.1617,0.1617,0.1624,0.1632,0.1632,0.1674,0.1719,0.1719,0.1757,0.2018,0.297,0.4533,0.6033,0.6821,0.7895,0.8683,0.8683,0.8474,0.8292,0.8292,0.8622,0.8885,0.8885,0.8885,0.8885,0.8885,0.8885,0.8885,0.8885,0.8885,0.8885,0.8885,0.8885,0.8885,0.8885,0.8885,0.8885,0.8885,0.8885,0.8885,0.8885,0.8838,0.8737,0.8635,0.8438,0.8418,0.8554,0.8465,0.8492,0.0,0.0,0.0,0.0,0.0,0.0,0.0,0.0,0.0,0.0,0.0,0.0,0.0,0.0,0.0,0.0,0.0,0.0,0.0,0.0,0.0,0.0,0.0,0.0,0.0,0.0,0.0,0.0,0.483,0.3849,0.2911,0.2422,0.1929,0.1436,0.1391,0.1391,0.1391,0.1391,0.1391,0.1391,0.1391,0.1391,0.1391,0.1391,0.1422,0.1478,0.1478,0.1561,0.1617,0.1617,0.1617,0.1617,0.1617,0.1617,0.1617,0.1618,0.1618,0.1618,0.162,0.162,0.162,0.1618,0.1618,0.1618,0.1617,0.1639,0.1714,0.1714,0.1757,0.1805,0.1805,0.1774,0.2074,0.3309,0.3921,0.4644,0.6209,0.7771,0.8885,0.8885,0.8885,0.8885,0.8885,0.8885,0.8885,0.8885,0.8885,0.8885,0.8885,0.8885,0.8885,0.8885,0.8885,0.8885,0.8885,0.8885,0.8885,0.8885,0.8885,0.8885,0.8885,0.8885,0.8885,0.8885,0.8885,0.8885,0.8885,0.8635,0.8567,0.8716,0.8716,0.8798,0.3935,0.0,0.0,0.0,0.0,0.0,0.0,0.0,0.0,0.0,0.0,0.0,0.0,0.0,0.0,0.0,0.0,0.0,0.0,0.0,0.0,0.0,0.0,0.0,0.0,0.0,0.0,0.0,0.4344,0.3361,0.2422,0.1884,0.157,0.1391,0.1391,0.1391,0.1391,0.1391,0.1391,0.1391,0.1391,0.1391,0.1391,0.1391,0.1422,0.1478,0.1478,0.1561,0.1617,0.1617,0.1617,0.1617,0.1617,0.1617,0.162,0.1641,0.165,0.1652,0.1673,0.168,0.1677,0.1656,0.165,0.1645,0.1624,0.1639,0.1714,0.1714,0.1757,0.1809,0.1776,0.1789,0.2018,0.297,0.3695,0.4477,0.5489,0.7382,0.8885,0.8885,0.8885,0.8885,0.8885,0.8885,0.8885,0.8885,0.8885,0.8885,0.8885,0.8885,0.8885,0.8885,0.8885,0.8885,0.8885,0.8885,0.8885,0.8885,0.8885,0.8885,0.8885,0.8885,0.8885,0.8885,0.8885,0.8885,0.8885,0.8743,0.8723,0.8817,0.8817,0.8844,0.3923,0.4,0.0,0.0,0.0,0.0,0.0,0.3893,0.0,0.0,0.0,0.0,0.0,0.0,0.0,0.0,0.0,0.0,0.0,0.0,0.0,0.0,0.0,0.0,0.0,0.4408,0.4567,0.4696,0.3849,0.2869,0.1929,0.157,0.1391,0.1391,0.1391,0.1391,0.1391,0.1391,0.1391,0.1391,0.1391,0.1391,0.1391,0.1391,0.1422,0.1478,0.1478,0.1561,0.1617,0.1617,0.1617,0.1617,0.1617,0.1617,0.1621,0.1651,0.1714,0.1718,0.1695,0.1704,0.1701,0.1685,0.168,0.1677,0.1659,0.1674,0.1752,0.1752,0.1787,0.1772,0.179,0.1795,0.2018,0.2802,0.308,0.3586,0.5098,0.7215,0.8885,0.8885,0.8885,0.8885,0.8885,0.8885,0.8885,0.8885,0.8885,0.8885,0.8885,0.8885,0.8885,0.8885,0.8885,0.8885,0.8885,0.8885,0.8885,0.8885,0.8885,0.8885,0.8885,0.8885,0.8885,0.8885,0.8885,0.8885,0.8885,0.8852,0.8852,0.8885,0.8885,0.8885,0.3998,0.4059,0.4113,0.4272,0.4335,0.0,0.4152,0.4122,0.0,0.0,0.0,0.0,0.0,0.0,0.0,0.0,0.0,0.0,0.0,0.0,0.0,0.0,0.0,0.0,0.4136,0.4305,0.436,0.4364,0.3396,0.2419,0.148,0.1436,0.1391,0.1391,0.1391,0.1391,0.1391,0.1391,0.1391,0.1391,0.1391,0.1391,0.1391,0.1391,0.1422,0.1478,0.1478,0.1561,0.1617,0.1617,0.1617,0.1617,0.1617,0.1617,0.1621,0.1655,0.1719,0.1724,0.1703,0.1714,0.1714,0.1711,0.171,0.1708,0.1705,0.1726,0.1805,0.1808,0.1774,0.1795,0.1795,0.1795,0.1962,0.269,0.2298,0.2522,0.521,0.7438,0.8885,0.8885,0.8885,0.8885,0.8885,0.8885,0.8885,0.8885,0.8885,0.8885,0.8885,0.8885,0.8885,0.8885,0.8885,0.8885,0.8885,0.8885,0.8885,0.8885,0.8885,0.8885,0.8885,0.8885,0.8885,0.8885,0.8885,0.8885,0.8885,0.8885,0.8885,0.8885,0.8885,0.8885,0.4415,0.4494,0.4487,0.4477,0.4469,0.0,0.4294,0.426,0.415,0.0,0.0,0.0,0.0,0.0,0.0,0.0,0.0,0.0,0.0,0.0,0.0,0.0,0.0,0.0,0.4466,0.4578,0.4623,0.4701,0.3238,0.2153,0.1749,0.1525,0.1391,0.1391,0.1391,0.1391,0.1391,0.1391,0.1391,0.1391,0.1391,0.1391,0.1391,0.1391,0.1422,0.1478,0.1478,0.1561,0.1617,0.1617,0.1617,0.1617,0.1617,0.1617,0.1624,0.1677,0.1696,0.1704,0.1759,0.1778,0.1774,0.1804,0.1795,0.1791,0.1711,0.1726,0.1809,0.1779,0.179,0.1795,0.1795,0.1795,0.1851,0.2018,0.1906,0.2968,0.7265,0.8553,0.8885,0.8885,0.8885,0.8885,0.8885,0.8885,0.8885,0.8885,0.8885,0.8885,0.8885,0.8885,0.8885,0.8885,0.8885,0.8885,0.8885,0.8885,0.8885,0.8885,0.8885,0.8885,0.8885,0.8885,0.8885,0.8885,0.8885,0.8885,0.8885,0.8885,0.8885,0.8885,0.8885,0.8885,0.4771,0.4787,0.4727,0.4783,0.4654,0.0,0.0,0.4337,0.4258,0.408,0.0,0.0,0.0,0.0,0.0,0.0,0.0,0.0,0.0,0.0,0.0,0.0,0.0,0.0,0.4859,0.496,0.4826,0.4497,0.3276,0.2377,0.2018,0.1615,0.1391,0.1391,0.1391,0.1391,0.1391,0.1391,0.1391,0.1391,0.1391,0.1391,0.1391,0.1391,0.1422,0.1478,0.1478,0.1561,0.1617,0.1617,0.1617,0.1617,0.1617,0.1617,0.1624,0.1682,0.1704,0.1712,0.1774,0.1795,0.1793,0.1778,0.1828,0.177,0.1755,0.176,0.1775,0.1791,0.1795,0.1795,0.1795,0.1795,0.1795,0.1795,0.269,0.4592,0.8159,0.8885,0.8885,0.8885,0.8885,0.8885,0.8885,0.8885,0.8885,0.8885,0.8885,0.8885,0.8885,0.8885,0.8885,0.8885,0.8885,0.8885,0.8885,0.9076,0.9157,0.9157,0.9089,0.9049,0.9049,0.8974,0.8885,0.8885,0.8885,0.8885,0.8885,0.8885,0.8885,0.8885,0.8885,0.8885,0.5057,0.505,0.4954,0.5096,0.0,0.463,0.0,0.0,0.0,0.4418,0.0,0.0,0.0,0.0,0.0,0.0,0.0,0.0,0.0,0.0,0.0,0.0,0.0,0.0,0.5195,0.5311,0.5007,0.4206,0.3389,0.2732,0.2261,0.169,0.1381,0.1381,0.1387,0.1391,0.1391,0.1391,0.1391,0.1391,0.1391,0.1391,0.1391,0.1396,0.1428,0.1479,0.1532,0.1566,0.1617,0.1617,0.1617,0.1617,0.1617,0.1621,0.1632,0.1685,0.1708,0.172,0.1776,0.1795,0.1795,0.1795,0.1795,0.1795,0.1795,0.1795,0.1795,0.1795,0.1795,0.1795,0.1795,0.1795,0.1795,0.1795,0.3645,0.6051,0.838,0.8885,0.8885,0.8885,0.8885,0.8885,0.8885,0.8885,0.8885,0.8885,0.8885,0.8885,0.8885,0.8885,0.8885,0.8885,0.8885,0.8885,0.8885,0.9157,0.9347,0.9456,0.9357,0.9228,0.9173,0.9001,0.8885,0.8885,0.8885,0.8885,0.8885,0.8885,0.8885,0.8885,0.8885,0.8885,0.0,0.0,0.0,0.0,0.5241,0.5088,0.0,0.0,0.4686,0.4534,0.0,0.0,0.0,0.0,0.0,0.0,0.0,0.0,0.0,0.0,0.0,0.0,0.0,0.0,0.0,0.5443,0.5134,0.4358,0.3524,0.2858,0.2328,0.1726,0.1395,0.1395,0.1422,0.1391,0.1391,0.1391,0.1391,0.1391,0.1391,0.1391,0.1392,0.1463,0.1494,0.1479,0.1554,0.1585,0.1617,0.1617,0.1617,0.1617,0.1617,0.1633,0.1712,0.1693,0.1722,0.1804,0.1783,0.1795,0.1795,0.1795,0.1795,0.1795,0.1795,0.1795,0.1795,0.1795,0.1795,0.1795,0.1795,0.1795,0.1795,0.1795,0.3645,0.6051,0.838,0.8885,0.8885,0.8885,0.8885,0.8885,0.8885,0.8885,0.8885,0.8885,0.8885,0.8885,0.8885,0.8885,0.8885,0.8885,0.8885,0.8885,0.8885,0.8912,0.9211,0.9741,0.951,0.9239,0.8919,0.8892,0.8885,0.8885,0.8885,0.8885,0.8885,0.8885,0.8885,0.8885,0.8885,0.8885,0.0,0.0,0.0,0.0,0.0,0.0,0.4904,0.0,0.4816,0.0,0.0,0.0,0.0,0.0,0.0,0.0,0.0,0.0,0.0,0.0,0.0,0.0,0.0,0.0,0.0,0.0,0.0,0.0,0.3839,0.313,0.2512,0.1769,0.1373,0.1389,0.1401,0.1418,0.1391,0.1391,0.1391,0.1391,0.1391,0.1399,0.1463,0.1475,0.1506,0.1553,0.1566,0.1588,0.1617,0.1617,0.1617,0.1617,0.1617,0.1636,0.1718,0.1693,0.1723,0.1808,0.1785,0.1795,0.1795,0.1795,0.1795,0.1795,0.1795,0.1795,0.1795,0.1795,0.1795,0.1795,0.1795,0.1795,0.1795,0.1795,0.3645,0.6051,0.838,0.8885,0.8885,0.8885,0.8885,0.8885,0.8885,0.8885,0.8885,0.8885,0.8885,0.8885,0.8885,0.8885,0.8885,0.8885,0.8885,0.8885,0.8885,0.8885,0.9134,0.9781,0.9544,0.9245,0.8898,0.8885,0.8885,0.8885,0.8885,0.8885,0.8885,0.8885,0.8885,0.8885,0.8885,0.8885,0.5971,0.0,0.0,0.0,0.0,0.0,0.0,0.0,0.0,0.0,0.0,0.0,0.0,0.0,0.0,0.0,0.0,0.0,0.0,0.0,0.0,0.0,0.0,0.0,0.0,0.0,0.0,0.0,0.0,0.3196,0.2587,0.1766,0.1306,0.1378,0.1386,0.1404,0.1391,0.1391,0.1391,0.1391,0.1391,0.1452,0.148,0.149,0.1521,0.1621,0.158,0.1596,0.1617,0.1617,0.1617,0.1617,0.1617,0.1636,0.1718,0.1693,0.1729,0.1821,0.1787,0.1795,0.1795,0.1795,0.1795,0.1795,0.1795,0.1795,0.1795,0.1795,0.1795,0.1795,0.1795,0.1795,0.1795,0.1795,0.3253,0.5266,0.7493,0.8325,0.8712,0.8885,0.8885,0.8885,0.8885,0.8885,0.8885,0.8885,0.8885,0.8885,0.8885,0.8885,0.8885,0.8885,0.8885,0.8885,0.8885,0.9033,0.9303,0.9795,0.9469,0.9164,0.8892,0.8885,0.8885,0.8885,0.8885,0.8885,0.8885,0.8885,0.8885,0.8885,0.8885,0.8885,0.0,0.0,0.0,0.5639,0.0,0.0,0.0,0.0,0.551,0.0,0.0,0.0,0.0,0.5726,0.549,0.5141,0.0,0.0,0.0,0.0,0.0,0.0,0.0,0.0,0.0,0.0,0.0,0.0,0.3609,0.0,0.242,0.1707,0.1318,0.1306,0.1376,0.1404,0.1391,0.1391,0.1391,0.1391,0.1391,0.1452,0.1482,0.151,0.1542,0.1622,0.1602,0.1615,0.1617,0.1617,0.1617,0.1617,0.1617,0.1636,0.1718,0.1693,0.1742,0.1794,0.1794,0.1795,0.1795,0.1795,0.1795,0.1795,0.1795,0.1795,0.1795,0.1795,0.1795,0.1795,0.1795,0.1795,0.1795,0.1795,0.23,0.3311,0.5102,0.6826,0.8214,0.8774,0.8885,0.8885,0.8885,0.8885,0.8885,0.8885,0.8885,0.8885,0.8885,0.8885,0.8885,0.8885,0.8885,0.8885,0.8885,0.9462,0.9802,0.9822,0.9215,0.8892,0.8885,0.8885,0.8885,0.8885,0.8885,0.8885,0.8885,0.8885,0.8885,0.8885,0.8885,0.8885,0.0,0.0,0.6244,0.6142,0.0,0.0,0.0,0.0,0.0,0.0,0.0,0.0,0.0,0.6091,0.5878,0.549,0.5454,0.0,0.0,0.0,0.0,0.0,0.0,0.0,0.0,0.0,0.0,0.0,0.3561,0.0,0.2281,0.1665,0.1295,0.1304,0.1314,0.1342,0.1391,0.1391,0.1391,0.1391,0.1391,0.1416,0.151,0.1521,0.1554,0.1602,0.1613,0.1617,0.1617,0.1617,0.1617,0.1617,0.1617,0.1636,0.1718,0.1693,0.173,0.1823,0.1789,0.1795,0.1795,0.1795,0.1795,0.1795,0.1795,0.1795,0.1795,0.1795,0.1795,0.1795,0.1795,0.1795,0.1795,0.1795,0.1964,0.2356,0.3421,0.5043,0.6659,0.8048,0.8602,0.8885,0.8885,0.8885,0.8885,0.8885,0.8885,0.8885,0.8885,0.8885,0.8885,0.8885,0.9235,0.9523,0.9523,0.9707,0.9822,0.9822,0.9208,0.8885,0.8885,0.8885,0.8885,0.8885,0.8885,0.8885,0.8885,0.8885,0.8885,0.8885,0.8885,0.8885,0.6555,0.6485,0.0,0.6381,0.6221,0.0,0.6068,0.0,0.6014,0.0,0.0,0.0,0.0,0.0,0.6253,0.5864,0.5693,0.5377,0.0,0.4465,0.0,0.0,0.0,0.0,0.0,0.0,0.4565,0.4135,0.3338,0.0,0.0,0.1592,0.1273,0.1304,0.1306,0.1333,0.1389,0.1391,0.1391,0.1391,0.1391,0.1421,0.1478,0.1478,0.156,0.1617,0.1617,0.1617,0.1617,0.1617,0.1617,0.1617,0.1617,0.1636,0.1717,0.1682,0.1769,0.1808,0.1785,0.1795,0.1795,0.1795,0.1795,0.1795,0.1795,0.1795,0.1795,0.1795,0.1795,0.1795,0.1795,0.1795,0.1795,0.1795,0.1795,0.1964,0.258,0.3813,0.5206,0.6771,0.7937,0.8719,0.8885,0.8885,0.8885,0.8885,0.8885,0.8885,0.8885,0.9067,0.9195,0.9195,0.9591,0.9822,0.9822,0.9822,0.9822,0.9822,0.9208,0.8885,0.8885,0.8885,0.8885,0.8885,0.8885,0.8885,0.8885,0.8885,0.8885,0.8885,0.8885,0.8885]}]]